<?xml version="1.0" encoding="UTF-8" standalone="no" ?>
<gpx xmlns="http://www.topografix.com/GPX/1/1" xmlns:xsi="http://www.w3.org/2001/XMLSchema-instance" xsi:schemaLocation="http://www.topografix.com/GPX/1/1 http://www.topografix.com/GPX/1/1/gpx.xsd" version="1.1" creator="VisuGPX - https://www.visugpx.com">
  <metadata>
    <name>Tracé 24 juil. 2020 09:30:39</name>
  </metadata>
  <trk>
    <name><![CDATA[Tracé 24 juil. 2020 09:30:39]]></name>
    <trkseg>
      <trkpt lat="47.87308" lon="5.38052">
        <ele>342.5</ele>
        <time>2020-07-24T07:30:39Z</time>
      </trkpt>
      <trkpt lat="47.87315" lon="5.38059">
        <ele>342.1</ele>
        <time>2020-07-24T07:30:45Z</time>
      </trkpt>
      <trkpt lat="47.87325" lon="5.38056">
        <ele>341.4</ele>
        <time>2020-07-24T07:30:50Z</time>
      </trkpt>
      <trkpt lat="47.87332" lon="5.38049">
        <ele>342.7</ele>
        <time>2020-07-24T07:30:54Z</time>
      </trkpt>
      <trkpt lat="47.8734" lon="5.38043">
        <ele>343.3</ele>
        <time>2020-07-24T07:30:58Z</time>
      </trkpt>
      <trkpt lat="47.8735" lon="5.38037">
        <ele>343.5</ele>
        <time>2020-07-24T07:31:03Z</time>
      </trkpt>
      <trkpt lat="47.87358" lon="5.38031">
        <ele>343.8</ele>
        <time>2020-07-24T07:31:07Z</time>
      </trkpt>
      <trkpt lat="47.87366" lon="5.38026">
        <ele>344.3</ele>
        <time>2020-07-24T07:31:11Z</time>
      </trkpt>
      <trkpt lat="47.87377" lon="5.3802">
        <ele>344.1</ele>
        <time>2020-07-24T07:31:16Z</time>
      </trkpt>
      <trkpt lat="47.87389" lon="5.38017">
        <ele>344.1</ele>
        <time>2020-07-24T07:31:21Z</time>
      </trkpt>
      <trkpt lat="47.87402" lon="5.3801">
        <ele>346.5</ele>
        <time>2020-07-24T07:31:26Z</time>
      </trkpt>
      <trkpt lat="47.87413" lon="5.38003">
        <ele>347.9</ele>
        <time>2020-07-24T07:31:30Z</time>
      </trkpt>
      <trkpt lat="47.87421" lon="5.37996">
        <ele>348.7</ele>
        <time>2020-07-24T07:31:34Z</time>
      </trkpt>
      <trkpt lat="47.87421" lon="5.37995">
        <ele>348.4</ele>
        <time>2020-07-24T07:31:36Z</time>
      </trkpt>
      <trkpt lat="47.87421" lon="5.37995">
        <ele>348.4</ele>
        <time>2020-07-24T07:31:37Z</time>
      </trkpt>
      <trkpt lat="47.87421" lon="5.37995">
        <ele>348.1</ele>
        <time>2020-07-24T07:32:35Z</time>
      </trkpt>
      <trkpt lat="47.87429" lon="5.3799">
        <ele>348.1</ele>
        <time>2020-07-24T07:32:42Z</time>
      </trkpt>
      <trkpt lat="47.87439" lon="5.37977">
        <ele>348.1</ele>
        <time>2020-07-24T07:32:46Z</time>
      </trkpt>
      <trkpt lat="47.87447" lon="5.37961">
        <ele>348.2</ele>
        <time>2020-07-24T07:32:50Z</time>
      </trkpt>
      <trkpt lat="47.87459" lon="5.37945">
        <ele>348.2</ele>
        <time>2020-07-24T07:32:54Z</time>
      </trkpt>
      <trkpt lat="47.87475" lon="5.37916">
        <ele>348.1</ele>
        <time>2020-07-24T07:32:59Z</time>
      </trkpt>
      <trkpt lat="47.87488" lon="5.3789">
        <ele>347.9</ele>
        <time>2020-07-24T07:33:03Z</time>
      </trkpt>
      <trkpt lat="47.87504" lon="5.37859">
        <ele>348</ele>
        <time>2020-07-24T07:33:08Z</time>
      </trkpt>
      <trkpt lat="47.87518" lon="5.37829">
        <ele>347.9</ele>
        <time>2020-07-24T07:33:13Z</time>
      </trkpt>
      <trkpt lat="47.87528" lon="5.37805">
        <ele>347.9</ele>
        <time>2020-07-24T07:33:17Z</time>
      </trkpt>
      <trkpt lat="47.87538" lon="5.37781">
        <ele>348</ele>
        <time>2020-07-24T07:33:21Z</time>
      </trkpt>
      <trkpt lat="47.87548" lon="5.37758">
        <ele>347.3</ele>
        <time>2020-07-24T07:33:26Z</time>
      </trkpt>
      <trkpt lat="47.87556" lon="5.3774">
        <ele>346.5</ele>
        <time>2020-07-24T07:33:30Z</time>
      </trkpt>
      <trkpt lat="47.87563" lon="5.37723">
        <ele>346.1</ele>
        <time>2020-07-24T07:33:34Z</time>
      </trkpt>
      <trkpt lat="47.87571" lon="5.37706">
        <ele>346.6</ele>
        <time>2020-07-24T07:33:38Z</time>
      </trkpt>
      <trkpt lat="47.8758" lon="5.37691">
        <ele>346.3</ele>
        <time>2020-07-24T07:33:43Z</time>
      </trkpt>
      <trkpt lat="47.87587" lon="5.37679">
        <ele>345</ele>
        <time>2020-07-24T07:33:47Z</time>
      </trkpt>
      <trkpt lat="47.87594" lon="5.37664">
        <ele>344.2</ele>
        <time>2020-07-24T07:33:51Z</time>
      </trkpt>
      <trkpt lat="47.87604" lon="5.37647">
        <ele>342.3</ele>
        <time>2020-07-24T07:33:56Z</time>
      </trkpt>
      <trkpt lat="47.87612" lon="5.37626">
        <ele>342.7</ele>
        <time>2020-07-24T07:34:01Z</time>
      </trkpt>
      <trkpt lat="47.87619" lon="5.37602">
        <ele>342.6</ele>
        <time>2020-07-24T07:34:06Z</time>
      </trkpt>
      <trkpt lat="47.87625" lon="5.37582">
        <ele>342.6</ele>
        <time>2020-07-24T07:34:10Z</time>
      </trkpt>
      <trkpt lat="47.87632" lon="5.37559">
        <ele>342.7</ele>
        <time>2020-07-24T07:34:14Z</time>
      </trkpt>
      <trkpt lat="47.87638" lon="5.37525">
        <ele>341.9</ele>
        <time>2020-07-24T07:34:19Z</time>
      </trkpt>
      <trkpt lat="47.87644" lon="5.37488">
        <ele>341</ele>
        <time>2020-07-24T07:34:24Z</time>
      </trkpt>
      <trkpt lat="47.87648" lon="5.37461">
        <ele>340.8</ele>
        <time>2020-07-24T07:34:28Z</time>
      </trkpt>
      <trkpt lat="47.87652" lon="5.37441">
        <ele>339</ele>
        <time>2020-07-24T07:34:32Z</time>
      </trkpt>
      <trkpt lat="47.87657" lon="5.3742">
        <ele>337.6</ele>
        <time>2020-07-24T07:34:36Z</time>
      </trkpt>
      <trkpt lat="47.87665" lon="5.3739">
        <ele>337.3</ele>
        <time>2020-07-24T07:34:41Z</time>
      </trkpt>
      <trkpt lat="47.87672" lon="5.37367">
        <ele>337.5</ele>
        <time>2020-07-24T07:34:45Z</time>
      </trkpt>
      <trkpt lat="47.87676" lon="5.37344">
        <ele>337.4</ele>
        <time>2020-07-24T07:34:49Z</time>
      </trkpt>
      <trkpt lat="47.87689" lon="5.37322">
        <ele>340.2</ele>
        <time>2020-07-24T07:34:54Z</time>
      </trkpt>
      <trkpt lat="47.87698" lon="5.3731">
        <ele>340.2</ele>
        <time>2020-07-24T07:34:58Z</time>
      </trkpt>
      <trkpt lat="47.87706" lon="5.37296">
        <ele>341.5</ele>
        <time>2020-07-24T07:35:02Z</time>
      </trkpt>
      <trkpt lat="47.87716" lon="5.37279">
        <ele>342.6</ele>
        <time>2020-07-24T07:35:06Z</time>
      </trkpt>
      <trkpt lat="47.87726" lon="5.37263">
        <ele>344.4</ele>
        <time>2020-07-24T07:35:10Z</time>
      </trkpt>
      <trkpt lat="47.87738" lon="5.3724">
        <ele>346.5</ele>
        <time>2020-07-24T07:35:15Z</time>
      </trkpt>
      <trkpt lat="47.87749" lon="5.37223">
        <ele>347.5</ele>
        <time>2020-07-24T07:35:20Z</time>
      </trkpt>
      <trkpt lat="47.87754" lon="5.37209">
        <ele>347.8</ele>
        <time>2020-07-24T07:35:24Z</time>
      </trkpt>
      <trkpt lat="47.87751" lon="5.37195">
        <ele>345.1</ele>
        <time>2020-07-24T07:35:28Z</time>
      </trkpt>
      <trkpt lat="47.87749" lon="5.37175">
        <ele>344.2</ele>
        <time>2020-07-24T07:35:32Z</time>
      </trkpt>
      <trkpt lat="47.87748" lon="5.37148">
        <ele>343.7</ele>
        <time>2020-07-24T07:35:37Z</time>
      </trkpt>
      <trkpt lat="47.87749" lon="5.37133">
        <ele>344.2</ele>
        <time>2020-07-24T07:35:41Z</time>
      </trkpt>
      <trkpt lat="47.8776" lon="5.37124">
        <ele>345.7</ele>
        <time>2020-07-24T07:35:46Z</time>
      </trkpt>
      <trkpt lat="47.87772" lon="5.37116">
        <ele>346.6</ele>
        <time>2020-07-24T07:35:50Z</time>
      </trkpt>
      <trkpt lat="47.87783" lon="5.37103">
        <ele>346.7</ele>
        <time>2020-07-24T07:35:54Z</time>
      </trkpt>
      <trkpt lat="47.87796" lon="5.37098">
        <ele>345.1</ele>
        <time>2020-07-24T07:35:59Z</time>
      </trkpt>
      <trkpt lat="47.87801" lon="5.37108">
        <ele>340.6</ele>
        <time>2020-07-24T07:36:05Z</time>
      </trkpt>
      <trkpt lat="47.87809" lon="5.37111">
        <ele>339.6</ele>
        <time>2020-07-24T07:36:11Z</time>
      </trkpt>
      <trkpt lat="47.87816" lon="5.37097">
        <ele>337.7</ele>
        <time>2020-07-24T07:36:16Z</time>
      </trkpt>
      <trkpt lat="47.87826" lon="5.37079">
        <ele>337.5</ele>
        <time>2020-07-24T07:36:20Z</time>
      </trkpt>
      <trkpt lat="47.87838" lon="5.37061">
        <ele>337.8</ele>
        <time>2020-07-24T07:36:24Z</time>
      </trkpt>
      <trkpt lat="47.87854" lon="5.3704">
        <ele>337.2</ele>
        <time>2020-07-24T07:36:29Z</time>
      </trkpt>
      <trkpt lat="47.8787" lon="5.37017">
        <ele>336.7</ele>
        <time>2020-07-24T07:36:34Z</time>
      </trkpt>
      <trkpt lat="47.87883" lon="5.36997">
        <ele>337.9</ele>
        <time>2020-07-24T07:36:38Z</time>
      </trkpt>
      <trkpt lat="47.87897" lon="5.36976">
        <ele>338.8</ele>
        <time>2020-07-24T07:36:42Z</time>
      </trkpt>
      <trkpt lat="47.87909" lon="5.36953">
        <ele>338.2</ele>
        <time>2020-07-24T07:36:46Z</time>
      </trkpt>
      <trkpt lat="47.8792" lon="5.36928">
        <ele>337.2</ele>
        <time>2020-07-24T07:36:50Z</time>
      </trkpt>
      <trkpt lat="47.87929" lon="5.36903">
        <ele>336.1</ele>
        <time>2020-07-24T07:36:54Z</time>
      </trkpt>
      <trkpt lat="47.87939" lon="5.3687">
        <ele>335.9</ele>
        <time>2020-07-24T07:36:59Z</time>
      </trkpt>
      <trkpt lat="47.87945" lon="5.36846">
        <ele>335.4</ele>
        <time>2020-07-24T07:37:03Z</time>
      </trkpt>
      <trkpt lat="47.87953" lon="5.36818">
        <ele>334.6</ele>
        <time>2020-07-24T07:37:08Z</time>
      </trkpt>
      <trkpt lat="47.87954" lon="5.36796">
        <ele>335.7</ele>
        <time>2020-07-24T07:37:13Z</time>
      </trkpt>
      <trkpt lat="47.87947" lon="5.36788">
        <ele>338.8</ele>
        <time>2020-07-24T07:37:17Z</time>
      </trkpt>
      <trkpt lat="47.87933" lon="5.36773">
        <ele>339.3</ele>
        <time>2020-07-24T07:37:22Z</time>
      </trkpt>
      <trkpt lat="47.87923" lon="5.36751">
        <ele>338.9</ele>
        <time>2020-07-24T07:37:26Z</time>
      </trkpt>
      <trkpt lat="47.8791" lon="5.36724">
        <ele>338.9</ele>
        <time>2020-07-24T07:37:31Z</time>
      </trkpt>
      <trkpt lat="47.87899" lon="5.36703">
        <ele>338.7</ele>
        <time>2020-07-24T07:37:35Z</time>
      </trkpt>
      <trkpt lat="47.87885" lon="5.36679">
        <ele>338.8</ele>
        <time>2020-07-24T07:37:40Z</time>
      </trkpt>
      <trkpt lat="47.87876" lon="5.36659">
        <ele>338.4</ele>
        <time>2020-07-24T07:37:44Z</time>
      </trkpt>
      <trkpt lat="47.87865" lon="5.36636">
        <ele>337.7</ele>
        <time>2020-07-24T07:37:49Z</time>
      </trkpt>
      <trkpt lat="47.87855" lon="5.36614">
        <ele>337</ele>
        <time>2020-07-24T07:37:53Z</time>
      </trkpt>
      <trkpt lat="47.87842" lon="5.36586">
        <ele>336.7</ele>
        <time>2020-07-24T07:37:58Z</time>
      </trkpt>
      <trkpt lat="47.87832" lon="5.36562">
        <ele>336.1</ele>
        <time>2020-07-24T07:38:02Z</time>
      </trkpt>
      <trkpt lat="47.87821" lon="5.3654">
        <ele>335.6</ele>
        <time>2020-07-24T07:38:07Z</time>
      </trkpt>
      <trkpt lat="47.8781" lon="5.36515">
        <ele>335.5</ele>
        <time>2020-07-24T07:38:12Z</time>
      </trkpt>
      <trkpt lat="47.87802" lon="5.36492">
        <ele>336.3</ele>
        <time>2020-07-24T07:38:16Z</time>
      </trkpt>
      <trkpt lat="47.87791" lon="5.36462">
        <ele>336.9</ele>
        <time>2020-07-24T07:38:21Z</time>
      </trkpt>
      <trkpt lat="47.87783" lon="5.36444">
        <ele>336.3</ele>
        <time>2020-07-24T07:38:25Z</time>
      </trkpt>
      <trkpt lat="47.87772" lon="5.36416">
        <ele>336.2</ele>
        <time>2020-07-24T07:38:30Z</time>
      </trkpt>
      <trkpt lat="47.87763" lon="5.36397">
        <ele>335.4</ele>
        <time>2020-07-24T07:38:34Z</time>
      </trkpt>
      <trkpt lat="47.87753" lon="5.36372">
        <ele>333.6</ele>
        <time>2020-07-24T07:38:39Z</time>
      </trkpt>
      <trkpt lat="47.87745" lon="5.36343">
        <ele>333.3</ele>
        <time>2020-07-24T07:38:44Z</time>
      </trkpt>
      <trkpt lat="47.87738" lon="5.36317">
        <ele>330.5</ele>
        <time>2020-07-24T07:38:48Z</time>
      </trkpt>
      <trkpt lat="47.87732" lon="5.3629">
        <ele>330.2</ele>
        <time>2020-07-24T07:38:52Z</time>
      </trkpt>
      <trkpt lat="47.87726" lon="5.36264">
        <ele>330</ele>
        <time>2020-07-24T07:38:56Z</time>
      </trkpt>
      <trkpt lat="47.87716" lon="5.36241">
        <ele>330.1</ele>
        <time>2020-07-24T07:39:00Z</time>
      </trkpt>
      <trkpt lat="47.87698" lon="5.36224">
        <ele>329.9</ele>
        <time>2020-07-24T07:39:05Z</time>
      </trkpt>
      <trkpt lat="47.87682" lon="5.36225">
        <ele>330.7</ele>
        <time>2020-07-24T07:39:09Z</time>
      </trkpt>
      <trkpt lat="47.87664" lon="5.36235">
        <ele>333.2</ele>
        <time>2020-07-24T07:39:14Z</time>
      </trkpt>
      <trkpt lat="47.87649" lon="5.36248">
        <ele>334.8</ele>
        <time>2020-07-24T07:39:18Z</time>
      </trkpt>
      <trkpt lat="47.87629" lon="5.36264">
        <ele>336</ele>
        <time>2020-07-24T07:39:23Z</time>
      </trkpt>
      <trkpt lat="47.87612" lon="5.36278">
        <ele>335</ele>
        <time>2020-07-24T07:39:27Z</time>
      </trkpt>
      <trkpt lat="47.87593" lon="5.36294">
        <ele>336.3</ele>
        <time>2020-07-24T07:39:32Z</time>
      </trkpt>
      <trkpt lat="47.87577" lon="5.36307">
        <ele>336.2</ele>
        <time>2020-07-24T07:39:36Z</time>
      </trkpt>
      <trkpt lat="47.8756" lon="5.36322">
        <ele>336.5</ele>
        <time>2020-07-24T07:39:40Z</time>
      </trkpt>
      <trkpt lat="47.87537" lon="5.36339">
        <ele>337.1</ele>
        <time>2020-07-24T07:39:45Z</time>
      </trkpt>
      <trkpt lat="47.87514" lon="5.36345">
        <ele>336.3</ele>
        <time>2020-07-24T07:39:49Z</time>
      </trkpt>
      <trkpt lat="47.8749" lon="5.36335">
        <ele>336.3</ele>
        <time>2020-07-24T07:39:53Z</time>
      </trkpt>
      <trkpt lat="47.87467" lon="5.36303">
        <ele>336.6</ele>
        <time>2020-07-24T07:39:58Z</time>
      </trkpt>
      <trkpt lat="47.87451" lon="5.36262">
        <ele>335.4</ele>
        <time>2020-07-24T07:40:03Z</time>
      </trkpt>
      <trkpt lat="47.87431" lon="5.36213">
        <ele>331.9</ele>
        <time>2020-07-24T07:40:08Z</time>
      </trkpt>
      <trkpt lat="47.87417" lon="5.36176">
        <ele>329.3</ele>
        <time>2020-07-24T07:40:12Z</time>
      </trkpt>
      <trkpt lat="47.87405" lon="5.36139">
        <ele>327.6</ele>
        <time>2020-07-24T07:40:16Z</time>
      </trkpt>
      <trkpt lat="47.87391" lon="5.36088">
        <ele>320.6</ele>
        <time>2020-07-24T07:40:21Z</time>
      </trkpt>
      <trkpt lat="47.8738" lon="5.36047">
        <ele>318</ele>
        <time>2020-07-24T07:40:25Z</time>
      </trkpt>
      <trkpt lat="47.87373" lon="5.35998">
        <ele>317.2</ele>
        <time>2020-07-24T07:40:29Z</time>
      </trkpt>
      <trkpt lat="47.87372" lon="5.35949">
        <ele>316.1</ele>
        <time>2020-07-24T07:40:33Z</time>
      </trkpt>
      <trkpt lat="47.87375" lon="5.35901">
        <ele>315.1</ele>
        <time>2020-07-24T07:40:37Z</time>
      </trkpt>
      <trkpt lat="47.87381" lon="5.35854">
        <ele>313.1</ele>
        <time>2020-07-24T07:40:41Z</time>
      </trkpt>
      <trkpt lat="47.87389" lon="5.35793">
        <ele>311.1</ele>
        <time>2020-07-24T07:40:46Z</time>
      </trkpt>
      <trkpt lat="47.87399" lon="5.3575">
        <ele>309.9</ele>
        <time>2020-07-24T07:40:50Z</time>
      </trkpt>
      <trkpt lat="47.87413" lon="5.35711">
        <ele>310.2</ele>
        <time>2020-07-24T07:40:54Z</time>
      </trkpt>
      <trkpt lat="47.87428" lon="5.35674">
        <ele>308.7</ele>
        <time>2020-07-24T07:40:58Z</time>
      </trkpt>
      <trkpt lat="47.87446" lon="5.35639">
        <ele>304.1</ele>
        <time>2020-07-24T07:41:03Z</time>
      </trkpt>
      <trkpt lat="47.87454" lon="5.3562">
        <ele>302.7</ele>
        <time>2020-07-24T07:41:07Z</time>
      </trkpt>
      <trkpt lat="47.87452" lon="5.35607">
        <ele>303</ele>
        <time>2020-07-24T07:41:12Z</time>
      </trkpt>
      <trkpt lat="47.87436" lon="5.35605">
        <ele>302.1</ele>
        <time>2020-07-24T07:41:17Z</time>
      </trkpt>
      <trkpt lat="47.87419" lon="5.35608">
        <ele>299.5</ele>
        <time>2020-07-24T07:41:21Z</time>
      </trkpt>
      <trkpt lat="47.87401" lon="5.35615">
        <ele>296.1</ele>
        <time>2020-07-24T07:41:25Z</time>
      </trkpt>
      <trkpt lat="47.87375" lon="5.35625">
        <ele>292.3</ele>
        <time>2020-07-24T07:41:30Z</time>
      </trkpt>
      <trkpt lat="47.87348" lon="5.35634">
        <ele>287.5</ele>
        <time>2020-07-24T07:41:34Z</time>
      </trkpt>
      <trkpt lat="47.87315" lon="5.3565">
        <ele>285.2</ele>
        <time>2020-07-24T07:41:39Z</time>
      </trkpt>
      <trkpt lat="47.87292" lon="5.35665">
        <ele>283.6</ele>
        <time>2020-07-24T07:41:44Z</time>
      </trkpt>
      <trkpt lat="47.87277" lon="5.35663">
        <ele>283.3</ele>
        <time>2020-07-24T07:41:48Z</time>
      </trkpt>
      <trkpt lat="47.87263" lon="5.35657">
        <ele>285.6</ele>
        <time>2020-07-24T07:41:52Z</time>
      </trkpt>
      <trkpt lat="47.87247" lon="5.35647">
        <ele>287.4</ele>
        <time>2020-07-24T07:41:57Z</time>
      </trkpt>
      <trkpt lat="47.87233" lon="5.35669">
        <ele>286.3</ele>
        <time>2020-07-24T07:42:02Z</time>
      </trkpt>
      <trkpt lat="47.87229" lon="5.35697">
        <ele>286</ele>
        <time>2020-07-24T07:42:06Z</time>
      </trkpt>
      <trkpt lat="47.87221" lon="5.35731">
        <ele>285.2</ele>
        <time>2020-07-24T07:42:10Z</time>
      </trkpt>
      <trkpt lat="47.8721" lon="5.3576">
        <ele>284</ele>
        <time>2020-07-24T07:42:14Z</time>
      </trkpt>
      <trkpt lat="47.87184" lon="5.35771">
        <ele>282.4</ele>
        <time>2020-07-24T07:42:19Z</time>
      </trkpt>
      <trkpt lat="47.87169" lon="5.35753">
        <ele>283.6</ele>
        <time>2020-07-24T07:42:23Z</time>
      </trkpt>
      <trkpt lat="47.87154" lon="5.3573">
        <ele>283.7</ele>
        <time>2020-07-24T07:42:27Z</time>
      </trkpt>
      <trkpt lat="47.87138" lon="5.35706">
        <ele>284</ele>
        <time>2020-07-24T07:42:31Z</time>
      </trkpt>
      <trkpt lat="47.87124" lon="5.35682">
        <ele>284.1</ele>
        <time>2020-07-24T07:42:35Z</time>
      </trkpt>
      <trkpt lat="47.87107" lon="5.3565">
        <ele>283.5</ele>
        <time>2020-07-24T07:42:40Z</time>
      </trkpt>
      <trkpt lat="47.87088" lon="5.35618">
        <ele>282.1</ele>
        <time>2020-07-24T07:42:45Z</time>
      </trkpt>
      <trkpt lat="47.87075" lon="5.35595">
        <ele>282.4</ele>
        <time>2020-07-24T07:42:49Z</time>
      </trkpt>
      <trkpt lat="47.87059" lon="5.35572">
        <ele>282.4</ele>
        <time>2020-07-24T07:42:54Z</time>
      </trkpt>
      <trkpt lat="47.87051" lon="5.35558">
        <ele>286</ele>
        <time>2020-07-24T07:42:58Z</time>
      </trkpt>
      <trkpt lat="47.87039" lon="5.35539">
        <ele>286</ele>
        <time>2020-07-24T07:43:03Z</time>
      </trkpt>
      <trkpt lat="47.87025" lon="5.35518">
        <ele>284.2</ele>
        <time>2020-07-24T07:43:07Z</time>
      </trkpt>
      <trkpt lat="47.87011" lon="5.35494">
        <ele>284.2</ele>
        <time>2020-07-24T07:43:11Z</time>
      </trkpt>
      <trkpt lat="47.86993" lon="5.35466">
        <ele>284.2</ele>
        <time>2020-07-24T07:43:16Z</time>
      </trkpt>
      <trkpt lat="47.86978" lon="5.35444">
        <ele>283.7</ele>
        <time>2020-07-24T07:43:20Z</time>
      </trkpt>
      <trkpt lat="47.86964" lon="5.35421">
        <ele>283</ele>
        <time>2020-07-24T07:43:24Z</time>
      </trkpt>
      <trkpt lat="47.86953" lon="5.35398">
        <ele>281.9</ele>
        <time>2020-07-24T07:43:28Z</time>
      </trkpt>
      <trkpt lat="47.86936" lon="5.35371">
        <ele>281.1</ele>
        <time>2020-07-24T07:43:33Z</time>
      </trkpt>
      <trkpt lat="47.86922" lon="5.35352">
        <ele>281.2</ele>
        <time>2020-07-24T07:43:37Z</time>
      </trkpt>
      <trkpt lat="47.86908" lon="5.35333">
        <ele>283.7</ele>
        <time>2020-07-24T07:43:41Z</time>
      </trkpt>
      <trkpt lat="47.86895" lon="5.35314">
        <ele>285.1</ele>
        <time>2020-07-24T07:43:45Z</time>
      </trkpt>
      <trkpt lat="47.86884" lon="5.35299">
        <ele>284.7</ele>
        <time>2020-07-24T07:43:49Z</time>
      </trkpt>
      <trkpt lat="47.86874" lon="5.3528">
        <ele>286.4</ele>
        <time>2020-07-24T07:43:53Z</time>
      </trkpt>
      <trkpt lat="47.86865" lon="5.35264">
        <ele>285.2</ele>
        <time>2020-07-24T07:43:57Z</time>
      </trkpt>
      <trkpt lat="47.86851" lon="5.35244">
        <ele>286.5</ele>
        <time>2020-07-24T07:44:02Z</time>
      </trkpt>
      <trkpt lat="47.86843" lon="5.35231">
        <ele>286.5</ele>
        <time>2020-07-24T07:44:06Z</time>
      </trkpt>
      <trkpt lat="47.86835" lon="5.35215">
        <ele>286.8</ele>
        <time>2020-07-24T07:44:11Z</time>
      </trkpt>
      <trkpt lat="47.86829" lon="5.35203">
        <ele>287.4</ele>
        <time>2020-07-24T07:44:15Z</time>
      </trkpt>
      <trkpt lat="47.86823" lon="5.35191">
        <ele>288.1</ele>
        <time>2020-07-24T07:44:19Z</time>
      </trkpt>
      <trkpt lat="47.86815" lon="5.35183">
        <ele>288.6</ele>
        <time>2020-07-24T07:44:23Z</time>
      </trkpt>
      <trkpt lat="47.86809" lon="5.3517">
        <ele>288.6</ele>
        <time>2020-07-24T07:44:28Z</time>
      </trkpt>
      <trkpt lat="47.86802" lon="5.35158">
        <ele>288.8</ele>
        <time>2020-07-24T07:44:33Z</time>
      </trkpt>
      <trkpt lat="47.86797" lon="5.35149">
        <ele>289.3</ele>
        <time>2020-07-24T07:44:38Z</time>
      </trkpt>
      <trkpt lat="47.8679" lon="5.35139">
        <ele>289.8</ele>
        <time>2020-07-24T07:44:42Z</time>
      </trkpt>
      <trkpt lat="47.86786" lon="5.35124">
        <ele>290.2</ele>
        <time>2020-07-24T07:44:47Z</time>
      </trkpt>
      <trkpt lat="47.8678" lon="5.35116">
        <ele>290.1</ele>
        <time>2020-07-24T07:44:53Z</time>
      </trkpt>
      <trkpt lat="47.86777" lon="5.35103">
        <ele>290</ele>
        <time>2020-07-24T07:44:58Z</time>
      </trkpt>
      <trkpt lat="47.86775" lon="5.35092">
        <ele>289.9</ele>
        <time>2020-07-24T07:45:02Z</time>
      </trkpt>
      <trkpt lat="47.86769" lon="5.35078">
        <ele>290.4</ele>
        <time>2020-07-24T07:45:07Z</time>
      </trkpt>
      <trkpt lat="47.86763" lon="5.35069">
        <ele>290.1</ele>
        <time>2020-07-24T07:45:11Z</time>
      </trkpt>
      <trkpt lat="47.86759" lon="5.35053">
        <ele>290.9</ele>
        <time>2020-07-24T07:45:16Z</time>
      </trkpt>
      <trkpt lat="47.86758" lon="5.35038">
        <ele>291.6</ele>
        <time>2020-07-24T07:45:21Z</time>
      </trkpt>
      <trkpt lat="47.86754" lon="5.35025">
        <ele>292.3</ele>
        <time>2020-07-24T07:45:25Z</time>
      </trkpt>
      <trkpt lat="47.86747" lon="5.3501">
        <ele>293.6</ele>
        <time>2020-07-24T07:45:30Z</time>
      </trkpt>
      <trkpt lat="47.86741" lon="5.34999">
        <ele>294.4</ele>
        <time>2020-07-24T07:45:34Z</time>
      </trkpt>
      <trkpt lat="47.86736" lon="5.34985">
        <ele>294.6</ele>
        <time>2020-07-24T07:45:39Z</time>
      </trkpt>
      <trkpt lat="47.86728" lon="5.3497">
        <ele>295.5</ele>
        <time>2020-07-24T07:45:44Z</time>
      </trkpt>
      <trkpt lat="47.86721" lon="5.34957">
        <ele>296.3</ele>
        <time>2020-07-24T07:45:48Z</time>
      </trkpt>
      <trkpt lat="47.86713" lon="5.34942">
        <ele>297.3</ele>
        <time>2020-07-24T07:45:53Z</time>
      </trkpt>
      <trkpt lat="47.86708" lon="5.3493">
        <ele>297.7</ele>
        <time>2020-07-24T07:45:57Z</time>
      </trkpt>
      <trkpt lat="47.86704" lon="5.34916">
        <ele>296.9</ele>
        <time>2020-07-24T07:46:02Z</time>
      </trkpt>
      <trkpt lat="47.86702" lon="5.34905">
        <ele>295.9</ele>
        <time>2020-07-24T07:46:06Z</time>
      </trkpt>
      <trkpt lat="47.86697" lon="5.34894">
        <ele>296.4</ele>
        <time>2020-07-24T07:46:10Z</time>
      </trkpt>
      <trkpt lat="47.86692" lon="5.34881">
        <ele>297.1</ele>
        <time>2020-07-24T07:46:15Z</time>
      </trkpt>
      <trkpt lat="47.86686" lon="5.3487">
        <ele>298.8</ele>
        <time>2020-07-24T07:46:19Z</time>
      </trkpt>
      <trkpt lat="47.86685" lon="5.34857">
        <ele>299.5</ele>
        <time>2020-07-24T07:46:25Z</time>
      </trkpt>
      <trkpt lat="47.86681" lon="5.34845">
        <ele>301</ele>
        <time>2020-07-24T07:46:30Z</time>
      </trkpt>
      <trkpt lat="47.86678" lon="5.34833">
        <ele>302.2</ele>
        <time>2020-07-24T07:46:35Z</time>
      </trkpt>
      <trkpt lat="47.86675" lon="5.34823">
        <ele>303.3</ele>
        <time>2020-07-24T07:46:39Z</time>
      </trkpt>
      <trkpt lat="47.86672" lon="5.34812">
        <ele>305.2</ele>
        <time>2020-07-24T07:46:45Z</time>
      </trkpt>
      <trkpt lat="47.86668" lon="5.348">
        <ele>306.2</ele>
        <time>2020-07-24T07:46:50Z</time>
      </trkpt>
      <trkpt lat="47.86665" lon="5.34788">
        <ele>306.9</ele>
        <time>2020-07-24T07:46:55Z</time>
      </trkpt>
      <trkpt lat="47.86662" lon="5.34777">
        <ele>307.7</ele>
        <time>2020-07-24T07:47:00Z</time>
      </trkpt>
      <trkpt lat="47.86658" lon="5.34765">
        <ele>306.2</ele>
        <time>2020-07-24T07:47:06Z</time>
      </trkpt>
      <trkpt lat="47.86655" lon="5.34754">
        <ele>306.7</ele>
        <time>2020-07-24T07:47:11Z</time>
      </trkpt>
      <trkpt lat="47.86654" lon="5.34742">
        <ele>308.4</ele>
        <time>2020-07-24T07:47:17Z</time>
      </trkpt>
      <trkpt lat="47.86649" lon="5.3473">
        <ele>306.6</ele>
        <time>2020-07-24T07:47:23Z</time>
      </trkpt>
      <trkpt lat="47.86646" lon="5.34718">
        <ele>307</ele>
        <time>2020-07-24T07:47:29Z</time>
      </trkpt>
      <trkpt lat="47.86643" lon="5.34706">
        <ele>307.3</ele>
        <time>2020-07-24T07:47:35Z</time>
      </trkpt>
      <trkpt lat="47.86641" lon="5.34695">
        <ele>308.3</ele>
        <time>2020-07-24T07:47:41Z</time>
      </trkpt>
      <trkpt lat="47.86639" lon="5.34683">
        <ele>308.6</ele>
        <time>2020-07-24T07:47:46Z</time>
      </trkpt>
      <trkpt lat="47.86638" lon="5.34672">
        <ele>309.3</ele>
        <time>2020-07-24T07:47:51Z</time>
      </trkpt>
      <trkpt lat="47.86634" lon="5.3466">
        <ele>310.4</ele>
        <time>2020-07-24T07:47:58Z</time>
      </trkpt>
      <trkpt lat="47.86636" lon="5.34648">
        <ele>310.5</ele>
        <time>2020-07-24T07:48:06Z</time>
      </trkpt>
      <trkpt lat="47.86635" lon="5.34636">
        <ele>310.4</ele>
        <time>2020-07-24T07:48:11Z</time>
      </trkpt>
      <trkpt lat="47.86635" lon="5.34623">
        <ele>313.2</ele>
        <time>2020-07-24T07:48:17Z</time>
      </trkpt>
      <trkpt lat="47.86635" lon="5.34611">
        <ele>315.4</ele>
        <time>2020-07-24T07:48:22Z</time>
      </trkpt>
      <trkpt lat="47.86636" lon="5.346">
        <ele>315.9</ele>
        <time>2020-07-24T07:48:26Z</time>
      </trkpt>
      <trkpt lat="47.86637" lon="5.34588">
        <ele>317.3</ele>
        <time>2020-07-24T07:48:30Z</time>
      </trkpt>
      <trkpt lat="47.86637" lon="5.34574">
        <ele>317.9</ele>
        <time>2020-07-24T07:48:34Z</time>
      </trkpt>
      <trkpt lat="47.86639" lon="5.34558">
        <ele>319.2</ele>
        <time>2020-07-24T07:48:39Z</time>
      </trkpt>
      <trkpt lat="47.86642" lon="5.34541">
        <ele>319.6</ele>
        <time>2020-07-24T07:48:43Z</time>
      </trkpt>
      <trkpt lat="47.86646" lon="5.34528">
        <ele>319.7</ele>
        <time>2020-07-24T07:48:47Z</time>
      </trkpt>
      <trkpt lat="47.86653" lon="5.34515">
        <ele>318.1</ele>
        <time>2020-07-24T07:48:52Z</time>
      </trkpt>
      <trkpt lat="47.86654" lon="5.34499">
        <ele>319.7</ele>
        <time>2020-07-24T07:48:57Z</time>
      </trkpt>
      <trkpt lat="47.86657" lon="5.34488">
        <ele>320.7</ele>
        <time>2020-07-24T07:49:01Z</time>
      </trkpt>
      <trkpt lat="47.8666" lon="5.34475">
        <ele>321</ele>
        <time>2020-07-24T07:49:05Z</time>
      </trkpt>
      <trkpt lat="47.86664" lon="5.34458">
        <ele>322.1</ele>
        <time>2020-07-24T07:49:10Z</time>
      </trkpt>
      <trkpt lat="47.86667" lon="5.3444">
        <ele>322.7</ele>
        <time>2020-07-24T07:49:15Z</time>
      </trkpt>
      <trkpt lat="47.86669" lon="5.34421">
        <ele>321.9</ele>
        <time>2020-07-24T07:49:19Z</time>
      </trkpt>
      <trkpt lat="47.86666" lon="5.34398">
        <ele>323.2</ele>
        <time>2020-07-24T07:49:24Z</time>
      </trkpt>
      <trkpt lat="47.86664" lon="5.34381">
        <ele>323.9</ele>
        <time>2020-07-24T07:49:28Z</time>
      </trkpt>
      <trkpt lat="47.86663" lon="5.34366">
        <ele>323.9</ele>
        <time>2020-07-24T07:49:32Z</time>
      </trkpt>
      <trkpt lat="47.86659" lon="5.3435">
        <ele>324.6</ele>
        <time>2020-07-24T07:49:37Z</time>
      </trkpt>
      <trkpt lat="47.86656" lon="5.34338">
        <ele>324.9</ele>
        <time>2020-07-24T07:49:41Z</time>
      </trkpt>
      <trkpt lat="47.86653" lon="5.34326">
        <ele>325.5</ele>
        <time>2020-07-24T07:49:45Z</time>
      </trkpt>
      <trkpt lat="47.86651" lon="5.34313">
        <ele>325.5</ele>
        <time>2020-07-24T07:49:58Z</time>
      </trkpt>
      <trkpt lat="47.86646" lon="5.34304">
        <ele>324</ele>
        <time>2020-07-24T07:50:02Z</time>
      </trkpt>
      <trkpt lat="47.86643" lon="5.34294">
        <ele>321.8</ele>
        <time>2020-07-24T07:50:08Z</time>
      </trkpt>
      <trkpt lat="47.86638" lon="5.34284">
        <ele>321.9</ele>
        <time>2020-07-24T07:50:13Z</time>
      </trkpt>
      <trkpt lat="47.86635" lon="5.34274">
        <ele>322.6</ele>
        <time>2020-07-24T07:50:18Z</time>
      </trkpt>
      <trkpt lat="47.86631" lon="5.34263">
        <ele>323.7</ele>
        <time>2020-07-24T07:50:24Z</time>
      </trkpt>
      <trkpt lat="47.86626" lon="5.34253">
        <ele>324.4</ele>
        <time>2020-07-24T07:50:29Z</time>
      </trkpt>
      <trkpt lat="47.8662" lon="5.34244">
        <ele>325.5</ele>
        <time>2020-07-24T07:50:35Z</time>
      </trkpt>
      <trkpt lat="47.86617" lon="5.34232">
        <ele>326.6</ele>
        <time>2020-07-24T07:50:40Z</time>
      </trkpt>
      <trkpt lat="47.86614" lon="5.3422">
        <ele>327.1</ele>
        <time>2020-07-24T07:50:45Z</time>
      </trkpt>
      <trkpt lat="47.8661" lon="5.3421">
        <ele>327.9</ele>
        <time>2020-07-24T07:50:52Z</time>
      </trkpt>
      <trkpt lat="47.86605" lon="5.34201">
        <ele>328.7</ele>
        <time>2020-07-24T07:50:58Z</time>
      </trkpt>
      <trkpt lat="47.86599" lon="5.34193">
        <ele>328.7</ele>
        <time>2020-07-24T07:51:04Z</time>
      </trkpt>
      <trkpt lat="47.86594" lon="5.34183">
        <ele>330.3</ele>
        <time>2020-07-24T07:51:10Z</time>
      </trkpt>
      <trkpt lat="47.86588" lon="5.34174">
        <ele>331.9</ele>
        <time>2020-07-24T07:51:16Z</time>
      </trkpt>
      <trkpt lat="47.86583" lon="5.34165">
        <ele>333</ele>
        <time>2020-07-24T07:51:21Z</time>
      </trkpt>
      <trkpt lat="47.86578" lon="5.34156">
        <ele>334.7</ele>
        <time>2020-07-24T07:51:26Z</time>
      </trkpt>
      <trkpt lat="47.86572" lon="5.34147">
        <ele>336.2</ele>
        <time>2020-07-24T07:51:33Z</time>
      </trkpt>
      <trkpt lat="47.86565" lon="5.34139">
        <ele>337.4</ele>
        <time>2020-07-24T07:51:40Z</time>
      </trkpt>
      <trkpt lat="47.86563" lon="5.34127">
        <ele>338.4</ele>
        <time>2020-07-24T07:51:46Z</time>
      </trkpt>
      <trkpt lat="47.86561" lon="5.34115">
        <ele>340.3</ele>
        <time>2020-07-24T07:51:51Z</time>
      </trkpt>
      <trkpt lat="47.86554" lon="5.34107">
        <ele>340.1</ele>
        <time>2020-07-24T07:51:57Z</time>
      </trkpt>
      <trkpt lat="47.86548" lon="5.34099">
        <ele>340.4</ele>
        <time>2020-07-24T07:52:02Z</time>
      </trkpt>
      <trkpt lat="47.86544" lon="5.34088">
        <ele>341.5</ele>
        <time>2020-07-24T07:52:10Z</time>
      </trkpt>
      <trkpt lat="47.86536" lon="5.3408">
        <ele>341.4</ele>
        <time>2020-07-24T07:52:15Z</time>
      </trkpt>
      <trkpt lat="47.86535" lon="5.34069">
        <ele>344.6</ele>
        <time>2020-07-24T07:52:21Z</time>
      </trkpt>
      <trkpt lat="47.86529" lon="5.34061">
        <ele>345.5</ele>
        <time>2020-07-24T07:52:28Z</time>
      </trkpt>
      <trkpt lat="47.86524" lon="5.34051">
        <ele>346.6</ele>
        <time>2020-07-24T07:52:34Z</time>
      </trkpt>
      <trkpt lat="47.86519" lon="5.34042">
        <ele>347.6</ele>
        <time>2020-07-24T07:52:41Z</time>
      </trkpt>
      <trkpt lat="47.86513" lon="5.34034">
        <ele>347.5</ele>
        <time>2020-07-24T07:52:48Z</time>
      </trkpt>
      <trkpt lat="47.86509" lon="5.34024">
        <ele>349.5</ele>
        <time>2020-07-24T07:52:54Z</time>
      </trkpt>
      <trkpt lat="47.86502" lon="5.34017">
        <ele>350.8</ele>
        <time>2020-07-24T07:52:59Z</time>
      </trkpt>
      <trkpt lat="47.86496" lon="5.34007">
        <ele>351.1</ele>
        <time>2020-07-24T07:53:06Z</time>
      </trkpt>
      <trkpt lat="47.86491" lon="5.33997">
        <ele>352.7</ele>
        <time>2020-07-24T07:53:13Z</time>
      </trkpt>
      <trkpt lat="47.86486" lon="5.33986">
        <ele>354.5</ele>
        <time>2020-07-24T07:53:21Z</time>
      </trkpt>
      <trkpt lat="47.86482" lon="5.33976">
        <ele>355.8</ele>
        <time>2020-07-24T07:53:29Z</time>
      </trkpt>
      <trkpt lat="47.86477" lon="5.33965">
        <ele>357.8</ele>
        <time>2020-07-24T07:53:37Z</time>
      </trkpt>
      <trkpt lat="47.86472" lon="5.33956">
        <ele>359.9</ele>
        <time>2020-07-24T07:53:43Z</time>
      </trkpt>
      <trkpt lat="47.86465" lon="5.33947">
        <ele>362.1</ele>
        <time>2020-07-24T07:53:52Z</time>
      </trkpt>
      <trkpt lat="47.8646" lon="5.33939">
        <ele>363.7</ele>
        <time>2020-07-24T07:54:05Z</time>
      </trkpt>
      <trkpt lat="47.86454" lon="5.3393">
        <ele>364.9</ele>
        <time>2020-07-24T07:54:11Z</time>
      </trkpt>
      <trkpt lat="47.86448" lon="5.3392">
        <ele>366</ele>
        <time>2020-07-24T07:54:19Z</time>
      </trkpt>
      <trkpt lat="47.86443" lon="5.3391">
        <ele>366.5</ele>
        <time>2020-07-24T07:54:27Z</time>
      </trkpt>
      <trkpt lat="47.86438" lon="5.33899">
        <ele>368</ele>
        <time>2020-07-24T07:54:35Z</time>
      </trkpt>
      <trkpt lat="47.86431" lon="5.3389">
        <ele>368.6</ele>
        <time>2020-07-24T07:54:42Z</time>
      </trkpt>
      <trkpt lat="47.86425" lon="5.33881">
        <ele>368.4</ele>
        <time>2020-07-24T07:54:48Z</time>
      </trkpt>
      <trkpt lat="47.86419" lon="5.33873">
        <ele>369.8</ele>
        <time>2020-07-24T07:54:55Z</time>
      </trkpt>
      <trkpt lat="47.8641" lon="5.33868">
        <ele>371</ele>
        <time>2020-07-24T07:55:04Z</time>
      </trkpt>
      <trkpt lat="47.86407" lon="5.3386">
        <ele>372.3</ele>
        <time>2020-07-24T07:55:13Z</time>
      </trkpt>
      <trkpt lat="47.86403" lon="5.33849">
        <ele>372.7</ele>
        <time>2020-07-24T07:55:17Z</time>
      </trkpt>
      <trkpt lat="47.86396" lon="5.33841">
        <ele>374.7</ele>
        <time>2020-07-24T07:55:31Z</time>
      </trkpt>
      <trkpt lat="47.86388" lon="5.33831">
        <ele>376.4</ele>
        <time>2020-07-24T07:55:36Z</time>
      </trkpt>
      <trkpt lat="47.86386" lon="5.33819">
        <ele>377.7</ele>
        <time>2020-07-24T07:55:43Z</time>
      </trkpt>
      <trkpt lat="47.86382" lon="5.33808">
        <ele>378.4</ele>
        <time>2020-07-24T07:55:53Z</time>
      </trkpt>
      <trkpt lat="47.86379" lon="5.33796">
        <ele>379.5</ele>
        <time>2020-07-24T07:55:59Z</time>
      </trkpt>
      <trkpt lat="47.86371" lon="5.3379">
        <ele>382</ele>
        <time>2020-07-24T07:56:06Z</time>
      </trkpt>
      <trkpt lat="47.86369" lon="5.33777">
        <ele>383.1</ele>
        <time>2020-07-24T07:56:14Z</time>
      </trkpt>
      <trkpt lat="47.86365" lon="5.33767">
        <ele>384.7</ele>
        <time>2020-07-24T07:56:21Z</time>
      </trkpt>
      <trkpt lat="47.8636" lon="5.33757">
        <ele>386.6</ele>
        <time>2020-07-24T07:56:27Z</time>
      </trkpt>
      <trkpt lat="47.86352" lon="5.33754">
        <ele>388.9</ele>
        <time>2020-07-24T07:56:36Z</time>
      </trkpt>
      <trkpt lat="47.86345" lon="5.33748">
        <ele>389.2</ele>
        <time>2020-07-24T07:58:09Z</time>
      </trkpt>
      <trkpt lat="47.86338" lon="5.33742">
        <ele>389.9</ele>
        <time>2020-07-24T07:58:14Z</time>
      </trkpt>
      <trkpt lat="47.86331" lon="5.33734">
        <ele>390.4</ele>
        <time>2020-07-24T07:58:19Z</time>
      </trkpt>
      <trkpt lat="47.86323" lon="5.33727">
        <ele>391.1</ele>
        <time>2020-07-24T07:58:24Z</time>
      </trkpt>
      <trkpt lat="47.86318" lon="5.33717">
        <ele>392</ele>
        <time>2020-07-24T07:58:29Z</time>
      </trkpt>
      <trkpt lat="47.86312" lon="5.33708">
        <ele>392.9</ele>
        <time>2020-07-24T07:58:35Z</time>
      </trkpt>
      <trkpt lat="47.86307" lon="5.33698">
        <ele>394.2</ele>
        <time>2020-07-24T07:58:41Z</time>
      </trkpt>
      <trkpt lat="47.86302" lon="5.33689">
        <ele>396.2</ele>
        <time>2020-07-24T07:58:47Z</time>
      </trkpt>
      <trkpt lat="47.86294" lon="5.3368">
        <ele>395.4</ele>
        <time>2020-07-24T07:58:51Z</time>
      </trkpt>
      <trkpt lat="47.86287" lon="5.33673">
        <ele>396.4</ele>
        <time>2020-07-24T07:58:56Z</time>
      </trkpt>
      <trkpt lat="47.86281" lon="5.33667">
        <ele>397</ele>
        <time>2020-07-24T07:59:01Z</time>
      </trkpt>
      <trkpt lat="47.86273" lon="5.33661">
        <ele>398</ele>
        <time>2020-07-24T07:59:07Z</time>
      </trkpt>
      <trkpt lat="47.86268" lon="5.33651">
        <ele>399.4</ele>
        <time>2020-07-24T07:59:16Z</time>
      </trkpt>
      <trkpt lat="47.86264" lon="5.33643">
        <ele>400.8</ele>
        <time>2020-07-24T07:59:29Z</time>
      </trkpt>
      <trkpt lat="47.86264" lon="5.33643">
        <ele>400.8</ele>
        <time>2020-07-24T07:59:29Z</time>
      </trkpt>
      <trkpt lat="47.86417" lon="5.33379">
        <ele>378.5</ele>
        <time>2020-07-24T09:40:18Z</time>
      </trkpt>
      <trkpt lat="47.86404" lon="5.33418">
        <ele>508.3</ele>
        <time>2020-07-24T09:40:23Z</time>
      </trkpt>
      <trkpt lat="47.86392" lon="5.33402">
        <ele>462.3</ele>
        <time>2020-07-24T09:40:28Z</time>
      </trkpt>
      <trkpt lat="47.86382" lon="5.33386">
        <ele>442</ele>
        <time>2020-07-24T09:40:33Z</time>
      </trkpt>
      <trkpt lat="47.8639" lon="5.33381">
        <ele>418.9</ele>
        <time>2020-07-24T09:40:41Z</time>
      </trkpt>
      <trkpt lat="47.86397" lon="5.33386">
        <ele>408.7</ele>
        <time>2020-07-24T09:40:47Z</time>
      </trkpt>
      <trkpt lat="47.86403" lon="5.33393">
        <ele>398.1</ele>
        <time>2020-07-24T09:40:53Z</time>
      </trkpt>
      <trkpt lat="47.86407" lon="5.33403">
        <ele>383.6</ele>
        <time>2020-07-24T09:40:57Z</time>
      </trkpt>
      <trkpt lat="47.86413" lon="5.33404">
        <ele>372.9</ele>
        <time>2020-07-24T09:41:02Z</time>
      </trkpt>
      <trkpt lat="47.86423" lon="5.33389">
        <ele>360.6</ele>
        <time>2020-07-24T09:41:06Z</time>
      </trkpt>
      <trkpt lat="47.86427" lon="5.33375">
        <ele>355.7</ele>
        <time>2020-07-24T09:41:10Z</time>
      </trkpt>
      <trkpt lat="47.86427" lon="5.33362">
        <ele>356</ele>
        <time>2020-07-24T09:41:15Z</time>
      </trkpt>
      <trkpt lat="47.86423" lon="5.33351">
        <ele>355.7</ele>
        <time>2020-07-24T09:41:19Z</time>
      </trkpt>
      <trkpt lat="47.86412" lon="5.33351">
        <ele>355.5</ele>
        <time>2020-07-24T09:41:23Z</time>
      </trkpt>
      <trkpt lat="47.86401" lon="5.33347">
        <ele>355.3</ele>
        <time>2020-07-24T09:41:27Z</time>
      </trkpt>
      <trkpt lat="47.86388" lon="5.33343">
        <ele>357.3</ele>
        <time>2020-07-24T09:41:32Z</time>
      </trkpt>
      <trkpt lat="47.8638" lon="5.33342">
        <ele>357.7</ele>
        <time>2020-07-24T09:41:36Z</time>
      </trkpt>
      <trkpt lat="47.86367" lon="5.33343">
        <ele>359.4</ele>
        <time>2020-07-24T09:41:41Z</time>
      </trkpt>
      <trkpt lat="47.86359" lon="5.33345">
        <ele>358.8</ele>
        <time>2020-07-24T09:41:45Z</time>
      </trkpt>
      <trkpt lat="47.86353" lon="5.33325">
        <ele>356.3</ele>
        <time>2020-07-24T09:41:50Z</time>
      </trkpt>
      <trkpt lat="47.86354" lon="5.33311">
        <ele>359.6</ele>
        <time>2020-07-24T09:41:55Z</time>
      </trkpt>
      <trkpt lat="47.86363" lon="5.33293">
        <ele>365.7</ele>
        <time>2020-07-24T09:42:00Z</time>
      </trkpt>
      <trkpt lat="47.86369" lon="5.33273">
        <ele>374.8</ele>
        <time>2020-07-24T09:42:04Z</time>
      </trkpt>
      <trkpt lat="47.86367" lon="5.33264">
        <ele>388.5</ele>
        <time>2020-07-24T09:42:08Z</time>
      </trkpt>
      <trkpt lat="47.86375" lon="5.33232">
        <ele>412.9</ele>
        <time>2020-07-24T09:42:13Z</time>
      </trkpt>
      <trkpt lat="47.86367" lon="5.33229">
        <ele>420.1</ele>
        <time>2020-07-24T09:42:17Z</time>
      </trkpt>
      <trkpt lat="47.8635" lon="5.33232">
        <ele>427.8</ele>
        <time>2020-07-24T09:42:22Z</time>
      </trkpt>
      <trkpt lat="47.86337" lon="5.33237">
        <ele>436.4</ele>
        <time>2020-07-24T09:42:26Z</time>
      </trkpt>
      <trkpt lat="47.86324" lon="5.33244">
        <ele>441.1</ele>
        <time>2020-07-24T09:42:31Z</time>
      </trkpt>
      <trkpt lat="47.86318" lon="5.33248">
        <ele>444.2</ele>
        <time>2020-07-24T09:42:35Z</time>
      </trkpt>
      <trkpt lat="47.86311" lon="5.33252">
        <ele>447.4</ele>
        <time>2020-07-24T09:42:39Z</time>
      </trkpt>
      <trkpt lat="47.86302" lon="5.3325">
        <ele>450.1</ele>
        <time>2020-07-24T09:42:43Z</time>
      </trkpt>
      <trkpt lat="47.86292" lon="5.33248">
        <ele>453.3</ele>
        <time>2020-07-24T09:42:48Z</time>
      </trkpt>
      <trkpt lat="47.86276" lon="5.33254">
        <ele>454.9</ele>
        <time>2020-07-24T09:42:53Z</time>
      </trkpt>
      <trkpt lat="47.8626" lon="5.3325">
        <ele>459.1</ele>
        <time>2020-07-24T09:42:57Z</time>
      </trkpt>
      <trkpt lat="47.86242" lon="5.3324">
        <ele>463.2</ele>
        <time>2020-07-24T09:43:02Z</time>
      </trkpt>
      <trkpt lat="47.86227" lon="5.33233">
        <ele>467.8</ele>
        <time>2020-07-24T09:43:06Z</time>
      </trkpt>
      <trkpt lat="47.86217" lon="5.33235">
        <ele>472.3</ele>
        <time>2020-07-24T09:43:10Z</time>
      </trkpt>
      <trkpt lat="47.86207" lon="5.33235">
        <ele>473.3</ele>
        <time>2020-07-24T09:43:14Z</time>
      </trkpt>
      <trkpt lat="47.86199" lon="5.33224">
        <ele>470.4</ele>
        <time>2020-07-24T09:43:18Z</time>
      </trkpt>
      <trkpt lat="47.86188" lon="5.33215">
        <ele>464.2</ele>
        <time>2020-07-24T09:43:22Z</time>
      </trkpt>
      <trkpt lat="47.86172" lon="5.33216">
        <ele>464</ele>
        <time>2020-07-24T09:43:27Z</time>
      </trkpt>
      <trkpt lat="47.86159" lon="5.33217">
        <ele>465.3</ele>
        <time>2020-07-24T09:43:31Z</time>
      </trkpt>
      <trkpt lat="47.86151" lon="5.33218">
        <ele>466.8</ele>
        <time>2020-07-24T09:43:35Z</time>
      </trkpt>
      <trkpt lat="47.86132" lon="5.33218">
        <ele>473.3</ele>
        <time>2020-07-24T09:43:40Z</time>
      </trkpt>
      <trkpt lat="47.86118" lon="5.33218">
        <ele>475.4</ele>
        <time>2020-07-24T09:43:44Z</time>
      </trkpt>
      <trkpt lat="47.86104" lon="5.33219">
        <ele>480.1</ele>
        <time>2020-07-24T09:43:48Z</time>
      </trkpt>
      <trkpt lat="47.86091" lon="5.33218">
        <ele>485.2</ele>
        <time>2020-07-24T09:43:53Z</time>
      </trkpt>
      <trkpt lat="47.8608" lon="5.33206">
        <ele>447.8</ele>
        <time>2020-07-24T09:43:58Z</time>
      </trkpt>
      <trkpt lat="47.86068" lon="5.33199">
        <ele>442.2</ele>
        <time>2020-07-24T09:44:02Z</time>
      </trkpt>
      <trkpt lat="47.86054" lon="5.33192">
        <ele>440.8</ele>
        <time>2020-07-24T09:44:07Z</time>
      </trkpt>
      <trkpt lat="47.86041" lon="5.3319">
        <ele>440.3</ele>
        <time>2020-07-24T09:44:11Z</time>
      </trkpt>
      <trkpt lat="47.86025" lon="5.33187">
        <ele>441</ele>
        <time>2020-07-24T09:44:15Z</time>
      </trkpt>
      <trkpt lat="47.8601" lon="5.3318">
        <ele>441.7</ele>
        <time>2020-07-24T09:44:19Z</time>
      </trkpt>
      <trkpt lat="47.85991" lon="5.33185">
        <ele>442</ele>
        <time>2020-07-24T09:44:24Z</time>
      </trkpt>
      <trkpt lat="47.85976" lon="5.33175">
        <ele>442.5</ele>
        <time>2020-07-24T09:44:28Z</time>
      </trkpt>
      <trkpt lat="47.85969" lon="5.33158">
        <ele>441.6</ele>
        <time>2020-07-24T09:44:33Z</time>
      </trkpt>
      <trkpt lat="47.85963" lon="5.33165">
        <ele>441.5</ele>
        <time>2020-07-24T09:44:38Z</time>
      </trkpt>
      <trkpt lat="47.85954" lon="5.33179">
        <ele>442.1</ele>
        <time>2020-07-24T09:44:43Z</time>
      </trkpt>
      <trkpt lat="47.85949" lon="5.33202">
        <ele>442.5</ele>
        <time>2020-07-24T09:44:48Z</time>
      </trkpt>
      <trkpt lat="47.85946" lon="5.33221">
        <ele>442.8</ele>
        <time>2020-07-24T09:44:52Z</time>
      </trkpt>
      <trkpt lat="47.8594" lon="5.33238">
        <ele>442.3</ele>
        <time>2020-07-24T09:44:57Z</time>
      </trkpt>
      <trkpt lat="47.85938" lon="5.3325">
        <ele>442.6</ele>
        <time>2020-07-24T09:45:01Z</time>
      </trkpt>
      <trkpt lat="47.85933" lon="5.33263">
        <ele>442.7</ele>
        <time>2020-07-24T09:45:06Z</time>
      </trkpt>
      <trkpt lat="47.85929" lon="5.33282">
        <ele>442.6</ele>
        <time>2020-07-24T09:45:11Z</time>
      </trkpt>
      <trkpt lat="47.85922" lon="5.33295">
        <ele>441.4</ele>
        <time>2020-07-24T09:45:15Z</time>
      </trkpt>
      <trkpt lat="47.85914" lon="5.333">
        <ele>440.8</ele>
        <time>2020-07-24T09:45:20Z</time>
      </trkpt>
      <trkpt lat="47.85906" lon="5.33296">
        <ele>440.1</ele>
        <time>2020-07-24T09:45:25Z</time>
      </trkpt>
      <trkpt lat="47.85902" lon="5.33284">
        <ele>440.3</ele>
        <time>2020-07-24T09:45:33Z</time>
      </trkpt>
      <trkpt lat="47.85902" lon="5.33284">
        <ele>440.3</ele>
        <time>2020-07-24T09:45:34Z</time>
      </trkpt>
      <trkpt lat="47.85902" lon="5.33284">
        <ele>440.3</ele>
        <time>2020-07-24T09:45:34Z</time>
      </trkpt>
      <trkpt lat="47.85871" lon="5.33275">
        <ele>415.4</ele>
        <time>2020-07-24T10:16:44Z</time>
      </trkpt>
      <trkpt lat="47.85872" lon="5.33264">
        <ele>415.6</ele>
        <time>2020-07-24T10:16:50Z</time>
      </trkpt>
      <trkpt lat="47.85857" lon="5.33248">
        <ele>428</ele>
        <time>2020-07-24T10:16:55Z</time>
      </trkpt>
      <trkpt lat="47.85849" lon="5.33245">
        <ele>426.9</ele>
        <time>2020-07-24T10:17:06Z</time>
      </trkpt>
      <trkpt lat="47.85842" lon="5.33243">
        <ele>425.2</ele>
        <time>2020-07-24T10:17:10Z</time>
      </trkpt>
      <trkpt lat="47.85831" lon="5.33235">
        <ele>424</ele>
        <time>2020-07-24T10:17:15Z</time>
      </trkpt>
      <trkpt lat="47.85822" lon="5.33231">
        <ele>423.3</ele>
        <time>2020-07-24T10:17:20Z</time>
      </trkpt>
      <trkpt lat="47.85818" lon="5.33242">
        <ele>422.6</ele>
        <time>2020-07-24T10:17:48Z</time>
      </trkpt>
      <trkpt lat="47.85809" lon="5.33247">
        <ele>421</ele>
        <time>2020-07-24T10:17:54Z</time>
      </trkpt>
      <trkpt lat="47.85798" lon="5.33235">
        <ele>420.8</ele>
        <time>2020-07-24T10:17:59Z</time>
      </trkpt>
      <trkpt lat="47.8579" lon="5.33226">
        <ele>421</ele>
        <time>2020-07-24T10:18:03Z</time>
      </trkpt>
      <trkpt lat="47.85785" lon="5.33215">
        <ele>421.3</ele>
        <time>2020-07-24T10:18:08Z</time>
      </trkpt>
      <trkpt lat="47.85776" lon="5.33209">
        <ele>420.4</ele>
        <time>2020-07-24T10:18:12Z</time>
      </trkpt>
      <trkpt lat="47.85762" lon="5.33196">
        <ele>420.1</ele>
        <time>2020-07-24T10:18:16Z</time>
      </trkpt>
      <trkpt lat="47.85748" lon="5.33188">
        <ele>419.9</ele>
        <time>2020-07-24T10:18:21Z</time>
      </trkpt>
      <trkpt lat="47.85735" lon="5.33179">
        <ele>417.2</ele>
        <time>2020-07-24T10:18:25Z</time>
      </trkpt>
      <trkpt lat="47.85723" lon="5.33167">
        <ele>416</ele>
        <time>2020-07-24T10:18:30Z</time>
      </trkpt>
      <trkpt lat="47.8571" lon="5.33155">
        <ele>414.9</ele>
        <time>2020-07-24T10:18:35Z</time>
      </trkpt>
      <trkpt lat="47.85701" lon="5.33146">
        <ele>412.7</ele>
        <time>2020-07-24T10:18:39Z</time>
      </trkpt>
      <trkpt lat="47.85684" lon="5.33132">
        <ele>410.7</ele>
        <time>2020-07-24T10:18:44Z</time>
      </trkpt>
      <trkpt lat="47.85668" lon="5.33116">
        <ele>408.6</ele>
        <time>2020-07-24T10:18:48Z</time>
      </trkpt>
      <trkpt lat="47.85651" lon="5.331">
        <ele>405.2</ele>
        <time>2020-07-24T10:18:52Z</time>
      </trkpt>
      <trkpt lat="47.85631" lon="5.33072">
        <ele>399.4</ele>
        <time>2020-07-24T10:18:57Z</time>
      </trkpt>
      <trkpt lat="47.85614" lon="5.33046">
        <ele>391.5</ele>
        <time>2020-07-24T10:19:02Z</time>
      </trkpt>
      <trkpt lat="47.85595" lon="5.33031">
        <ele>387.9</ele>
        <time>2020-07-24T10:19:06Z</time>
      </trkpt>
      <trkpt lat="47.85576" lon="5.33014">
        <ele>383.2</ele>
        <time>2020-07-24T10:19:10Z</time>
      </trkpt>
      <trkpt lat="47.85555" lon="5.33001">
        <ele>377.9</ele>
        <time>2020-07-24T10:19:15Z</time>
      </trkpt>
      <trkpt lat="47.85532" lon="5.32981">
        <ele>374.9</ele>
        <time>2020-07-24T10:19:20Z</time>
      </trkpt>
      <trkpt lat="47.8551" lon="5.32962">
        <ele>371.6</ele>
        <time>2020-07-24T10:19:25Z</time>
      </trkpt>
      <trkpt lat="47.85498" lon="5.32947">
        <ele>369</ele>
        <time>2020-07-24T10:19:29Z</time>
      </trkpt>
      <trkpt lat="47.85483" lon="5.3293">
        <ele>368.3</ele>
        <time>2020-07-24T10:19:33Z</time>
      </trkpt>
      <trkpt lat="47.85464" lon="5.3291">
        <ele>367.8</ele>
        <time>2020-07-24T10:19:38Z</time>
      </trkpt>
      <trkpt lat="47.85447" lon="5.32897">
        <ele>366.3</ele>
        <time>2020-07-24T10:19:43Z</time>
      </trkpt>
      <trkpt lat="47.85427" lon="5.32883">
        <ele>362.6</ele>
        <time>2020-07-24T10:19:47Z</time>
      </trkpt>
      <trkpt lat="47.85408" lon="5.3286">
        <ele>359.3</ele>
        <time>2020-07-24T10:19:52Z</time>
      </trkpt>
      <trkpt lat="47.85395" lon="5.32845">
        <ele>358.5</ele>
        <time>2020-07-24T10:19:56Z</time>
      </trkpt>
      <trkpt lat="47.85382" lon="5.32834">
        <ele>358.8</ele>
        <time>2020-07-24T10:20:00Z</time>
      </trkpt>
      <trkpt lat="47.85374" lon="5.32832">
        <ele>359.2</ele>
        <time>2020-07-24T10:20:05Z</time>
      </trkpt>
      <trkpt lat="47.85367" lon="5.32831">
        <ele>360.1</ele>
        <time>2020-07-24T10:20:36Z</time>
      </trkpt>
      <trkpt lat="47.85365" lon="5.32819">
        <ele>359.8</ele>
        <time>2020-07-24T10:20:40Z</time>
      </trkpt>
      <trkpt lat="47.85364" lon="5.32807">
        <ele>359.4</ele>
        <time>2020-07-24T10:20:44Z</time>
      </trkpt>
      <trkpt lat="47.85358" lon="5.32799">
        <ele>359.5</ele>
        <time>2020-07-24T10:20:49Z</time>
      </trkpt>
      <trkpt lat="47.85349" lon="5.32803">
        <ele>359.8</ele>
        <time>2020-07-24T10:20:54Z</time>
      </trkpt>
      <trkpt lat="47.85341" lon="5.32805">
        <ele>360.5</ele>
        <time>2020-07-24T10:21:02Z</time>
      </trkpt>
      <trkpt lat="47.85327" lon="5.32792">
        <ele>361.3</ele>
        <time>2020-07-24T10:21:07Z</time>
      </trkpt>
      <trkpt lat="47.85316" lon="5.32785">
        <ele>363.6</ele>
        <time>2020-07-24T10:21:11Z</time>
      </trkpt>
      <trkpt lat="47.85304" lon="5.32773">
        <ele>367</ele>
        <time>2020-07-24T10:21:15Z</time>
      </trkpt>
      <trkpt lat="47.85289" lon="5.32761">
        <ele>372.3</ele>
        <time>2020-07-24T10:21:20Z</time>
      </trkpt>
      <trkpt lat="47.85275" lon="5.32752">
        <ele>380.1</ele>
        <time>2020-07-24T10:21:24Z</time>
      </trkpt>
      <trkpt lat="47.8526" lon="5.32743">
        <ele>388.5</ele>
        <time>2020-07-24T10:21:29Z</time>
      </trkpt>
      <trkpt lat="47.85253" lon="5.32733">
        <ele>392.7</ele>
        <time>2020-07-24T10:21:33Z</time>
      </trkpt>
      <trkpt lat="47.85242" lon="5.32708">
        <ele>396.7</ele>
        <time>2020-07-24T10:21:38Z</time>
      </trkpt>
      <trkpt lat="47.85232" lon="5.32689">
        <ele>397.2</ele>
        <time>2020-07-24T10:21:42Z</time>
      </trkpt>
      <trkpt lat="47.85224" lon="5.32672">
        <ele>399.1</ele>
        <time>2020-07-24T10:21:46Z</time>
      </trkpt>
      <trkpt lat="47.85208" lon="5.32642">
        <ele>398.5</ele>
        <time>2020-07-24T10:21:51Z</time>
      </trkpt>
      <trkpt lat="47.85196" lon="5.32624">
        <ele>397.3</ele>
        <time>2020-07-24T10:21:55Z</time>
      </trkpt>
      <trkpt lat="47.85183" lon="5.32604">
        <ele>393.9</ele>
        <time>2020-07-24T10:21:59Z</time>
      </trkpt>
      <trkpt lat="47.85173" lon="5.32591">
        <ele>395.7</ele>
        <time>2020-07-24T10:22:04Z</time>
      </trkpt>
      <trkpt lat="47.85173" lon="5.32571">
        <ele>393.3</ele>
        <time>2020-07-24T10:22:09Z</time>
      </trkpt>
      <trkpt lat="47.85175" lon="5.32524">
        <ele>389.2</ele>
        <time>2020-07-24T10:22:14Z</time>
      </trkpt>
      <trkpt lat="47.85172" lon="5.32485">
        <ele>384.3</ele>
        <time>2020-07-24T10:22:18Z</time>
      </trkpt>
      <trkpt lat="47.85152" lon="5.32443">
        <ele>380.5</ele>
        <time>2020-07-24T10:22:23Z</time>
      </trkpt>
      <trkpt lat="47.8513" lon="5.32417">
        <ele>378.3</ele>
        <time>2020-07-24T10:22:27Z</time>
      </trkpt>
      <trkpt lat="47.8511" lon="5.32394">
        <ele>374.8</ele>
        <time>2020-07-24T10:22:31Z</time>
      </trkpt>
      <trkpt lat="47.85084" lon="5.32375">
        <ele>371.8</ele>
        <time>2020-07-24T10:22:35Z</time>
      </trkpt>
      <trkpt lat="47.85058" lon="5.32361">
        <ele>371.6</ele>
        <time>2020-07-24T10:22:39Z</time>
      </trkpt>
      <trkpt lat="47.85033" lon="5.32348">
        <ele>371.5</ele>
        <time>2020-07-24T10:22:43Z</time>
      </trkpt>
      <trkpt lat="47.8501" lon="5.32338">
        <ele>369.5</ele>
        <time>2020-07-24T10:22:47Z</time>
      </trkpt>
      <trkpt lat="47.84999" lon="5.3231">
        <ele>369.2</ele>
        <time>2020-07-24T10:22:52Z</time>
      </trkpt>
      <trkpt lat="47.84989" lon="5.32291">
        <ele>370.5</ele>
        <time>2020-07-24T10:22:57Z</time>
      </trkpt>
      <trkpt lat="47.84975" lon="5.32279">
        <ele>369.5</ele>
        <time>2020-07-24T10:23:01Z</time>
      </trkpt>
      <trkpt lat="47.8496" lon="5.32268">
        <ele>368.1</ele>
        <time>2020-07-24T10:23:05Z</time>
      </trkpt>
      <trkpt lat="47.84944" lon="5.3226">
        <ele>367.1</ele>
        <time>2020-07-24T10:23:09Z</time>
      </trkpt>
      <trkpt lat="47.84925" lon="5.32251">
        <ele>365.8</ele>
        <time>2020-07-24T10:23:14Z</time>
      </trkpt>
      <trkpt lat="47.84908" lon="5.32241">
        <ele>365.4</ele>
        <time>2020-07-24T10:23:18Z</time>
      </trkpt>
      <trkpt lat="47.84892" lon="5.32234">
        <ele>364.3</ele>
        <time>2020-07-24T10:23:22Z</time>
      </trkpt>
      <trkpt lat="47.84877" lon="5.3223">
        <ele>363.5</ele>
        <time>2020-07-24T10:23:26Z</time>
      </trkpt>
      <trkpt lat="47.8486" lon="5.32229">
        <ele>360</ele>
        <time>2020-07-24T10:23:31Z</time>
      </trkpt>
      <trkpt lat="47.84846" lon="5.32225">
        <ele>358.3</ele>
        <time>2020-07-24T10:23:35Z</time>
      </trkpt>
      <trkpt lat="47.84832" lon="5.32218">
        <ele>356.8</ele>
        <time>2020-07-24T10:23:39Z</time>
      </trkpt>
      <trkpt lat="47.84818" lon="5.32217">
        <ele>355.2</ele>
        <time>2020-07-24T10:23:43Z</time>
      </trkpt>
      <trkpt lat="47.848" lon="5.32217">
        <ele>351.9</ele>
        <time>2020-07-24T10:23:48Z</time>
      </trkpt>
      <trkpt lat="47.84788" lon="5.32216">
        <ele>347.7</ele>
        <time>2020-07-24T10:23:52Z</time>
      </trkpt>
      <trkpt lat="47.84778" lon="5.32211">
        <ele>342.6</ele>
        <time>2020-07-24T10:23:56Z</time>
      </trkpt>
      <trkpt lat="47.84768" lon="5.3221">
        <ele>337.9</ele>
        <time>2020-07-24T10:24:00Z</time>
      </trkpt>
      <trkpt lat="47.84753" lon="5.3221">
        <ele>334</ele>
        <time>2020-07-24T10:24:04Z</time>
      </trkpt>
      <trkpt lat="47.84731" lon="5.32205">
        <ele>330.2</ele>
        <time>2020-07-24T10:24:09Z</time>
      </trkpt>
      <trkpt lat="47.84717" lon="5.32206">
        <ele>327.9</ele>
        <time>2020-07-24T10:24:13Z</time>
      </trkpt>
      <trkpt lat="47.84701" lon="5.32205">
        <ele>325</ele>
        <time>2020-07-24T10:24:18Z</time>
      </trkpt>
      <trkpt lat="47.84689" lon="5.32207">
        <ele>323.9</ele>
        <time>2020-07-24T10:24:22Z</time>
      </trkpt>
      <trkpt lat="47.84675" lon="5.32211">
        <ele>321.5</ele>
        <time>2020-07-24T10:24:26Z</time>
      </trkpt>
      <trkpt lat="47.84661" lon="5.32215">
        <ele>320.6</ele>
        <time>2020-07-24T10:24:30Z</time>
      </trkpt>
      <trkpt lat="47.84646" lon="5.32222">
        <ele>320.6</ele>
        <time>2020-07-24T10:24:34Z</time>
      </trkpt>
      <trkpt lat="47.8463" lon="5.32229">
        <ele>318.5</ele>
        <time>2020-07-24T10:24:39Z</time>
      </trkpt>
      <trkpt lat="47.84615" lon="5.32239">
        <ele>318.8</ele>
        <time>2020-07-24T10:24:43Z</time>
      </trkpt>
      <trkpt lat="47.84591" lon="5.32247">
        <ele>322.2</ele>
        <time>2020-07-24T10:24:48Z</time>
      </trkpt>
      <trkpt lat="47.84574" lon="5.32253">
        <ele>325.8</ele>
        <time>2020-07-24T10:24:52Z</time>
      </trkpt>
      <trkpt lat="47.84553" lon="5.32262">
        <ele>333</ele>
        <time>2020-07-24T10:24:57Z</time>
      </trkpt>
      <trkpt lat="47.84538" lon="5.32271">
        <ele>338.4</ele>
        <time>2020-07-24T10:25:01Z</time>
      </trkpt>
      <trkpt lat="47.84514" lon="5.32285">
        <ele>350.9</ele>
        <time>2020-07-24T10:25:06Z</time>
      </trkpt>
      <trkpt lat="47.84498" lon="5.32294">
        <ele>357</ele>
        <time>2020-07-24T10:25:10Z</time>
      </trkpt>
      <trkpt lat="47.84484" lon="5.32303">
        <ele>362.2</ele>
        <time>2020-07-24T10:25:14Z</time>
      </trkpt>
      <trkpt lat="47.84466" lon="5.32312">
        <ele>367.4</ele>
        <time>2020-07-24T10:25:19Z</time>
      </trkpt>
      <trkpt lat="47.84446" lon="5.32319">
        <ele>371.6</ele>
        <time>2020-07-24T10:25:24Z</time>
      </trkpt>
      <trkpt lat="47.84431" lon="5.32326">
        <ele>374.3</ele>
        <time>2020-07-24T10:25:28Z</time>
      </trkpt>
      <trkpt lat="47.84414" lon="5.32334">
        <ele>376.3</ele>
        <time>2020-07-24T10:25:33Z</time>
      </trkpt>
      <trkpt lat="47.84401" lon="5.3234">
        <ele>376</ele>
        <time>2020-07-24T10:25:37Z</time>
      </trkpt>
      <trkpt lat="47.84383" lon="5.32349">
        <ele>377</ele>
        <time>2020-07-24T10:25:42Z</time>
      </trkpt>
      <trkpt lat="47.84369" lon="5.32356">
        <ele>377.2</ele>
        <time>2020-07-24T10:25:46Z</time>
      </trkpt>
      <trkpt lat="47.84351" lon="5.32365">
        <ele>375.6</ele>
        <time>2020-07-24T10:25:51Z</time>
      </trkpt>
      <trkpt lat="47.84335" lon="5.32374">
        <ele>372.7</ele>
        <time>2020-07-24T10:25:56Z</time>
      </trkpt>
      <trkpt lat="47.84323" lon="5.32383">
        <ele>371.9</ele>
        <time>2020-07-24T10:26:00Z</time>
      </trkpt>
      <trkpt lat="47.84308" lon="5.32396">
        <ele>370.4</ele>
        <time>2020-07-24T10:26:05Z</time>
      </trkpt>
      <trkpt lat="47.84296" lon="5.32407">
        <ele>369</ele>
        <time>2020-07-24T10:26:09Z</time>
      </trkpt>
      <trkpt lat="47.84281" lon="5.3242">
        <ele>366</ele>
        <time>2020-07-24T10:26:14Z</time>
      </trkpt>
      <trkpt lat="47.84268" lon="5.32433">
        <ele>363</ele>
        <time>2020-07-24T10:26:18Z</time>
      </trkpt>
      <trkpt lat="47.84256" lon="5.32448">
        <ele>361.3</ele>
        <time>2020-07-24T10:26:22Z</time>
      </trkpt>
      <trkpt lat="47.84246" lon="5.32462">
        <ele>362.6</ele>
        <time>2020-07-24T10:26:26Z</time>
      </trkpt>
      <trkpt lat="47.84238" lon="5.32477">
        <ele>362.6</ele>
        <time>2020-07-24T10:26:30Z</time>
      </trkpt>
      <trkpt lat="47.84226" lon="5.325">
        <ele>362.7</ele>
        <time>2020-07-24T10:26:35Z</time>
      </trkpt>
      <trkpt lat="47.84215" lon="5.3252">
        <ele>362</ele>
        <time>2020-07-24T10:26:39Z</time>
      </trkpt>
      <trkpt lat="47.84207" lon="5.32537">
        <ele>360.8</ele>
        <time>2020-07-24T10:26:43Z</time>
      </trkpt>
      <trkpt lat="47.84197" lon="5.32559">
        <ele>359.6</ele>
        <time>2020-07-24T10:26:48Z</time>
      </trkpt>
      <trkpt lat="47.84185" lon="5.32584">
        <ele>358.1</ele>
        <time>2020-07-24T10:26:53Z</time>
      </trkpt>
      <trkpt lat="47.84172" lon="5.32608">
        <ele>360.6</ele>
        <time>2020-07-24T10:26:58Z</time>
      </trkpt>
      <trkpt lat="47.84162" lon="5.32625">
        <ele>362.1</ele>
        <time>2020-07-24T10:27:02Z</time>
      </trkpt>
      <trkpt lat="47.84155" lon="5.3264">
        <ele>362.2</ele>
        <time>2020-07-24T10:27:06Z</time>
      </trkpt>
      <trkpt lat="47.84147" lon="5.32661">
        <ele>360.8</ele>
        <time>2020-07-24T10:27:11Z</time>
      </trkpt>
      <trkpt lat="47.84136" lon="5.32681">
        <ele>358.6</ele>
        <time>2020-07-24T10:27:16Z</time>
      </trkpt>
      <trkpt lat="47.84127" lon="5.32699">
        <ele>356</ele>
        <time>2020-07-24T10:27:20Z</time>
      </trkpt>
      <trkpt lat="47.84118" lon="5.32718">
        <ele>352.6</ele>
        <time>2020-07-24T10:27:24Z</time>
      </trkpt>
      <trkpt lat="47.84108" lon="5.32738">
        <ele>352.1</ele>
        <time>2020-07-24T10:27:28Z</time>
      </trkpt>
      <trkpt lat="47.84098" lon="5.32761">
        <ele>353</ele>
        <time>2020-07-24T10:27:33Z</time>
      </trkpt>
      <trkpt lat="47.84087" lon="5.32775">
        <ele>353</ele>
        <time>2020-07-24T10:27:37Z</time>
      </trkpt>
      <trkpt lat="47.84077" lon="5.32793">
        <ele>355.8</ele>
        <time>2020-07-24T10:27:41Z</time>
      </trkpt>
      <trkpt lat="47.84065" lon="5.32807">
        <ele>358.3</ele>
        <time>2020-07-24T10:27:45Z</time>
      </trkpt>
      <trkpt lat="47.84054" lon="5.32823">
        <ele>359.3</ele>
        <time>2020-07-24T10:27:49Z</time>
      </trkpt>
      <trkpt lat="47.84043" lon="5.32838">
        <ele>360.1</ele>
        <time>2020-07-24T10:27:53Z</time>
      </trkpt>
      <trkpt lat="47.84026" lon="5.32854">
        <ele>363.6</ele>
        <time>2020-07-24T10:27:58Z</time>
      </trkpt>
      <trkpt lat="47.84012" lon="5.32866">
        <ele>366.5</ele>
        <time>2020-07-24T10:28:02Z</time>
      </trkpt>
      <trkpt lat="47.83999" lon="5.3288">
        <ele>367.5</ele>
        <time>2020-07-24T10:28:06Z</time>
      </trkpt>
      <trkpt lat="47.83983" lon="5.3289">
        <ele>368.9</ele>
        <time>2020-07-24T10:28:11Z</time>
      </trkpt>
      <trkpt lat="47.83969" lon="5.329">
        <ele>370.3</ele>
        <time>2020-07-24T10:28:15Z</time>
      </trkpt>
      <trkpt lat="47.83956" lon="5.32909">
        <ele>372.1</ele>
        <time>2020-07-24T10:28:19Z</time>
      </trkpt>
      <trkpt lat="47.83937" lon="5.32918">
        <ele>372.1</ele>
        <time>2020-07-24T10:28:24Z</time>
      </trkpt>
      <trkpt lat="47.8392" lon="5.32925">
        <ele>374.5</ele>
        <time>2020-07-24T10:28:28Z</time>
      </trkpt>
      <trkpt lat="47.839" lon="5.32931">
        <ele>375.8</ele>
        <time>2020-07-24T10:28:33Z</time>
      </trkpt>
      <trkpt lat="47.83884" lon="5.32936">
        <ele>376.8</ele>
        <time>2020-07-24T10:28:37Z</time>
      </trkpt>
      <trkpt lat="47.8387" lon="5.32939">
        <ele>378.3</ele>
        <time>2020-07-24T10:28:41Z</time>
      </trkpt>
      <trkpt lat="47.83853" lon="5.32942">
        <ele>378.4</ele>
        <time>2020-07-24T10:28:46Z</time>
      </trkpt>
      <trkpt lat="47.83842" lon="5.32945">
        <ele>378.7</ele>
        <time>2020-07-24T10:28:50Z</time>
      </trkpt>
      <trkpt lat="47.83831" lon="5.32946">
        <ele>377.4</ele>
        <time>2020-07-24T10:28:55Z</time>
      </trkpt>
      <trkpt lat="47.83816" lon="5.32945">
        <ele>376.1</ele>
        <time>2020-07-24T10:28:59Z</time>
      </trkpt>
      <trkpt lat="47.83803" lon="5.32944">
        <ele>374</ele>
        <time>2020-07-24T10:29:03Z</time>
      </trkpt>
      <trkpt lat="47.83786" lon="5.32944">
        <ele>372.8</ele>
        <time>2020-07-24T10:29:07Z</time>
      </trkpt>
      <trkpt lat="47.83766" lon="5.32937">
        <ele>372.8</ele>
        <time>2020-07-24T10:29:12Z</time>
      </trkpt>
      <trkpt lat="47.8375" lon="5.32931">
        <ele>373.5</ele>
        <time>2020-07-24T10:29:16Z</time>
      </trkpt>
      <trkpt lat="47.83733" lon="5.32927">
        <ele>372.8</ele>
        <time>2020-07-24T10:29:21Z</time>
      </trkpt>
      <trkpt lat="47.83711" lon="5.32922">
        <ele>375</ele>
        <time>2020-07-24T10:29:26Z</time>
      </trkpt>
      <trkpt lat="47.83696" lon="5.32919">
        <ele>377.6</ele>
        <time>2020-07-24T10:29:30Z</time>
      </trkpt>
      <trkpt lat="47.83683" lon="5.32915">
        <ele>380.2</ele>
        <time>2020-07-24T10:29:34Z</time>
      </trkpt>
      <trkpt lat="47.83667" lon="5.32911">
        <ele>381.9</ele>
        <time>2020-07-24T10:29:39Z</time>
      </trkpt>
      <trkpt lat="47.83656" lon="5.32907">
        <ele>384.3</ele>
        <time>2020-07-24T10:29:43Z</time>
      </trkpt>
      <trkpt lat="47.83642" lon="5.32901">
        <ele>384.7</ele>
        <time>2020-07-24T10:29:48Z</time>
      </trkpt>
      <trkpt lat="47.83631" lon="5.32895">
        <ele>387.4</ele>
        <time>2020-07-24T10:29:52Z</time>
      </trkpt>
      <trkpt lat="47.83621" lon="5.32885">
        <ele>386</ele>
        <time>2020-07-24T10:29:57Z</time>
      </trkpt>
      <trkpt lat="47.83612" lon="5.3288">
        <ele>388.7</ele>
        <time>2020-07-24T10:30:01Z</time>
      </trkpt>
      <trkpt lat="47.83601" lon="5.32867">
        <ele>389.6</ele>
        <time>2020-07-24T10:30:06Z</time>
      </trkpt>
      <trkpt lat="47.83593" lon="5.32863">
        <ele>392.8</ele>
        <time>2020-07-24T10:30:10Z</time>
      </trkpt>
      <trkpt lat="47.83584" lon="5.3287">
        <ele>395.5</ele>
        <time>2020-07-24T10:30:15Z</time>
      </trkpt>
      <trkpt lat="47.83576" lon="5.32871">
        <ele>394.6</ele>
        <time>2020-07-24T10:30:19Z</time>
      </trkpt>
      <trkpt lat="47.83559" lon="5.32869">
        <ele>391.1</ele>
        <time>2020-07-24T10:30:24Z</time>
      </trkpt>
      <trkpt lat="47.83544" lon="5.32869">
        <ele>390.8</ele>
        <time>2020-07-24T10:30:28Z</time>
      </trkpt>
      <trkpt lat="47.83525" lon="5.32865">
        <ele>392.8</ele>
        <time>2020-07-24T10:30:33Z</time>
      </trkpt>
      <trkpt lat="47.83511" lon="5.32863">
        <ele>391.7</ele>
        <time>2020-07-24T10:30:37Z</time>
      </trkpt>
      <trkpt lat="47.83497" lon="5.32859">
        <ele>390.4</ele>
        <time>2020-07-24T10:30:42Z</time>
      </trkpt>
      <trkpt lat="47.83487" lon="5.32855">
        <ele>393.1</ele>
        <time>2020-07-24T10:30:46Z</time>
      </trkpt>
      <trkpt lat="47.83473" lon="5.32852">
        <ele>394.5</ele>
        <time>2020-07-24T10:30:51Z</time>
      </trkpt>
      <trkpt lat="47.83459" lon="5.32849">
        <ele>397.5</ele>
        <time>2020-07-24T10:30:55Z</time>
      </trkpt>
      <trkpt lat="47.8344" lon="5.32844">
        <ele>395.5</ele>
        <time>2020-07-24T10:31:00Z</time>
      </trkpt>
      <trkpt lat="47.83428" lon="5.32844">
        <ele>397.3</ele>
        <time>2020-07-24T10:31:04Z</time>
      </trkpt>
      <trkpt lat="47.83422" lon="5.3285">
        <ele>396.2</ele>
        <time>2020-07-24T10:31:10Z</time>
      </trkpt>
      <trkpt lat="47.83407" lon="5.3285">
        <ele>396.7</ele>
        <time>2020-07-24T10:31:15Z</time>
      </trkpt>
      <trkpt lat="47.83391" lon="5.32848">
        <ele>394.3</ele>
        <time>2020-07-24T10:31:20Z</time>
      </trkpt>
      <trkpt lat="47.83378" lon="5.32847">
        <ele>395.4</ele>
        <time>2020-07-24T10:31:24Z</time>
      </trkpt>
      <trkpt lat="47.83366" lon="5.32845">
        <ele>395.6</ele>
        <time>2020-07-24T10:31:28Z</time>
      </trkpt>
      <trkpt lat="47.83352" lon="5.32844">
        <ele>394.4</ele>
        <time>2020-07-24T10:31:33Z</time>
      </trkpt>
      <trkpt lat="47.83338" lon="5.32841">
        <ele>394.6</ele>
        <time>2020-07-24T10:31:38Z</time>
      </trkpt>
      <trkpt lat="47.83323" lon="5.32838">
        <ele>394.8</ele>
        <time>2020-07-24T10:31:43Z</time>
      </trkpt>
      <trkpt lat="47.83309" lon="5.32837">
        <ele>397.1</ele>
        <time>2020-07-24T10:31:47Z</time>
      </trkpt>
      <trkpt lat="47.83293" lon="5.32832">
        <ele>400.1</ele>
        <time>2020-07-24T10:31:52Z</time>
      </trkpt>
      <trkpt lat="47.83282" lon="5.32828">
        <ele>401.9</ele>
        <time>2020-07-24T10:31:56Z</time>
      </trkpt>
      <trkpt lat="47.8327" lon="5.32823">
        <ele>402.5</ele>
        <time>2020-07-24T10:32:00Z</time>
      </trkpt>
      <trkpt lat="47.83258" lon="5.32817">
        <ele>402.1</ele>
        <time>2020-07-24T10:32:04Z</time>
      </trkpt>
      <trkpt lat="47.83245" lon="5.32816">
        <ele>399.4</ele>
        <time>2020-07-24T10:32:09Z</time>
      </trkpt>
      <trkpt lat="47.83236" lon="5.32811">
        <ele>398.8</ele>
        <time>2020-07-24T10:32:13Z</time>
      </trkpt>
      <trkpt lat="47.83228" lon="5.32808">
        <ele>400.6</ele>
        <time>2020-07-24T10:32:20Z</time>
      </trkpt>
      <trkpt lat="47.83228" lon="5.32808">
        <ele>400.6</ele>
        <time>2020-07-24T10:32:21Z</time>
      </trkpt>
      <trkpt lat="47.83228" lon="5.32807">
        <ele>401</ele>
        <time>2020-07-24T10:33:03Z</time>
      </trkpt>
      <trkpt lat="47.83215" lon="5.328">
        <ele>401</ele>
        <time>2020-07-24T10:33:07Z</time>
      </trkpt>
      <trkpt lat="47.83204" lon="5.32791">
        <ele>400.7</ele>
        <time>2020-07-24T10:33:11Z</time>
      </trkpt>
      <trkpt lat="47.83192" lon="5.3278">
        <ele>400.4</ele>
        <time>2020-07-24T10:33:15Z</time>
      </trkpt>
      <trkpt lat="47.83181" lon="5.32769">
        <ele>400.2</ele>
        <time>2020-07-24T10:33:19Z</time>
      </trkpt>
      <trkpt lat="47.8317" lon="5.32758">
        <ele>400.3</ele>
        <time>2020-07-24T10:33:23Z</time>
      </trkpt>
      <trkpt lat="47.8316" lon="5.32742">
        <ele>400.5</ele>
        <time>2020-07-24T10:33:28Z</time>
      </trkpt>
      <trkpt lat="47.83157" lon="5.32727">
        <ele>400.8</ele>
        <time>2020-07-24T10:33:32Z</time>
      </trkpt>
      <trkpt lat="47.83148" lon="5.32713">
        <ele>400.9</ele>
        <time>2020-07-24T10:33:36Z</time>
      </trkpt>
      <trkpt lat="47.83135" lon="5.32699">
        <ele>401.5</ele>
        <time>2020-07-24T10:33:41Z</time>
      </trkpt>
      <trkpt lat="47.83121" lon="5.32684">
        <ele>400.7</ele>
        <time>2020-07-24T10:33:46Z</time>
      </trkpt>
      <trkpt lat="47.83111" lon="5.32672">
        <ele>400.9</ele>
        <time>2020-07-24T10:33:50Z</time>
      </trkpt>
      <trkpt lat="47.83099" lon="5.32659">
        <ele>402.6</ele>
        <time>2020-07-24T10:33:55Z</time>
      </trkpt>
      <trkpt lat="47.83087" lon="5.32646">
        <ele>402.8</ele>
        <time>2020-07-24T10:34:00Z</time>
      </trkpt>
      <trkpt lat="47.83076" lon="5.32634">
        <ele>403</ele>
        <time>2020-07-24T10:34:05Z</time>
      </trkpt>
      <trkpt lat="47.83069" lon="5.32627">
        <ele>401</ele>
        <time>2020-07-24T10:34:10Z</time>
      </trkpt>
      <trkpt lat="47.83062" lon="5.32623">
        <ele>398.8</ele>
        <time>2020-07-24T10:34:19Z</time>
      </trkpt>
      <trkpt lat="47.83047" lon="5.32619">
        <ele>401.1</ele>
        <time>2020-07-24T10:34:24Z</time>
      </trkpt>
      <trkpt lat="47.83037" lon="5.32609">
        <ele>400.8</ele>
        <time>2020-07-24T10:34:28Z</time>
      </trkpt>
      <trkpt lat="47.83026" lon="5.32598">
        <ele>400.6</ele>
        <time>2020-07-24T10:34:32Z</time>
      </trkpt>
      <trkpt lat="47.83011" lon="5.32585">
        <ele>399.5</ele>
        <time>2020-07-24T10:34:37Z</time>
      </trkpt>
      <trkpt lat="47.82999" lon="5.32579">
        <ele>396.3</ele>
        <time>2020-07-24T10:34:41Z</time>
      </trkpt>
      <trkpt lat="47.82987" lon="5.32575">
        <ele>393.2</ele>
        <time>2020-07-24T10:34:45Z</time>
      </trkpt>
      <trkpt lat="47.82974" lon="5.32567">
        <ele>388</ele>
        <time>2020-07-24T10:34:49Z</time>
      </trkpt>
      <trkpt lat="47.82958" lon="5.32553">
        <ele>382.6</ele>
        <time>2020-07-24T10:34:54Z</time>
      </trkpt>
      <trkpt lat="47.82946" lon="5.32538">
        <ele>379.1</ele>
        <time>2020-07-24T10:34:58Z</time>
      </trkpt>
      <trkpt lat="47.82938" lon="5.32523">
        <ele>378.5</ele>
        <time>2020-07-24T10:35:02Z</time>
      </trkpt>
      <trkpt lat="47.82925" lon="5.32507">
        <ele>381.2</ele>
        <time>2020-07-24T10:35:07Z</time>
      </trkpt>
      <trkpt lat="47.82916" lon="5.32491">
        <ele>389</ele>
        <time>2020-07-24T10:35:11Z</time>
      </trkpt>
      <trkpt lat="47.82904" lon="5.32472">
        <ele>397.2</ele>
        <time>2020-07-24T10:35:16Z</time>
      </trkpt>
      <trkpt lat="47.82893" lon="5.32457">
        <ele>399.8</ele>
        <time>2020-07-24T10:35:20Z</time>
      </trkpt>
      <trkpt lat="47.82882" lon="5.32442">
        <ele>401</ele>
        <time>2020-07-24T10:35:24Z</time>
      </trkpt>
      <trkpt lat="47.82869" lon="5.32427">
        <ele>402.9</ele>
        <time>2020-07-24T10:35:28Z</time>
      </trkpt>
      <trkpt lat="47.82855" lon="5.32413">
        <ele>403.3</ele>
        <time>2020-07-24T10:35:32Z</time>
      </trkpt>
      <trkpt lat="47.82837" lon="5.32394">
        <ele>403.4</ele>
        <time>2020-07-24T10:35:37Z</time>
      </trkpt>
      <trkpt lat="47.82818" lon="5.32373">
        <ele>404.5</ele>
        <time>2020-07-24T10:35:42Z</time>
      </trkpt>
      <trkpt lat="47.82805" lon="5.32355">
        <ele>404.6</ele>
        <time>2020-07-24T10:35:46Z</time>
      </trkpt>
      <trkpt lat="47.82785" lon="5.32337">
        <ele>400.5</ele>
        <time>2020-07-24T10:35:51Z</time>
      </trkpt>
      <trkpt lat="47.82768" lon="5.32322">
        <ele>400.4</ele>
        <time>2020-07-24T10:35:55Z</time>
      </trkpt>
      <trkpt lat="47.82746" lon="5.32305">
        <ele>401.6</ele>
        <time>2020-07-24T10:36:00Z</time>
      </trkpt>
      <trkpt lat="47.82723" lon="5.32292">
        <ele>401.1</ele>
        <time>2020-07-24T10:36:05Z</time>
      </trkpt>
      <trkpt lat="47.82705" lon="5.32281">
        <ele>403.4</ele>
        <time>2020-07-24T10:36:09Z</time>
      </trkpt>
      <trkpt lat="47.82686" lon="5.32269">
        <ele>404.9</ele>
        <time>2020-07-24T10:36:13Z</time>
      </trkpt>
      <trkpt lat="47.82665" lon="5.32252">
        <ele>402.5</ele>
        <time>2020-07-24T10:36:18Z</time>
      </trkpt>
      <trkpt lat="47.82652" lon="5.32239">
        <ele>401.6</ele>
        <time>2020-07-24T10:36:22Z</time>
      </trkpt>
      <trkpt lat="47.82637" lon="5.32223">
        <ele>399.3</ele>
        <time>2020-07-24T10:36:26Z</time>
      </trkpt>
      <trkpt lat="47.82622" lon="5.32203">
        <ele>396.7</ele>
        <time>2020-07-24T10:36:30Z</time>
      </trkpt>
      <trkpt lat="47.82601" lon="5.32173">
        <ele>396</ele>
        <time>2020-07-24T10:36:35Z</time>
      </trkpt>
      <trkpt lat="47.82586" lon="5.32149">
        <ele>393.1</ele>
        <time>2020-07-24T10:36:39Z</time>
      </trkpt>
      <trkpt lat="47.8257" lon="5.32122">
        <ele>392.5</ele>
        <time>2020-07-24T10:36:43Z</time>
      </trkpt>
      <trkpt lat="47.82553" lon="5.32085">
        <ele>391.9</ele>
        <time>2020-07-24T10:36:48Z</time>
      </trkpt>
      <trkpt lat="47.82545" lon="5.32056">
        <ele>389.7</ele>
        <time>2020-07-24T10:36:52Z</time>
      </trkpt>
      <trkpt lat="47.82541" lon="5.32027">
        <ele>389.2</ele>
        <time>2020-07-24T10:36:56Z</time>
      </trkpt>
      <trkpt lat="47.82538" lon="5.32004">
        <ele>389.4</ele>
        <time>2020-07-24T10:37:00Z</time>
      </trkpt>
      <trkpt lat="47.82526" lon="5.31997">
        <ele>390.9</ele>
        <time>2020-07-24T10:37:05Z</time>
      </trkpt>
      <trkpt lat="47.82514" lon="5.31999">
        <ele>391.1</ele>
        <time>2020-07-24T10:37:09Z</time>
      </trkpt>
      <trkpt lat="47.82495" lon="5.32003">
        <ele>389.6</ele>
        <time>2020-07-24T10:37:14Z</time>
      </trkpt>
      <trkpt lat="47.82485" lon="5.32006">
        <ele>390</ele>
        <time>2020-07-24T10:37:18Z</time>
      </trkpt>
      <trkpt lat="47.82489" lon="5.32029">
        <ele>397.1</ele>
        <time>2020-07-24T10:37:23Z</time>
      </trkpt>
      <trkpt lat="47.82492" lon="5.32048">
        <ele>397.9</ele>
        <time>2020-07-24T10:37:27Z</time>
      </trkpt>
      <trkpt lat="47.82493" lon="5.32066">
        <ele>397.2</ele>
        <time>2020-07-24T10:37:31Z</time>
      </trkpt>
      <trkpt lat="47.82495" lon="5.32087">
        <ele>396.7</ele>
        <time>2020-07-24T10:37:36Z</time>
      </trkpt>
      <trkpt lat="47.82498" lon="5.32104">
        <ele>398.6</ele>
        <time>2020-07-24T10:37:40Z</time>
      </trkpt>
      <trkpt lat="47.82501" lon="5.32123">
        <ele>399.3</ele>
        <time>2020-07-24T10:37:45Z</time>
      </trkpt>
      <trkpt lat="47.82504" lon="5.3214">
        <ele>399.3</ele>
        <time>2020-07-24T10:37:50Z</time>
      </trkpt>
      <trkpt lat="47.82504" lon="5.32159">
        <ele>400.3</ele>
        <time>2020-07-24T10:37:55Z</time>
      </trkpt>
      <trkpt lat="47.82505" lon="5.32174">
        <ele>399.5</ele>
        <time>2020-07-24T10:37:59Z</time>
      </trkpt>
      <trkpt lat="47.82505" lon="5.32191">
        <ele>399.3</ele>
        <time>2020-07-24T10:38:04Z</time>
      </trkpt>
      <trkpt lat="47.82507" lon="5.32204">
        <ele>399.6</ele>
        <time>2020-07-24T10:38:08Z</time>
      </trkpt>
      <trkpt lat="47.82506" lon="5.32216">
        <ele>400.5</ele>
        <time>2020-07-24T10:38:12Z</time>
      </trkpt>
      <trkpt lat="47.82502" lon="5.32227">
        <ele>402</ele>
        <time>2020-07-24T10:38:16Z</time>
      </trkpt>
      <trkpt lat="47.82493" lon="5.32228">
        <ele>403.7</ele>
        <time>2020-07-24T10:38:21Z</time>
      </trkpt>
      <trkpt lat="47.82483" lon="5.32226">
        <ele>402.8</ele>
        <time>2020-07-24T10:38:25Z</time>
      </trkpt>
      <trkpt lat="47.82471" lon="5.32225">
        <ele>402.9</ele>
        <time>2020-07-24T10:38:30Z</time>
      </trkpt>
      <trkpt lat="47.82459" lon="5.32224">
        <ele>403.6</ele>
        <time>2020-07-24T10:38:34Z</time>
      </trkpt>
      <trkpt lat="47.82446" lon="5.32221">
        <ele>403.1</ele>
        <time>2020-07-24T10:38:38Z</time>
      </trkpt>
      <trkpt lat="47.82432" lon="5.32217">
        <ele>402.4</ele>
        <time>2020-07-24T10:38:42Z</time>
      </trkpt>
      <trkpt lat="47.82418" lon="5.32214">
        <ele>401.7</ele>
        <time>2020-07-24T10:38:46Z</time>
      </trkpt>
      <trkpt lat="47.82403" lon="5.32211">
        <ele>402.5</ele>
        <time>2020-07-24T10:38:50Z</time>
      </trkpt>
      <trkpt lat="47.82383" lon="5.32206">
        <ele>403.9</ele>
        <time>2020-07-24T10:38:55Z</time>
      </trkpt>
      <trkpt lat="47.82362" lon="5.322">
        <ele>402.5</ele>
        <time>2020-07-24T10:39:00Z</time>
      </trkpt>
      <trkpt lat="47.82345" lon="5.32195">
        <ele>402.1</ele>
        <time>2020-07-24T10:39:04Z</time>
      </trkpt>
      <trkpt lat="47.82329" lon="5.32192">
        <ele>401</ele>
        <time>2020-07-24T10:39:08Z</time>
      </trkpt>
      <trkpt lat="47.82312" lon="5.32189">
        <ele>400.5</ele>
        <time>2020-07-24T10:39:12Z</time>
      </trkpt>
      <trkpt lat="47.82289" lon="5.32185">
        <ele>401.2</ele>
        <time>2020-07-24T10:39:17Z</time>
      </trkpt>
      <trkpt lat="47.82272" lon="5.32181">
        <ele>401.3</ele>
        <time>2020-07-24T10:39:21Z</time>
      </trkpt>
      <trkpt lat="47.82249" lon="5.32176">
        <ele>403</ele>
        <time>2020-07-24T10:39:26Z</time>
      </trkpt>
      <trkpt lat="47.82232" lon="5.32172">
        <ele>402.2</ele>
        <time>2020-07-24T10:39:30Z</time>
      </trkpt>
      <trkpt lat="47.82212" lon="5.32166">
        <ele>401.6</ele>
        <time>2020-07-24T10:39:35Z</time>
      </trkpt>
      <trkpt lat="47.82195" lon="5.32161">
        <ele>400.4</ele>
        <time>2020-07-24T10:39:39Z</time>
      </trkpt>
      <trkpt lat="47.82172" lon="5.32154">
        <ele>399.8</ele>
        <time>2020-07-24T10:39:44Z</time>
      </trkpt>
      <trkpt lat="47.82159" lon="5.3215">
        <ele>399.7</ele>
        <time>2020-07-24T10:39:48Z</time>
      </trkpt>
      <trkpt lat="47.82141" lon="5.32143">
        <ele>399.4</ele>
        <time>2020-07-24T10:39:53Z</time>
      </trkpt>
      <trkpt lat="47.82126" lon="5.32137">
        <ele>399.6</ele>
        <time>2020-07-24T10:39:57Z</time>
      </trkpt>
      <trkpt lat="47.82111" lon="5.32129">
        <ele>399.8</ele>
        <time>2020-07-24T10:40:01Z</time>
      </trkpt>
      <trkpt lat="47.82094" lon="5.32122">
        <ele>400.7</ele>
        <time>2020-07-24T10:40:05Z</time>
      </trkpt>
      <trkpt lat="47.82079" lon="5.32114">
        <ele>401</ele>
        <time>2020-07-24T10:40:09Z</time>
      </trkpt>
      <trkpt lat="47.8206" lon="5.32102">
        <ele>400.3</ele>
        <time>2020-07-24T10:40:14Z</time>
      </trkpt>
      <trkpt lat="47.82044" lon="5.32093">
        <ele>400.4</ele>
        <time>2020-07-24T10:40:18Z</time>
      </trkpt>
      <trkpt lat="47.82025" lon="5.3208">
        <ele>399.1</ele>
        <time>2020-07-24T10:40:23Z</time>
      </trkpt>
      <trkpt lat="47.82011" lon="5.32069">
        <ele>396.7</ele>
        <time>2020-07-24T10:40:27Z</time>
      </trkpt>
      <trkpt lat="47.81996" lon="5.32059">
        <ele>396.9</ele>
        <time>2020-07-24T10:40:31Z</time>
      </trkpt>
      <trkpt lat="47.81979" lon="5.32046">
        <ele>396.3</ele>
        <time>2020-07-24T10:40:36Z</time>
      </trkpt>
      <trkpt lat="47.81965" lon="5.32035">
        <ele>396.9</ele>
        <time>2020-07-24T10:40:40Z</time>
      </trkpt>
      <trkpt lat="47.81948" lon="5.32022">
        <ele>396.6</ele>
        <time>2020-07-24T10:40:45Z</time>
      </trkpt>
      <trkpt lat="47.81935" lon="5.32009">
        <ele>396</ele>
        <time>2020-07-24T10:40:49Z</time>
      </trkpt>
      <trkpt lat="47.81917" lon="5.31992">
        <ele>396.9</ele>
        <time>2020-07-24T10:40:54Z</time>
      </trkpt>
      <trkpt lat="47.81903" lon="5.31977">
        <ele>397.9</ele>
        <time>2020-07-24T10:40:58Z</time>
      </trkpt>
      <trkpt lat="47.81886" lon="5.31958">
        <ele>397.7</ele>
        <time>2020-07-24T10:41:03Z</time>
      </trkpt>
      <trkpt lat="47.81868" lon="5.3194">
        <ele>397.7</ele>
        <time>2020-07-24T10:41:08Z</time>
      </trkpt>
      <trkpt lat="47.81854" lon="5.31924">
        <ele>396.7</ele>
        <time>2020-07-24T10:41:12Z</time>
      </trkpt>
      <trkpt lat="47.81842" lon="5.31909">
        <ele>396.9</ele>
        <time>2020-07-24T10:41:16Z</time>
      </trkpt>
      <trkpt lat="47.81827" lon="5.31886">
        <ele>399.2</ele>
        <time>2020-07-24T10:41:21Z</time>
      </trkpt>
      <trkpt lat="47.81813" lon="5.31867">
        <ele>401.6</ele>
        <time>2020-07-24T10:41:25Z</time>
      </trkpt>
      <trkpt lat="47.81801" lon="5.31847">
        <ele>402.5</ele>
        <time>2020-07-24T10:41:29Z</time>
      </trkpt>
      <trkpt lat="47.81788" lon="5.31828">
        <ele>403.6</ele>
        <time>2020-07-24T10:41:33Z</time>
      </trkpt>
      <trkpt lat="47.81776" lon="5.31807">
        <ele>404.1</ele>
        <time>2020-07-24T10:41:37Z</time>
      </trkpt>
      <trkpt lat="47.81762" lon="5.31779">
        <ele>401.9</ele>
        <time>2020-07-24T10:41:42Z</time>
      </trkpt>
      <trkpt lat="47.81748" lon="5.31752">
        <ele>402.7</ele>
        <time>2020-07-24T10:41:47Z</time>
      </trkpt>
      <trkpt lat="47.81738" lon="5.31731">
        <ele>402.3</ele>
        <time>2020-07-24T10:41:51Z</time>
      </trkpt>
      <trkpt lat="47.81726" lon="5.31705">
        <ele>401.7</ele>
        <time>2020-07-24T10:41:56Z</time>
      </trkpt>
      <trkpt lat="47.81716" lon="5.31683">
        <ele>401.9</ele>
        <time>2020-07-24T10:42:00Z</time>
      </trkpt>
      <trkpt lat="47.81707" lon="5.31661">
        <ele>402.3</ele>
        <time>2020-07-24T10:42:04Z</time>
      </trkpt>
      <trkpt lat="47.81698" lon="5.31637">
        <ele>403.1</ele>
        <time>2020-07-24T10:42:08Z</time>
      </trkpt>
      <trkpt lat="47.81689" lon="5.31614">
        <ele>404.1</ele>
        <time>2020-07-24T10:42:12Z</time>
      </trkpt>
      <trkpt lat="47.81681" lon="5.31591">
        <ele>404.2</ele>
        <time>2020-07-24T10:42:16Z</time>
      </trkpt>
      <trkpt lat="47.81674" lon="5.31567">
        <ele>404</ele>
        <time>2020-07-24T10:42:20Z</time>
      </trkpt>
      <trkpt lat="47.81667" lon="5.31546">
        <ele>402.5</ele>
        <time>2020-07-24T10:42:24Z</time>
      </trkpt>
      <trkpt lat="47.8166" lon="5.31524">
        <ele>402.7</ele>
        <time>2020-07-24T10:42:28Z</time>
      </trkpt>
      <trkpt lat="47.81651" lon="5.31498">
        <ele>401.7</ele>
        <time>2020-07-24T10:42:33Z</time>
      </trkpt>
      <trkpt lat="47.81646" lon="5.31478">
        <ele>402.1</ele>
        <time>2020-07-24T10:42:37Z</time>
      </trkpt>
      <trkpt lat="47.81638" lon="5.31454">
        <ele>401.8</ele>
        <time>2020-07-24T10:42:42Z</time>
      </trkpt>
      <trkpt lat="47.81629" lon="5.31427">
        <ele>402.7</ele>
        <time>2020-07-24T10:42:47Z</time>
      </trkpt>
      <trkpt lat="47.81622" lon="5.31406">
        <ele>403.3</ele>
        <time>2020-07-24T10:42:51Z</time>
      </trkpt>
      <trkpt lat="47.81614" lon="5.31381">
        <ele>402.8</ele>
        <time>2020-07-24T10:42:56Z</time>
      </trkpt>
      <trkpt lat="47.81607" lon="5.31361">
        <ele>403.2</ele>
        <time>2020-07-24T10:43:00Z</time>
      </trkpt>
      <trkpt lat="47.816" lon="5.3134">
        <ele>404</ele>
        <time>2020-07-24T10:43:04Z</time>
      </trkpt>
      <trkpt lat="47.81592" lon="5.31312">
        <ele>404.7</ele>
        <time>2020-07-24T10:43:09Z</time>
      </trkpt>
      <trkpt lat="47.8158" lon="5.31296">
        <ele>405.2</ele>
        <time>2020-07-24T10:43:14Z</time>
      </trkpt>
      <trkpt lat="47.81563" lon="5.3131">
        <ele>406.7</ele>
        <time>2020-07-24T10:43:19Z</time>
      </trkpt>
      <trkpt lat="47.81554" lon="5.31328">
        <ele>408.1</ele>
        <time>2020-07-24T10:43:23Z</time>
      </trkpt>
      <trkpt lat="47.81547" lon="5.31345">
        <ele>409.5</ele>
        <time>2020-07-24T10:43:27Z</time>
      </trkpt>
      <trkpt lat="47.81539" lon="5.31369">
        <ele>409.7</ele>
        <time>2020-07-24T10:43:32Z</time>
      </trkpt>
      <trkpt lat="47.81532" lon="5.31387">
        <ele>409.9</ele>
        <time>2020-07-24T10:43:36Z</time>
      </trkpt>
      <trkpt lat="47.81523" lon="5.31411">
        <ele>409.7</ele>
        <time>2020-07-24T10:43:41Z</time>
      </trkpt>
      <trkpt lat="47.81516" lon="5.3143">
        <ele>409.7</ele>
        <time>2020-07-24T10:43:45Z</time>
      </trkpt>
      <trkpt lat="47.81508" lon="5.31458">
        <ele>410.4</ele>
        <time>2020-07-24T10:43:50Z</time>
      </trkpt>
      <trkpt lat="47.81505" lon="5.31488">
        <ele>410.4</ele>
        <time>2020-07-24T10:43:55Z</time>
      </trkpt>
      <trkpt lat="47.81504" lon="5.31513">
        <ele>410.7</ele>
        <time>2020-07-24T10:43:59Z</time>
      </trkpt>
      <trkpt lat="47.815" lon="5.31542">
        <ele>410.4</ele>
        <time>2020-07-24T10:44:04Z</time>
      </trkpt>
      <trkpt lat="47.81495" lon="5.31566">
        <ele>410.6</ele>
        <time>2020-07-24T10:44:08Z</time>
      </trkpt>
      <trkpt lat="47.81486" lon="5.31596">
        <ele>410.3</ele>
        <time>2020-07-24T10:44:13Z</time>
      </trkpt>
      <trkpt lat="47.81478" lon="5.3162">
        <ele>411.1</ele>
        <time>2020-07-24T10:44:17Z</time>
      </trkpt>
      <trkpt lat="47.8147" lon="5.31644">
        <ele>411.4</ele>
        <time>2020-07-24T10:44:21Z</time>
      </trkpt>
      <trkpt lat="47.81463" lon="5.31669">
        <ele>410.8</ele>
        <time>2020-07-24T10:44:25Z</time>
      </trkpt>
      <trkpt lat="47.81458" lon="5.317">
        <ele>411.3</ele>
        <time>2020-07-24T10:44:30Z</time>
      </trkpt>
      <trkpt lat="47.81453" lon="5.31726">
        <ele>409</ele>
        <time>2020-07-24T10:44:35Z</time>
      </trkpt>
      <trkpt lat="47.81448" lon="5.31747">
        <ele>408.8</ele>
        <time>2020-07-24T10:44:39Z</time>
      </trkpt>
      <trkpt lat="47.81443" lon="5.3177">
        <ele>408.2</ele>
        <time>2020-07-24T10:44:43Z</time>
      </trkpt>
      <trkpt lat="47.81434" lon="5.31796">
        <ele>403.6</ele>
        <time>2020-07-24T10:44:48Z</time>
      </trkpt>
      <trkpt lat="47.81425" lon="5.31823">
        <ele>400.3</ele>
        <time>2020-07-24T10:44:53Z</time>
      </trkpt>
      <trkpt lat="47.81414" lon="5.31848">
        <ele>399.5</ele>
        <time>2020-07-24T10:44:58Z</time>
      </trkpt>
      <trkpt lat="47.81411" lon="5.31867">
        <ele>398.6</ele>
        <time>2020-07-24T10:45:02Z</time>
      </trkpt>
      <trkpt lat="47.81407" lon="5.31884">
        <ele>396.5</ele>
        <time>2020-07-24T10:45:06Z</time>
      </trkpt>
      <trkpt lat="47.81399" lon="5.3191">
        <ele>394</ele>
        <time>2020-07-24T10:45:11Z</time>
      </trkpt>
      <trkpt lat="47.81391" lon="5.31932">
        <ele>391.8</ele>
        <time>2020-07-24T10:45:15Z</time>
      </trkpt>
      <trkpt lat="47.81384" lon="5.31961">
        <ele>387.7</ele>
        <time>2020-07-24T10:45:20Z</time>
      </trkpt>
      <trkpt lat="47.81378" lon="5.31988">
        <ele>383.3</ele>
        <time>2020-07-24T10:45:24Z</time>
      </trkpt>
      <trkpt lat="47.81371" lon="5.32015">
        <ele>381.9</ele>
        <time>2020-07-24T10:45:28Z</time>
      </trkpt>
      <trkpt lat="47.81363" lon="5.32053">
        <ele>383.8</ele>
        <time>2020-07-24T10:45:33Z</time>
      </trkpt>
      <trkpt lat="47.81357" lon="5.32091">
        <ele>388.9</ele>
        <time>2020-07-24T10:45:38Z</time>
      </trkpt>
      <trkpt lat="47.81354" lon="5.3212">
        <ele>394</ele>
        <time>2020-07-24T10:45:42Z</time>
      </trkpt>
      <trkpt lat="47.81355" lon="5.3214">
        <ele>400</ele>
        <time>2020-07-24T10:45:46Z</time>
      </trkpt>
      <trkpt lat="47.81345" lon="5.3215">
        <ele>410.5</ele>
        <time>2020-07-24T10:45:51Z</time>
      </trkpt>
      <trkpt lat="47.8133" lon="5.32157">
        <ele>412.4</ele>
        <time>2020-07-24T10:45:56Z</time>
      </trkpt>
      <trkpt lat="47.81331" lon="5.32186">
        <ele>413.3</ele>
        <time>2020-07-24T10:46:01Z</time>
      </trkpt>
      <trkpt lat="47.81335" lon="5.32217">
        <ele>414.2</ele>
        <time>2020-07-24T10:46:05Z</time>
      </trkpt>
      <trkpt lat="47.81349" lon="5.32255">
        <ele>413.7</ele>
        <time>2020-07-24T10:46:10Z</time>
      </trkpt>
      <trkpt lat="47.81363" lon="5.32283">
        <ele>411.9</ele>
        <time>2020-07-24T10:46:14Z</time>
      </trkpt>
      <trkpt lat="47.81378" lon="5.3231">
        <ele>409.9</ele>
        <time>2020-07-24T10:46:18Z</time>
      </trkpt>
      <trkpt lat="47.81396" lon="5.32342">
        <ele>406.7</ele>
        <time>2020-07-24T10:46:22Z</time>
      </trkpt>
      <trkpt lat="47.81414" lon="5.32381">
        <ele>405.4</ele>
        <time>2020-07-24T10:46:27Z</time>
      </trkpt>
      <trkpt lat="47.81426" lon="5.32411">
        <ele>405.8</ele>
        <time>2020-07-24T10:46:31Z</time>
      </trkpt>
      <trkpt lat="47.8144" lon="5.32448">
        <ele>404.7</ele>
        <time>2020-07-24T10:46:36Z</time>
      </trkpt>
      <trkpt lat="47.81454" lon="5.32484">
        <ele>404.1</ele>
        <time>2020-07-24T10:46:41Z</time>
      </trkpt>
      <trkpt lat="47.81467" lon="5.32521">
        <ele>403.5</ele>
        <time>2020-07-24T10:46:46Z</time>
      </trkpt>
      <trkpt lat="47.81476" lon="5.32553">
        <ele>403.4</ele>
        <time>2020-07-24T10:46:50Z</time>
      </trkpt>
      <trkpt lat="47.81478" lon="5.32585">
        <ele>404</ele>
        <time>2020-07-24T10:46:54Z</time>
      </trkpt>
      <trkpt lat="47.8148" lon="5.32619">
        <ele>405.6</ele>
        <time>2020-07-24T10:46:59Z</time>
      </trkpt>
      <trkpt lat="47.81482" lon="5.32642">
        <ele>407.6</ele>
        <time>2020-07-24T10:47:03Z</time>
      </trkpt>
      <trkpt lat="47.81485" lon="5.32671">
        <ele>409.9</ele>
        <time>2020-07-24T10:47:08Z</time>
      </trkpt>
      <trkpt lat="47.81488" lon="5.32694">
        <ele>411.1</ele>
        <time>2020-07-24T10:47:12Z</time>
      </trkpt>
      <trkpt lat="47.8149" lon="5.32716">
        <ele>411</ele>
        <time>2020-07-24T10:47:16Z</time>
      </trkpt>
      <trkpt lat="47.81495" lon="5.32744">
        <ele>409.5</ele>
        <time>2020-07-24T10:47:21Z</time>
      </trkpt>
      <trkpt lat="47.81499" lon="5.32765">
        <ele>410.3</ele>
        <time>2020-07-24T10:47:25Z</time>
      </trkpt>
      <trkpt lat="47.81502" lon="5.32785">
        <ele>411.5</ele>
        <time>2020-07-24T10:47:29Z</time>
      </trkpt>
      <trkpt lat="47.81504" lon="5.32803">
        <ele>412.7</ele>
        <time>2020-07-24T10:47:33Z</time>
      </trkpt>
      <trkpt lat="47.81508" lon="5.32822">
        <ele>413.4</ele>
        <time>2020-07-24T10:47:37Z</time>
      </trkpt>
      <trkpt lat="47.81511" lon="5.32843">
        <ele>413.8</ele>
        <time>2020-07-24T10:47:41Z</time>
      </trkpt>
      <trkpt lat="47.81516" lon="5.32866">
        <ele>414.5</ele>
        <time>2020-07-24T10:47:46Z</time>
      </trkpt>
      <trkpt lat="47.81519" lon="5.32886">
        <ele>414.1</ele>
        <time>2020-07-24T10:47:50Z</time>
      </trkpt>
      <trkpt lat="47.81523" lon="5.32914">
        <ele>412.8</ele>
        <time>2020-07-24T10:47:55Z</time>
      </trkpt>
      <trkpt lat="47.81527" lon="5.32938">
        <ele>413.9</ele>
        <time>2020-07-24T10:47:59Z</time>
      </trkpt>
      <trkpt lat="47.81532" lon="5.32968">
        <ele>413.1</ele>
        <time>2020-07-24T10:48:04Z</time>
      </trkpt>
      <trkpt lat="47.81538" lon="5.32993">
        <ele>414.7</ele>
        <time>2020-07-24T10:48:08Z</time>
      </trkpt>
      <trkpt lat="47.81544" lon="5.33018">
        <ele>415.4</ele>
        <time>2020-07-24T10:48:12Z</time>
      </trkpt>
      <trkpt lat="47.81549" lon="5.33045">
        <ele>415.6</ele>
        <time>2020-07-24T10:48:16Z</time>
      </trkpt>
      <trkpt lat="47.81552" lon="5.33071">
        <ele>415.7</ele>
        <time>2020-07-24T10:48:20Z</time>
      </trkpt>
      <trkpt lat="47.81553" lon="5.33097">
        <ele>415.4</ele>
        <time>2020-07-24T10:48:24Z</time>
      </trkpt>
      <trkpt lat="47.8155" lon="5.33126">
        <ele>413.9</ele>
        <time>2020-07-24T10:48:29Z</time>
      </trkpt>
      <trkpt lat="47.81545" lon="5.33154">
        <ele>413</ele>
        <time>2020-07-24T10:48:34Z</time>
      </trkpt>
      <trkpt lat="47.81542" lon="5.33174">
        <ele>412.6</ele>
        <time>2020-07-24T10:48:38Z</time>
      </trkpt>
      <trkpt lat="47.81539" lon="5.33194">
        <ele>411.9</ele>
        <time>2020-07-24T10:48:42Z</time>
      </trkpt>
      <trkpt lat="47.81538" lon="5.33216">
        <ele>411.7</ele>
        <time>2020-07-24T10:48:46Z</time>
      </trkpt>
      <trkpt lat="47.8154" lon="5.33242">
        <ele>412.5</ele>
        <time>2020-07-24T10:48:51Z</time>
      </trkpt>
      <trkpt lat="47.81541" lon="5.33266">
        <ele>412</ele>
        <time>2020-07-24T10:48:55Z</time>
      </trkpt>
      <trkpt lat="47.81541" lon="5.33295">
        <ele>412</ele>
        <time>2020-07-24T10:49:00Z</time>
      </trkpt>
      <trkpt lat="47.81541" lon="5.33318">
        <ele>412.6</ele>
        <time>2020-07-24T10:49:04Z</time>
      </trkpt>
      <trkpt lat="47.81542" lon="5.33345">
        <ele>412.1</ele>
        <time>2020-07-24T10:49:09Z</time>
      </trkpt>
      <trkpt lat="47.81545" lon="5.33368">
        <ele>411.4</ele>
        <time>2020-07-24T10:49:13Z</time>
      </trkpt>
      <trkpt lat="47.81551" lon="5.33397">
        <ele>410.6</ele>
        <time>2020-07-24T10:49:18Z</time>
      </trkpt>
      <trkpt lat="47.81555" lon="5.33419">
        <ele>410.1</ele>
        <time>2020-07-24T10:49:22Z</time>
      </trkpt>
      <trkpt lat="47.81562" lon="5.33439">
        <ele>410.6</ele>
        <time>2020-07-24T10:49:26Z</time>
      </trkpt>
      <trkpt lat="47.81569" lon="5.3346">
        <ele>412.8</ele>
        <time>2020-07-24T10:49:30Z</time>
      </trkpt>
      <trkpt lat="47.81576" lon="5.33486">
        <ele>414.1</ele>
        <time>2020-07-24T10:49:35Z</time>
      </trkpt>
      <trkpt lat="47.81584" lon="5.33512">
        <ele>415.1</ele>
        <time>2020-07-24T10:49:39Z</time>
      </trkpt>
      <trkpt lat="47.81589" lon="5.33539">
        <ele>414.8</ele>
        <time>2020-07-24T10:49:43Z</time>
      </trkpt>
      <trkpt lat="47.81595" lon="5.33569">
        <ele>414.9</ele>
        <time>2020-07-24T10:49:48Z</time>
      </trkpt>
      <trkpt lat="47.81598" lon="5.33594">
        <ele>414</ele>
        <time>2020-07-24T10:49:52Z</time>
      </trkpt>
      <trkpt lat="47.81603" lon="5.33627">
        <ele>410.6</ele>
        <time>2020-07-24T10:49:57Z</time>
      </trkpt>
      <trkpt lat="47.81611" lon="5.33662">
        <ele>409.9</ele>
        <time>2020-07-24T10:50:02Z</time>
      </trkpt>
      <trkpt lat="47.81615" lon="5.3369">
        <ele>409.5</ele>
        <time>2020-07-24T10:50:06Z</time>
      </trkpt>
      <trkpt lat="47.81623" lon="5.33717">
        <ele>412.5</ele>
        <time>2020-07-24T10:50:10Z</time>
      </trkpt>
      <trkpt lat="47.81629" lon="5.33753">
        <ele>413.4</ele>
        <time>2020-07-24T10:50:15Z</time>
      </trkpt>
      <trkpt lat="47.81634" lon="5.3378">
        <ele>415.5</ele>
        <time>2020-07-24T10:50:19Z</time>
      </trkpt>
      <trkpt lat="47.81638" lon="5.33806">
        <ele>414.6</ele>
        <time>2020-07-24T10:50:23Z</time>
      </trkpt>
      <trkpt lat="47.81642" lon="5.33832">
        <ele>413.4</ele>
        <time>2020-07-24T10:50:27Z</time>
      </trkpt>
      <trkpt lat="47.81647" lon="5.33857">
        <ele>412.3</ele>
        <time>2020-07-24T10:50:31Z</time>
      </trkpt>
      <trkpt lat="47.81651" lon="5.3389">
        <ele>412.9</ele>
        <time>2020-07-24T10:50:36Z</time>
      </trkpt>
      <trkpt lat="47.81656" lon="5.33913">
        <ele>413.2</ele>
        <time>2020-07-24T10:50:40Z</time>
      </trkpt>
      <trkpt lat="47.81661" lon="5.33943">
        <ele>413.4</ele>
        <time>2020-07-24T10:50:45Z</time>
      </trkpt>
      <trkpt lat="47.81666" lon="5.33975">
        <ele>414.2</ele>
        <time>2020-07-24T10:50:50Z</time>
      </trkpt>
      <trkpt lat="47.81672" lon="5.34002">
        <ele>414.1</ele>
        <time>2020-07-24T10:50:54Z</time>
      </trkpt>
      <trkpt lat="47.81681" lon="5.34032">
        <ele>414.7</ele>
        <time>2020-07-24T10:50:58Z</time>
      </trkpt>
      <trkpt lat="47.81691" lon="5.34067">
        <ele>416.6</ele>
        <time>2020-07-24T10:51:02Z</time>
      </trkpt>
      <trkpt lat="47.81702" lon="5.34104">
        <ele>416.5</ele>
        <time>2020-07-24T10:51:06Z</time>
      </trkpt>
      <trkpt lat="47.81715" lon="5.34153">
        <ele>414.1</ele>
        <time>2020-07-24T10:51:11Z</time>
      </trkpt>
      <trkpt lat="47.81724" lon="5.34191">
        <ele>414.6</ele>
        <time>2020-07-24T10:51:15Z</time>
      </trkpt>
      <trkpt lat="47.81731" lon="5.34222">
        <ele>415.7</ele>
        <time>2020-07-24T10:51:19Z</time>
      </trkpt>
      <trkpt lat="47.81734" lon="5.34244">
        <ele>416</ele>
        <time>2020-07-24T10:51:24Z</time>
      </trkpt>
      <trkpt lat="47.81724" lon="5.34251">
        <ele>416</ele>
        <time>2020-07-24T10:51:28Z</time>
      </trkpt>
      <trkpt lat="47.81712" lon="5.34258">
        <ele>413.8</ele>
        <time>2020-07-24T10:51:32Z</time>
      </trkpt>
      <trkpt lat="47.81701" lon="5.34264">
        <ele>412.8</ele>
        <time>2020-07-24T10:51:36Z</time>
      </trkpt>
      <trkpt lat="47.8169" lon="5.3427">
        <ele>413</ele>
        <time>2020-07-24T10:51:40Z</time>
      </trkpt>
      <trkpt lat="47.81679" lon="5.34278">
        <ele>413.1</ele>
        <time>2020-07-24T10:51:44Z</time>
      </trkpt>
      <trkpt lat="47.81667" lon="5.34286">
        <ele>413</ele>
        <time>2020-07-24T10:51:48Z</time>
      </trkpt>
      <trkpt lat="47.81655" lon="5.34295">
        <ele>413.9</ele>
        <time>2020-07-24T10:51:52Z</time>
      </trkpt>
      <trkpt lat="47.81644" lon="5.34304">
        <ele>414.3</ele>
        <time>2020-07-24T10:51:56Z</time>
      </trkpt>
      <trkpt lat="47.81633" lon="5.34312">
        <ele>414</ele>
        <time>2020-07-24T10:52:00Z</time>
      </trkpt>
      <trkpt lat="47.8162" lon="5.34322">
        <ele>412.4</ele>
        <time>2020-07-24T10:52:04Z</time>
      </trkpt>
      <trkpt lat="47.81605" lon="5.34335">
        <ele>412.9</ele>
        <time>2020-07-24T10:52:09Z</time>
      </trkpt>
      <trkpt lat="47.81591" lon="5.34346">
        <ele>412.5</ele>
        <time>2020-07-24T10:52:13Z</time>
      </trkpt>
      <trkpt lat="47.81573" lon="5.34362">
        <ele>412.7</ele>
        <time>2020-07-24T10:52:18Z</time>
      </trkpt>
      <trkpt lat="47.81555" lon="5.34377">
        <ele>412.3</ele>
        <time>2020-07-24T10:52:22Z</time>
      </trkpt>
      <trkpt lat="47.81537" lon="5.34393">
        <ele>412.2</ele>
        <time>2020-07-24T10:52:26Z</time>
      </trkpt>
      <trkpt lat="47.81518" lon="5.3441">
        <ele>413.1</ele>
        <time>2020-07-24T10:52:30Z</time>
      </trkpt>
      <trkpt lat="47.81491" lon="5.34432">
        <ele>413.1</ele>
        <time>2020-07-24T10:52:35Z</time>
      </trkpt>
      <trkpt lat="47.81463" lon="5.34436">
        <ele>412.7</ele>
        <time>2020-07-24T10:52:40Z</time>
      </trkpt>
      <trkpt lat="47.81443" lon="5.34428">
        <ele>411.3</ele>
        <time>2020-07-24T10:52:44Z</time>
      </trkpt>
      <trkpt lat="47.81427" lon="5.34419">
        <ele>410.9</ele>
        <time>2020-07-24T10:52:48Z</time>
      </trkpt>
      <trkpt lat="47.81414" lon="5.34412">
        <ele>411</ele>
        <time>2020-07-24T10:52:52Z</time>
      </trkpt>
      <trkpt lat="47.81397" lon="5.34403">
        <ele>411</ele>
        <time>2020-07-24T10:52:57Z</time>
      </trkpt>
      <trkpt lat="47.81381" lon="5.34395">
        <ele>412.4</ele>
        <time>2020-07-24T10:53:02Z</time>
      </trkpt>
      <trkpt lat="47.81368" lon="5.34388">
        <ele>413.9</ele>
        <time>2020-07-24T10:53:06Z</time>
      </trkpt>
      <trkpt lat="47.81352" lon="5.34381">
        <ele>413.8</ele>
        <time>2020-07-24T10:53:11Z</time>
      </trkpt>
      <trkpt lat="47.8134" lon="5.34375">
        <ele>412.7</ele>
        <time>2020-07-24T10:53:15Z</time>
      </trkpt>
      <trkpt lat="47.81328" lon="5.34369">
        <ele>413.3</ele>
        <time>2020-07-24T10:53:19Z</time>
      </trkpt>
      <trkpt lat="47.81316" lon="5.34363">
        <ele>414.8</ele>
        <time>2020-07-24T10:53:23Z</time>
      </trkpt>
      <trkpt lat="47.81305" lon="5.34358">
        <ele>416</ele>
        <time>2020-07-24T10:53:27Z</time>
      </trkpt>
      <trkpt lat="47.81291" lon="5.34352">
        <ele>418.3</ele>
        <time>2020-07-24T10:53:32Z</time>
      </trkpt>
      <trkpt lat="47.8128" lon="5.34346">
        <ele>418.6</ele>
        <time>2020-07-24T10:53:37Z</time>
      </trkpt>
      <trkpt lat="47.81272" lon="5.34341">
        <ele>418.7</ele>
        <time>2020-07-24T10:53:41Z</time>
      </trkpt>
      <trkpt lat="47.81264" lon="5.34338">
        <ele>418.7</ele>
        <time>2020-07-24T10:53:45Z</time>
      </trkpt>
      <trkpt lat="47.81254" lon="5.34334">
        <ele>416.8</ele>
        <time>2020-07-24T10:53:50Z</time>
      </trkpt>
      <trkpt lat="47.81245" lon="5.34332">
        <ele>417.1</ele>
        <time>2020-07-24T10:53:54Z</time>
      </trkpt>
      <trkpt lat="47.81235" lon="5.3433">
        <ele>418.3</ele>
        <time>2020-07-24T10:53:59Z</time>
      </trkpt>
      <trkpt lat="47.81226" lon="5.34329">
        <ele>420.5</ele>
        <time>2020-07-24T10:54:03Z</time>
      </trkpt>
      <trkpt lat="47.81216" lon="5.34329">
        <ele>419.2</ele>
        <time>2020-07-24T10:54:07Z</time>
      </trkpt>
      <trkpt lat="47.81203" lon="5.34331">
        <ele>420.6</ele>
        <time>2020-07-24T10:54:12Z</time>
      </trkpt>
      <trkpt lat="47.81191" lon="5.34334">
        <ele>420.3</ele>
        <time>2020-07-24T10:54:16Z</time>
      </trkpt>
      <trkpt lat="47.81179" lon="5.34339">
        <ele>419.9</ele>
        <time>2020-07-24T10:54:20Z</time>
      </trkpt>
      <trkpt lat="47.81166" lon="5.34343">
        <ele>419</ele>
        <time>2020-07-24T10:54:24Z</time>
      </trkpt>
      <trkpt lat="47.81146" lon="5.3435">
        <ele>417.8</ele>
        <time>2020-07-24T10:54:29Z</time>
      </trkpt>
      <trkpt lat="47.81123" lon="5.34359">
        <ele>417.5</ele>
        <time>2020-07-24T10:54:34Z</time>
      </trkpt>
      <trkpt lat="47.81099" lon="5.34371">
        <ele>417</ele>
        <time>2020-07-24T10:54:39Z</time>
      </trkpt>
      <trkpt lat="47.81078" lon="5.34379">
        <ele>416.3</ele>
        <time>2020-07-24T10:54:43Z</time>
      </trkpt>
      <trkpt lat="47.81056" lon="5.34387">
        <ele>415.4</ele>
        <time>2020-07-24T10:54:47Z</time>
      </trkpt>
      <trkpt lat="47.81033" lon="5.34395">
        <ele>415.6</ele>
        <time>2020-07-24T10:54:51Z</time>
      </trkpt>
      <trkpt lat="47.81009" lon="5.344">
        <ele>415.2</ele>
        <time>2020-07-24T10:54:55Z</time>
      </trkpt>
      <trkpt lat="47.80977" lon="5.344">
        <ele>415.1</ele>
        <time>2020-07-24T10:55:00Z</time>
      </trkpt>
      <trkpt lat="47.80951" lon="5.34398">
        <ele>414.7</ele>
        <time>2020-07-24T10:55:04Z</time>
      </trkpt>
      <trkpt lat="47.80924" lon="5.34395">
        <ele>413.2</ele>
        <time>2020-07-24T10:55:08Z</time>
      </trkpt>
      <trkpt lat="47.80894" lon="5.34392">
        <ele>412.9</ele>
        <time>2020-07-24T10:55:12Z</time>
      </trkpt>
      <trkpt lat="47.80866" lon="5.34391">
        <ele>411.7</ele>
        <time>2020-07-24T10:55:16Z</time>
      </trkpt>
      <trkpt lat="47.80838" lon="5.34392">
        <ele>411.5</ele>
        <time>2020-07-24T10:55:20Z</time>
      </trkpt>
      <trkpt lat="47.80805" lon="5.34399">
        <ele>411.4</ele>
        <time>2020-07-24T10:55:25Z</time>
      </trkpt>
      <trkpt lat="47.80777" lon="5.34408">
        <ele>409.9</ele>
        <time>2020-07-24T10:55:29Z</time>
      </trkpt>
      <trkpt lat="47.80747" lon="5.34419">
        <ele>409.5</ele>
        <time>2020-07-24T10:55:33Z</time>
      </trkpt>
      <trkpt lat="47.80716" lon="5.3443">
        <ele>409.8</ele>
        <time>2020-07-24T10:55:37Z</time>
      </trkpt>
      <trkpt lat="47.80679" lon="5.34441">
        <ele>408.8</ele>
        <time>2020-07-24T10:55:42Z</time>
      </trkpt>
      <trkpt lat="47.80654" lon="5.34443">
        <ele>408.3</ele>
        <time>2020-07-24T10:55:46Z</time>
      </trkpt>
      <trkpt lat="47.80624" lon="5.3444">
        <ele>408.6</ele>
        <time>2020-07-24T10:55:51Z</time>
      </trkpt>
      <trkpt lat="47.806" lon="5.34434">
        <ele>407.6</ele>
        <time>2020-07-24T10:55:55Z</time>
      </trkpt>
      <trkpt lat="47.80569" lon="5.34425">
        <ele>405.9</ele>
        <time>2020-07-24T10:56:00Z</time>
      </trkpt>
      <trkpt lat="47.80535" lon="5.34417">
        <ele>407.4</ele>
        <time>2020-07-24T10:56:05Z</time>
      </trkpt>
      <trkpt lat="47.80507" lon="5.34411">
        <ele>408.5</ele>
        <time>2020-07-24T10:56:09Z</time>
      </trkpt>
      <trkpt lat="47.80478" lon="5.34411">
        <ele>407.9</ele>
        <time>2020-07-24T10:56:14Z</time>
      </trkpt>
      <trkpt lat="47.80455" lon="5.34411">
        <ele>406.6</ele>
        <time>2020-07-24T10:56:18Z</time>
      </trkpt>
      <trkpt lat="47.80431" lon="5.34413">
        <ele>407</ele>
        <time>2020-07-24T10:56:22Z</time>
      </trkpt>
      <trkpt lat="47.80405" lon="5.34414">
        <ele>405.7</ele>
        <time>2020-07-24T10:56:26Z</time>
      </trkpt>
      <trkpt lat="47.80377" lon="5.34413">
        <ele>404</ele>
        <time>2020-07-24T10:56:30Z</time>
      </trkpt>
      <trkpt lat="47.80338" lon="5.34413">
        <ele>403.1</ele>
        <time>2020-07-24T10:56:35Z</time>
      </trkpt>
      <trkpt lat="47.80292" lon="5.34414">
        <ele>400</ele>
        <time>2020-07-24T10:56:40Z</time>
      </trkpt>
      <trkpt lat="47.80254" lon="5.34414">
        <ele>397.5</ele>
        <time>2020-07-24T10:56:44Z</time>
      </trkpt>
      <trkpt lat="47.80215" lon="5.34416">
        <ele>398.2</ele>
        <time>2020-07-24T10:56:48Z</time>
      </trkpt>
      <trkpt lat="47.80175" lon="5.34418">
        <ele>396.4</ele>
        <time>2020-07-24T10:56:52Z</time>
      </trkpt>
      <trkpt lat="47.80129" lon="5.34419">
        <ele>396.1</ele>
        <time>2020-07-24T10:56:57Z</time>
      </trkpt>
      <trkpt lat="47.80091" lon="5.34412">
        <ele>396.9</ele>
        <time>2020-07-24T10:57:02Z</time>
      </trkpt>
      <trkpt lat="47.80065" lon="5.34404">
        <ele>396.8</ele>
        <time>2020-07-24T10:57:06Z</time>
      </trkpt>
      <trkpt lat="47.80033" lon="5.34402">
        <ele>394.8</ele>
        <time>2020-07-24T10:57:11Z</time>
      </trkpt>
      <trkpt lat="47.79999" lon="5.34419">
        <ele>392.9</ele>
        <time>2020-07-24T10:57:16Z</time>
      </trkpt>
      <trkpt lat="47.79973" lon="5.34438">
        <ele>391.4</ele>
        <time>2020-07-24T10:57:20Z</time>
      </trkpt>
      <trkpt lat="47.79946" lon="5.34456">
        <ele>389.6</ele>
        <time>2020-07-24T10:57:24Z</time>
      </trkpt>
      <trkpt lat="47.7992" lon="5.34472">
        <ele>389.7</ele>
        <time>2020-07-24T10:57:28Z</time>
      </trkpt>
      <trkpt lat="47.79887" lon="5.34489">
        <ele>390.5</ele>
        <time>2020-07-24T10:57:33Z</time>
      </trkpt>
      <trkpt lat="47.79859" lon="5.34508">
        <ele>390</ele>
        <time>2020-07-24T10:57:38Z</time>
      </trkpt>
      <trkpt lat="47.79839" lon="5.34526">
        <ele>392.2</ele>
        <time>2020-07-24T10:57:42Z</time>
      </trkpt>
      <trkpt lat="47.79816" lon="5.34552">
        <ele>392.9</ele>
        <time>2020-07-24T10:57:47Z</time>
      </trkpt>
      <trkpt lat="47.79796" lon="5.34574">
        <ele>393.8</ele>
        <time>2020-07-24T10:57:51Z</time>
      </trkpt>
      <trkpt lat="47.79778" lon="5.34595">
        <ele>394.3</ele>
        <time>2020-07-24T10:57:55Z</time>
      </trkpt>
      <trkpt lat="47.79761" lon="5.34615">
        <ele>392.9</ele>
        <time>2020-07-24T10:57:59Z</time>
      </trkpt>
      <trkpt lat="47.79739" lon="5.34642">
        <ele>391.9</ele>
        <time>2020-07-24T10:58:04Z</time>
      </trkpt>
      <trkpt lat="47.7972" lon="5.34668">
        <ele>391.6</ele>
        <time>2020-07-24T10:58:08Z</time>
      </trkpt>
      <trkpt lat="47.79698" lon="5.34708">
        <ele>388.8</ele>
        <time>2020-07-24T10:58:13Z</time>
      </trkpt>
      <trkpt lat="47.79678" lon="5.3475">
        <ele>383.7</ele>
        <time>2020-07-24T10:58:18Z</time>
      </trkpt>
      <trkpt lat="47.79657" lon="5.3479">
        <ele>383.3</ele>
        <time>2020-07-24T10:58:22Z</time>
      </trkpt>
      <trkpt lat="47.79634" lon="5.34827">
        <ele>382.2</ele>
        <time>2020-07-24T10:58:26Z</time>
      </trkpt>
      <trkpt lat="47.79602" lon="5.34867">
        <ele>380.2</ele>
        <time>2020-07-24T10:58:31Z</time>
      </trkpt>
      <trkpt lat="47.79573" lon="5.34895">
        <ele>379.2</ele>
        <time>2020-07-24T10:58:35Z</time>
      </trkpt>
      <trkpt lat="47.79543" lon="5.34918">
        <ele>378.5</ele>
        <time>2020-07-24T10:58:39Z</time>
      </trkpt>
      <trkpt lat="47.7951" lon="5.34938">
        <ele>379.6</ele>
        <time>2020-07-24T10:58:43Z</time>
      </trkpt>
      <trkpt lat="47.79465" lon="5.34952">
        <ele>376.6</ele>
        <time>2020-07-24T10:58:48Z</time>
      </trkpt>
      <trkpt lat="47.7943" lon="5.34956">
        <ele>372.4</ele>
        <time>2020-07-24T10:58:52Z</time>
      </trkpt>
      <trkpt lat="47.79388" lon="5.34961">
        <ele>365.9</ele>
        <time>2020-07-24T10:58:57Z</time>
      </trkpt>
      <trkpt lat="47.79354" lon="5.34959">
        <ele>363.7</ele>
        <time>2020-07-24T10:59:01Z</time>
      </trkpt>
      <trkpt lat="47.79321" lon="5.34946">
        <ele>361.1</ele>
        <time>2020-07-24T10:59:05Z</time>
      </trkpt>
      <trkpt lat="47.79281" lon="5.34925">
        <ele>358.7</ele>
        <time>2020-07-24T10:59:10Z</time>
      </trkpt>
      <trkpt lat="47.79241" lon="5.34905">
        <ele>356.8</ele>
        <time>2020-07-24T10:59:15Z</time>
      </trkpt>
      <trkpt lat="47.7921" lon="5.34891">
        <ele>352.9</ele>
        <time>2020-07-24T10:59:19Z</time>
      </trkpt>
      <trkpt lat="47.79168" lon="5.34868">
        <ele>347</ele>
        <time>2020-07-24T10:59:24Z</time>
      </trkpt>
      <trkpt lat="47.79124" lon="5.34838">
        <ele>344</ele>
        <time>2020-07-24T10:59:28Z</time>
      </trkpt>
      <trkpt lat="47.79085" lon="5.34812">
        <ele>339.3</ele>
        <time>2020-07-24T10:59:32Z</time>
      </trkpt>
      <trkpt lat="47.79046" lon="5.34786">
        <ele>336.3</ele>
        <time>2020-07-24T10:59:37Z</time>
      </trkpt>
      <trkpt lat="47.79016" lon="5.34766">
        <ele>335.6</ele>
        <time>2020-07-24T10:59:42Z</time>
      </trkpt>
      <trkpt lat="47.78993" lon="5.3477">
        <ele>333.8</ele>
        <time>2020-07-24T10:59:47Z</time>
      </trkpt>
      <trkpt lat="47.78985" lon="5.34777">
        <ele>333.9</ele>
        <time>2020-07-24T10:59:53Z</time>
      </trkpt>
      <trkpt lat="47.78968" lon="5.34781">
        <ele>333</ele>
        <time>2020-07-24T10:59:57Z</time>
      </trkpt>
      <trkpt lat="47.78938" lon="5.34774">
        <ele>331.3</ele>
        <time>2020-07-24T11:00:02Z</time>
      </trkpt>
      <trkpt lat="47.78916" lon="5.34757">
        <ele>330</ele>
        <time>2020-07-24T11:00:06Z</time>
      </trkpt>
      <trkpt lat="47.78896" lon="5.34737">
        <ele>328.6</ele>
        <time>2020-07-24T11:00:10Z</time>
      </trkpt>
      <trkpt lat="47.78871" lon="5.34724">
        <ele>324.9</ele>
        <time>2020-07-24T11:00:15Z</time>
      </trkpt>
      <trkpt lat="47.7885" lon="5.34726">
        <ele>320.6</ele>
        <time>2020-07-24T11:00:19Z</time>
      </trkpt>
      <trkpt lat="47.78821" lon="5.34711">
        <ele>319.1</ele>
        <time>2020-07-24T11:00:24Z</time>
      </trkpt>
      <trkpt lat="47.78794" lon="5.34689">
        <ele>315.8</ele>
        <time>2020-07-24T11:00:29Z</time>
      </trkpt>
      <trkpt lat="47.78773" lon="5.34674">
        <ele>313.7</ele>
        <time>2020-07-24T11:00:33Z</time>
      </trkpt>
      <trkpt lat="47.78752" lon="5.34672">
        <ele>313.2</ele>
        <time>2020-07-24T11:00:37Z</time>
      </trkpt>
      <trkpt lat="47.78735" lon="5.34668">
        <ele>310.6</ele>
        <time>2020-07-24T11:00:42Z</time>
      </trkpt>
      <trkpt lat="47.78723" lon="5.34653">
        <ele>308</ele>
        <time>2020-07-24T11:00:46Z</time>
      </trkpt>
      <trkpt lat="47.78708" lon="5.34634">
        <ele>306.2</ele>
        <time>2020-07-24T11:00:50Z</time>
      </trkpt>
      <trkpt lat="47.78691" lon="5.3461">
        <ele>305.9</ele>
        <time>2020-07-24T11:00:55Z</time>
      </trkpt>
      <trkpt lat="47.78686" lon="5.34597">
        <ele>304.2</ele>
        <time>2020-07-24T11:00:59Z</time>
      </trkpt>
      <trkpt lat="47.78685" lon="5.34593">
        <ele>304.2</ele>
        <time>2020-07-24T11:01:06Z</time>
      </trkpt>
      <trkpt lat="47.78685" lon="5.34593">
        <ele>304.2</ele>
        <time>2020-07-24T11:01:07Z</time>
      </trkpt>
      <trkpt lat="47.78685" lon="5.33688">
        <ele>370.8</ele>
        <time>2020-07-24T11:40:36Z</time>
      </trkpt>
      <trkpt lat="47.78684" lon="5.33684">
        <ele>370.7</ele>
        <time>2020-07-24T11:40:40Z</time>
      </trkpt>
      <trkpt lat="47.78684" lon="5.33684">
        <ele>370.7</ele>
        <time>2020-07-24T11:40:41Z</time>
      </trkpt>
      <trkpt lat="47.78702" lon="5.34561">
        <ele>304.8</ele>
        <time>2020-07-24T12:18:24Z</time>
      </trkpt>
      <trkpt lat="47.78687" lon="5.34579">
        <ele>301.9</ele>
        <time>2020-07-24T12:18:28Z</time>
      </trkpt>
      <trkpt lat="47.78672" lon="5.34578">
        <ele>299.2</ele>
        <time>2020-07-24T12:18:32Z</time>
      </trkpt>
      <trkpt lat="47.78656" lon="5.34571">
        <ele>295</ele>
        <time>2020-07-24T12:18:37Z</time>
      </trkpt>
      <trkpt lat="47.78645" lon="5.3459">
        <ele>295.4</ele>
        <time>2020-07-24T12:18:41Z</time>
      </trkpt>
      <trkpt lat="47.78631" lon="5.34619">
        <ele>294.7</ele>
        <time>2020-07-24T12:18:46Z</time>
      </trkpt>
      <trkpt lat="47.78621" lon="5.34643">
        <ele>293.3</ele>
        <time>2020-07-24T12:18:50Z</time>
      </trkpt>
      <trkpt lat="47.78613" lon="5.34671">
        <ele>292.7</ele>
        <time>2020-07-24T12:18:54Z</time>
      </trkpt>
      <trkpt lat="47.78607" lon="5.34701">
        <ele>294.4</ele>
        <time>2020-07-24T12:18:59Z</time>
      </trkpt>
      <trkpt lat="47.78601" lon="5.34726">
        <ele>296.9</ele>
        <time>2020-07-24T12:19:03Z</time>
      </trkpt>
      <trkpt lat="47.78597" lon="5.34753">
        <ele>298.5</ele>
        <time>2020-07-24T12:19:08Z</time>
      </trkpt>
      <trkpt lat="47.78597" lon="5.34771">
        <ele>296.6</ele>
        <time>2020-07-24T12:19:12Z</time>
      </trkpt>
      <trkpt lat="47.786" lon="5.34789">
        <ele>295.1</ele>
        <time>2020-07-24T12:19:16Z</time>
      </trkpt>
      <trkpt lat="47.78604" lon="5.34805">
        <ele>293.2</ele>
        <time>2020-07-24T12:19:20Z</time>
      </trkpt>
      <trkpt lat="47.7861" lon="5.34821">
        <ele>293.7</ele>
        <time>2020-07-24T12:19:24Z</time>
      </trkpt>
      <trkpt lat="47.78611" lon="5.34835">
        <ele>295.4</ele>
        <time>2020-07-24T12:19:28Z</time>
      </trkpt>
      <trkpt lat="47.78611" lon="5.34854">
        <ele>299</ele>
        <time>2020-07-24T12:19:33Z</time>
      </trkpt>
      <trkpt lat="47.78611" lon="5.34868">
        <ele>298.7</ele>
        <time>2020-07-24T12:19:37Z</time>
      </trkpt>
      <trkpt lat="47.7861" lon="5.34883">
        <ele>297.9</ele>
        <time>2020-07-24T12:19:41Z</time>
      </trkpt>
      <trkpt lat="47.78609" lon="5.34897">
        <ele>297.6</ele>
        <time>2020-07-24T12:19:45Z</time>
      </trkpt>
      <trkpt lat="47.78609" lon="5.34914">
        <ele>296.4</ele>
        <time>2020-07-24T12:19:50Z</time>
      </trkpt>
      <trkpt lat="47.7861" lon="5.34929">
        <ele>295.3</ele>
        <time>2020-07-24T12:19:54Z</time>
      </trkpt>
      <trkpt lat="47.7861" lon="5.34944">
        <ele>296.7</ele>
        <time>2020-07-24T12:19:58Z</time>
      </trkpt>
      <trkpt lat="47.78609" lon="5.34966">
        <ele>300.5</ele>
        <time>2020-07-24T12:20:03Z</time>
      </trkpt>
      <trkpt lat="47.78608" lon="5.34983">
        <ele>301.7</ele>
        <time>2020-07-24T12:20:07Z</time>
      </trkpt>
      <trkpt lat="47.78606" lon="5.35002">
        <ele>300.6</ele>
        <time>2020-07-24T12:20:12Z</time>
      </trkpt>
      <trkpt lat="47.78606" lon="5.35017">
        <ele>298.4</ele>
        <time>2020-07-24T12:20:17Z</time>
      </trkpt>
      <trkpt lat="47.78606" lon="5.35029">
        <ele>296.7</ele>
        <time>2020-07-24T12:20:21Z</time>
      </trkpt>
      <trkpt lat="47.78605" lon="5.35043">
        <ele>297.9</ele>
        <time>2020-07-24T12:20:25Z</time>
      </trkpt>
      <trkpt lat="47.78603" lon="5.35061">
        <ele>300.1</ele>
        <time>2020-07-24T12:20:30Z</time>
      </trkpt>
      <trkpt lat="47.78603" lon="5.35081">
        <ele>307</ele>
        <time>2020-07-24T12:20:35Z</time>
      </trkpt>
      <trkpt lat="47.78603" lon="5.35096">
        <ele>309.2</ele>
        <time>2020-07-24T12:20:40Z</time>
      </trkpt>
      <trkpt lat="47.78603" lon="5.35109">
        <ele>311.7</ele>
        <time>2020-07-24T12:20:45Z</time>
      </trkpt>
      <trkpt lat="47.78604" lon="5.35122">
        <ele>313.3</ele>
        <time>2020-07-24T12:20:50Z</time>
      </trkpt>
      <trkpt lat="47.78604" lon="5.35133">
        <ele>314.2</ele>
        <time>2020-07-24T12:20:54Z</time>
      </trkpt>
      <trkpt lat="47.78606" lon="5.35146">
        <ele>314.9</ele>
        <time>2020-07-24T12:20:59Z</time>
      </trkpt>
      <trkpt lat="47.78607" lon="5.35158">
        <ele>314.3</ele>
        <time>2020-07-24T12:21:04Z</time>
      </trkpt>
      <trkpt lat="47.78608" lon="5.35169">
        <ele>313.6</ele>
        <time>2020-07-24T12:21:09Z</time>
      </trkpt>
      <trkpt lat="47.78608" lon="5.35181">
        <ele>313</ele>
        <time>2020-07-24T12:21:14Z</time>
      </trkpt>
      <trkpt lat="47.78611" lon="5.35194">
        <ele>310.8</ele>
        <time>2020-07-24T12:21:20Z</time>
      </trkpt>
      <trkpt lat="47.78615" lon="5.35204">
        <ele>311.2</ele>
        <time>2020-07-24T12:21:24Z</time>
      </trkpt>
      <trkpt lat="47.7862" lon="5.35213">
        <ele>309.8</ele>
        <time>2020-07-24T12:21:29Z</time>
      </trkpt>
      <trkpt lat="47.78626" lon="5.35223">
        <ele>310</ele>
        <time>2020-07-24T12:21:34Z</time>
      </trkpt>
      <trkpt lat="47.78629" lon="5.35234">
        <ele>310.3</ele>
        <time>2020-07-24T12:21:40Z</time>
      </trkpt>
      <trkpt lat="47.78636" lon="5.35243">
        <ele>308.9</ele>
        <time>2020-07-24T12:21:45Z</time>
      </trkpt>
      <trkpt lat="47.78641" lon="5.35251">
        <ele>308.1</ele>
        <time>2020-07-24T12:21:56Z</time>
      </trkpt>
      <trkpt lat="47.78648" lon="5.35259">
        <ele>306.9</ele>
        <time>2020-07-24T12:22:00Z</time>
      </trkpt>
      <trkpt lat="47.78654" lon="5.35268">
        <ele>307.7</ele>
        <time>2020-07-24T12:22:06Z</time>
      </trkpt>
      <trkpt lat="47.78659" lon="5.35278">
        <ele>309.2</ele>
        <time>2020-07-24T12:22:11Z</time>
      </trkpt>
      <trkpt lat="47.78663" lon="5.35289">
        <ele>309.8</ele>
        <time>2020-07-24T12:22:16Z</time>
      </trkpt>
      <trkpt lat="47.78668" lon="5.353">
        <ele>310.3</ele>
        <time>2020-07-24T12:22:21Z</time>
      </trkpt>
      <trkpt lat="47.78673" lon="5.35312">
        <ele>310.6</ele>
        <time>2020-07-24T12:22:26Z</time>
      </trkpt>
      <trkpt lat="47.78678" lon="5.35322">
        <ele>312</ele>
        <time>2020-07-24T12:22:31Z</time>
      </trkpt>
      <trkpt lat="47.78684" lon="5.3533">
        <ele>314.6</ele>
        <time>2020-07-24T12:22:36Z</time>
      </trkpt>
      <trkpt lat="47.7869" lon="5.3534">
        <ele>316.2</ele>
        <time>2020-07-24T12:22:41Z</time>
      </trkpt>
      <trkpt lat="47.78695" lon="5.35348">
        <ele>316.7</ele>
        <time>2020-07-24T12:22:46Z</time>
      </trkpt>
      <trkpt lat="47.787" lon="5.35359">
        <ele>317.2</ele>
        <time>2020-07-24T12:22:51Z</time>
      </trkpt>
      <trkpt lat="47.78702" lon="5.35371">
        <ele>317.9</ele>
        <time>2020-07-24T12:22:57Z</time>
      </trkpt>
      <trkpt lat="47.78704" lon="5.35383">
        <ele>319</ele>
        <time>2020-07-24T12:23:02Z</time>
      </trkpt>
      <trkpt lat="47.78708" lon="5.35395">
        <ele>321.9</ele>
        <time>2020-07-24T12:23:07Z</time>
      </trkpt>
      <trkpt lat="47.78711" lon="5.35406">
        <ele>323.8</ele>
        <time>2020-07-24T12:23:12Z</time>
      </trkpt>
      <trkpt lat="47.78715" lon="5.35416">
        <ele>325.8</ele>
        <time>2020-07-24T12:23:17Z</time>
      </trkpt>
      <trkpt lat="47.78719" lon="5.35427">
        <ele>326.1</ele>
        <time>2020-07-24T12:23:22Z</time>
      </trkpt>
      <trkpt lat="47.78722" lon="5.35439">
        <ele>327.4</ele>
        <time>2020-07-24T12:23:28Z</time>
      </trkpt>
      <trkpt lat="47.78725" lon="5.35449">
        <ele>328.7</ele>
        <time>2020-07-24T12:23:33Z</time>
      </trkpt>
      <trkpt lat="47.78729" lon="5.3546">
        <ele>330</ele>
        <time>2020-07-24T12:23:38Z</time>
      </trkpt>
      <trkpt lat="47.78732" lon="5.35471">
        <ele>331.1</ele>
        <time>2020-07-24T12:23:43Z</time>
      </trkpt>
      <trkpt lat="47.78735" lon="5.35483">
        <ele>332.8</ele>
        <time>2020-07-24T12:23:48Z</time>
      </trkpt>
      <trkpt lat="47.78737" lon="5.35495">
        <ele>333.6</ele>
        <time>2020-07-24T12:23:53Z</time>
      </trkpt>
      <trkpt lat="47.7874" lon="5.35506">
        <ele>337.4</ele>
        <time>2020-07-24T12:23:58Z</time>
      </trkpt>
      <trkpt lat="47.78741" lon="5.35517">
        <ele>339.9</ele>
        <time>2020-07-24T12:24:03Z</time>
      </trkpt>
      <trkpt lat="47.78742" lon="5.3553">
        <ele>340.3</ele>
        <time>2020-07-24T12:24:08Z</time>
      </trkpt>
      <trkpt lat="47.78743" lon="5.35542">
        <ele>340.2</ele>
        <time>2020-07-24T12:24:13Z</time>
      </trkpt>
      <trkpt lat="47.78745" lon="5.35553">
        <ele>339.1</ele>
        <time>2020-07-24T12:24:18Z</time>
      </trkpt>
      <trkpt lat="47.78747" lon="5.35564">
        <ele>338.3</ele>
        <time>2020-07-24T12:24:23Z</time>
      </trkpt>
      <trkpt lat="47.78748" lon="5.35576">
        <ele>339</ele>
        <time>2020-07-24T12:24:29Z</time>
      </trkpt>
      <trkpt lat="47.7875" lon="5.35586">
        <ele>339.4</ele>
        <time>2020-07-24T12:24:34Z</time>
      </trkpt>
      <trkpt lat="47.78753" lon="5.35599">
        <ele>340.1</ele>
        <time>2020-07-24T12:24:39Z</time>
      </trkpt>
      <trkpt lat="47.78755" lon="5.35611">
        <ele>340.5</ele>
        <time>2020-07-24T12:24:44Z</time>
      </trkpt>
      <trkpt lat="47.78757" lon="5.35622">
        <ele>341.2</ele>
        <time>2020-07-24T12:24:49Z</time>
      </trkpt>
      <trkpt lat="47.7876" lon="5.35632">
        <ele>342.6</ele>
        <time>2020-07-24T12:24:54Z</time>
      </trkpt>
      <trkpt lat="47.78763" lon="5.35644">
        <ele>343.3</ele>
        <time>2020-07-24T12:25:00Z</time>
      </trkpt>
      <trkpt lat="47.78767" lon="5.35656">
        <ele>342.5</ele>
        <time>2020-07-24T12:25:06Z</time>
      </trkpt>
      <trkpt lat="47.7877" lon="5.35668">
        <ele>341.7</ele>
        <time>2020-07-24T12:25:12Z</time>
      </trkpt>
      <trkpt lat="47.78774" lon="5.35679">
        <ele>340.8</ele>
        <time>2020-07-24T12:25:17Z</time>
      </trkpt>
      <trkpt lat="47.78778" lon="5.35691">
        <ele>341.1</ele>
        <time>2020-07-24T12:25:23Z</time>
      </trkpt>
      <trkpt lat="47.7878" lon="5.35702">
        <ele>341.6</ele>
        <time>2020-07-24T12:25:29Z</time>
      </trkpt>
      <trkpt lat="47.78784" lon="5.35713">
        <ele>341</ele>
        <time>2020-07-24T12:25:35Z</time>
      </trkpt>
      <trkpt lat="47.78788" lon="5.35724">
        <ele>341.3</ele>
        <time>2020-07-24T12:25:40Z</time>
      </trkpt>
      <trkpt lat="47.7879" lon="5.35736">
        <ele>341.9</ele>
        <time>2020-07-24T12:25:46Z</time>
      </trkpt>
      <trkpt lat="47.78794" lon="5.35746">
        <ele>343.3</ele>
        <time>2020-07-24T12:25:51Z</time>
      </trkpt>
      <trkpt lat="47.78797" lon="5.35758">
        <ele>344.9</ele>
        <time>2020-07-24T12:25:57Z</time>
      </trkpt>
      <trkpt lat="47.78798" lon="5.3577">
        <ele>346.2</ele>
        <time>2020-07-24T12:26:02Z</time>
      </trkpt>
      <trkpt lat="47.788" lon="5.35782">
        <ele>346.9</ele>
        <time>2020-07-24T12:26:07Z</time>
      </trkpt>
      <trkpt lat="47.78803" lon="5.35793">
        <ele>347.6</ele>
        <time>2020-07-24T12:26:12Z</time>
      </trkpt>
      <trkpt lat="47.78806" lon="5.35804">
        <ele>347</ele>
        <time>2020-07-24T12:26:17Z</time>
      </trkpt>
      <trkpt lat="47.78809" lon="5.35816">
        <ele>347.3</ele>
        <time>2020-07-24T12:26:23Z</time>
      </trkpt>
      <trkpt lat="47.78812" lon="5.35827">
        <ele>347.5</ele>
        <time>2020-07-24T12:26:28Z</time>
      </trkpt>
      <trkpt lat="47.78815" lon="5.35839">
        <ele>348.8</ele>
        <time>2020-07-24T12:26:33Z</time>
      </trkpt>
      <trkpt lat="47.78818" lon="5.35851">
        <ele>349.9</ele>
        <time>2020-07-24T12:26:37Z</time>
      </trkpt>
      <trkpt lat="47.7882" lon="5.35864">
        <ele>350.3</ele>
        <time>2020-07-24T12:26:41Z</time>
      </trkpt>
      <trkpt lat="47.78822" lon="5.35877">
        <ele>349.7</ele>
        <time>2020-07-24T12:26:45Z</time>
      </trkpt>
      <trkpt lat="47.78825" lon="5.35892">
        <ele>349.7</ele>
        <time>2020-07-24T12:26:49Z</time>
      </trkpt>
      <trkpt lat="47.78829" lon="5.35907">
        <ele>351.6</ele>
        <time>2020-07-24T12:26:53Z</time>
      </trkpt>
      <trkpt lat="47.78832" lon="5.35922">
        <ele>353.5</ele>
        <time>2020-07-24T12:26:57Z</time>
      </trkpt>
      <trkpt lat="47.78836" lon="5.35939">
        <ele>354.7</ele>
        <time>2020-07-24T12:27:01Z</time>
      </trkpt>
      <trkpt lat="47.7884" lon="5.35958">
        <ele>353.9</ele>
        <time>2020-07-24T12:27:06Z</time>
      </trkpt>
      <trkpt lat="47.78843" lon="5.35973">
        <ele>353.9</ele>
        <time>2020-07-24T12:27:10Z</time>
      </trkpt>
      <trkpt lat="47.78848" lon="5.35986">
        <ele>354.1</ele>
        <time>2020-07-24T12:27:14Z</time>
      </trkpt>
      <trkpt lat="47.78851" lon="5.36">
        <ele>353.4</ele>
        <time>2020-07-24T12:27:18Z</time>
      </trkpt>
      <trkpt lat="47.78855" lon="5.36014">
        <ele>352.3</ele>
        <time>2020-07-24T12:27:22Z</time>
      </trkpt>
      <trkpt lat="47.78858" lon="5.36029">
        <ele>353.1</ele>
        <time>2020-07-24T12:27:26Z</time>
      </trkpt>
      <trkpt lat="47.78862" lon="5.36047">
        <ele>353.5</ele>
        <time>2020-07-24T12:27:31Z</time>
      </trkpt>
      <trkpt lat="47.78866" lon="5.36062">
        <ele>354.4</ele>
        <time>2020-07-24T12:27:35Z</time>
      </trkpt>
      <trkpt lat="47.7887" lon="5.36078">
        <ele>357.5</ele>
        <time>2020-07-24T12:27:39Z</time>
      </trkpt>
      <trkpt lat="47.78875" lon="5.36097">
        <ele>359.4</ele>
        <time>2020-07-24T12:27:44Z</time>
      </trkpt>
      <trkpt lat="47.78879" lon="5.36115">
        <ele>358.7</ele>
        <time>2020-07-24T12:27:48Z</time>
      </trkpt>
      <trkpt lat="47.78883" lon="5.36132">
        <ele>358.5</ele>
        <time>2020-07-24T12:27:52Z</time>
      </trkpt>
      <trkpt lat="47.78887" lon="5.36147">
        <ele>357.8</ele>
        <time>2020-07-24T12:27:56Z</time>
      </trkpt>
      <trkpt lat="47.7889" lon="5.36163">
        <ele>358.4</ele>
        <time>2020-07-24T12:28:00Z</time>
      </trkpt>
      <trkpt lat="47.78895" lon="5.36183">
        <ele>359.4</ele>
        <time>2020-07-24T12:28:05Z</time>
      </trkpt>
      <trkpt lat="47.78899" lon="5.36199">
        <ele>359.6</ele>
        <time>2020-07-24T12:28:09Z</time>
      </trkpt>
      <trkpt lat="47.78904" lon="5.36217">
        <ele>359.4</ele>
        <time>2020-07-24T12:28:14Z</time>
      </trkpt>
      <trkpt lat="47.78908" lon="5.36231">
        <ele>358.4</ele>
        <time>2020-07-24T12:28:18Z</time>
      </trkpt>
      <trkpt lat="47.78912" lon="5.36246">
        <ele>358.2</ele>
        <time>2020-07-24T12:28:22Z</time>
      </trkpt>
      <trkpt lat="47.78917" lon="5.36265">
        <ele>358.6</ele>
        <time>2020-07-24T12:28:27Z</time>
      </trkpt>
      <trkpt lat="47.7892" lon="5.36283">
        <ele>358.2</ele>
        <time>2020-07-24T12:28:31Z</time>
      </trkpt>
      <trkpt lat="47.78913" lon="5.36296">
        <ele>356.9</ele>
        <time>2020-07-24T12:28:35Z</time>
      </trkpt>
      <trkpt lat="47.789" lon="5.36294">
        <ele>356</ele>
        <time>2020-07-24T12:28:39Z</time>
      </trkpt>
      <trkpt lat="47.78889" lon="5.3629">
        <ele>355.8</ele>
        <time>2020-07-24T12:28:43Z</time>
      </trkpt>
      <trkpt lat="47.78878" lon="5.36286">
        <ele>354.9</ele>
        <time>2020-07-24T12:28:47Z</time>
      </trkpt>
      <trkpt lat="47.78865" lon="5.36284">
        <ele>357.8</ele>
        <time>2020-07-24T12:28:51Z</time>
      </trkpt>
      <trkpt lat="47.78854" lon="5.36281">
        <ele>357.9</ele>
        <time>2020-07-24T12:28:55Z</time>
      </trkpt>
      <trkpt lat="47.78843" lon="5.36278">
        <ele>358.4</ele>
        <time>2020-07-24T12:28:59Z</time>
      </trkpt>
      <trkpt lat="47.78833" lon="5.36273">
        <ele>358.9</ele>
        <time>2020-07-24T12:29:03Z</time>
      </trkpt>
      <trkpt lat="47.78823" lon="5.36268">
        <ele>359.1</ele>
        <time>2020-07-24T12:29:07Z</time>
      </trkpt>
      <trkpt lat="47.78813" lon="5.36263">
        <ele>361.1</ele>
        <time>2020-07-24T12:29:11Z</time>
      </trkpt>
      <trkpt lat="47.78803" lon="5.36257">
        <ele>360.5</ele>
        <time>2020-07-24T12:29:15Z</time>
      </trkpt>
      <trkpt lat="47.78789" lon="5.36247">
        <ele>361</ele>
        <time>2020-07-24T12:29:20Z</time>
      </trkpt>
      <trkpt lat="47.78776" lon="5.36237">
        <ele>362.9</ele>
        <time>2020-07-24T12:29:24Z</time>
      </trkpt>
      <trkpt lat="47.78763" lon="5.36227">
        <ele>362.6</ele>
        <time>2020-07-24T12:29:28Z</time>
      </trkpt>
      <trkpt lat="47.7875" lon="5.36217">
        <ele>362</ele>
        <time>2020-07-24T12:29:32Z</time>
      </trkpt>
      <trkpt lat="47.78734" lon="5.36205">
        <ele>363</ele>
        <time>2020-07-24T12:29:37Z</time>
      </trkpt>
      <trkpt lat="47.78717" lon="5.36191">
        <ele>360</ele>
        <time>2020-07-24T12:29:42Z</time>
      </trkpt>
      <trkpt lat="47.78703" lon="5.36181">
        <ele>359.5</ele>
        <time>2020-07-24T12:29:46Z</time>
      </trkpt>
      <trkpt lat="47.78685" lon="5.36166">
        <ele>357.8</ele>
        <time>2020-07-24T12:29:51Z</time>
      </trkpt>
      <trkpt lat="47.78671" lon="5.36155">
        <ele>357.1</ele>
        <time>2020-07-24T12:29:55Z</time>
      </trkpt>
      <trkpt lat="47.78652" lon="5.3614">
        <ele>356.2</ele>
        <time>2020-07-24T12:30:00Z</time>
      </trkpt>
      <trkpt lat="47.78638" lon="5.36129">
        <ele>356.4</ele>
        <time>2020-07-24T12:30:04Z</time>
      </trkpt>
      <trkpt lat="47.78618" lon="5.36115">
        <ele>357.8</ele>
        <time>2020-07-24T12:30:09Z</time>
      </trkpt>
      <trkpt lat="47.78601" lon="5.36103">
        <ele>358.5</ele>
        <time>2020-07-24T12:30:13Z</time>
      </trkpt>
      <trkpt lat="47.78578" lon="5.3609">
        <ele>359.6</ele>
        <time>2020-07-24T12:30:18Z</time>
      </trkpt>
      <trkpt lat="47.78557" lon="5.36081">
        <ele>359.8</ele>
        <time>2020-07-24T12:30:22Z</time>
      </trkpt>
      <trkpt lat="47.78533" lon="5.3607">
        <ele>359</ele>
        <time>2020-07-24T12:30:26Z</time>
      </trkpt>
      <trkpt lat="47.785" lon="5.36056">
        <ele>358.1</ele>
        <time>2020-07-24T12:30:31Z</time>
      </trkpt>
      <trkpt lat="47.78472" lon="5.36044">
        <ele>358.1</ele>
        <time>2020-07-24T12:30:35Z</time>
      </trkpt>
      <trkpt lat="47.78444" lon="5.36031">
        <ele>356.6</ele>
        <time>2020-07-24T12:30:39Z</time>
      </trkpt>
      <trkpt lat="47.78413" lon="5.36015">
        <ele>355.7</ele>
        <time>2020-07-24T12:30:44Z</time>
      </trkpt>
      <trkpt lat="47.78392" lon="5.36006">
        <ele>356</ele>
        <time>2020-07-24T12:30:48Z</time>
      </trkpt>
      <trkpt lat="47.78377" lon="5.35998">
        <ele>355.4</ele>
        <time>2020-07-24T12:30:52Z</time>
      </trkpt>
      <trkpt lat="47.78358" lon="5.3599">
        <ele>357.3</ele>
        <time>2020-07-24T12:30:57Z</time>
      </trkpt>
      <trkpt lat="47.7834" lon="5.35983">
        <ele>356.5</ele>
        <time>2020-07-24T12:31:02Z</time>
      </trkpt>
      <trkpt lat="47.78324" lon="5.35981">
        <ele>356.2</ele>
        <time>2020-07-24T12:31:06Z</time>
      </trkpt>
      <trkpt lat="47.783" lon="5.3598">
        <ele>356.6</ele>
        <time>2020-07-24T12:31:11Z</time>
      </trkpt>
      <trkpt lat="47.78268" lon="5.3598">
        <ele>356.5</ele>
        <time>2020-07-24T12:31:16Z</time>
      </trkpt>
      <trkpt lat="47.78237" lon="5.35978">
        <ele>355</ele>
        <time>2020-07-24T12:31:20Z</time>
      </trkpt>
      <trkpt lat="47.78202" lon="5.35972">
        <ele>353.5</ele>
        <time>2020-07-24T12:31:24Z</time>
      </trkpt>
      <trkpt lat="47.78165" lon="5.35963">
        <ele>353.8</ele>
        <time>2020-07-24T12:31:28Z</time>
      </trkpt>
      <trkpt lat="47.78128" lon="5.35957">
        <ele>349.4</ele>
        <time>2020-07-24T12:31:32Z</time>
      </trkpt>
      <trkpt lat="47.78089" lon="5.35969">
        <ele>349</ele>
        <time>2020-07-24T12:31:37Z</time>
      </trkpt>
      <trkpt lat="47.78065" lon="5.3599">
        <ele>345.9</ele>
        <time>2020-07-24T12:31:41Z</time>
      </trkpt>
      <trkpt lat="47.78044" lon="5.36011">
        <ele>345</ele>
        <time>2020-07-24T12:31:45Z</time>
      </trkpt>
      <trkpt lat="47.78023" lon="5.36031">
        <ele>347.4</ele>
        <time>2020-07-24T12:31:49Z</time>
      </trkpt>
      <trkpt lat="47.77992" lon="5.36051">
        <ele>346.3</ele>
        <time>2020-07-24T12:31:54Z</time>
      </trkpt>
      <trkpt lat="47.77953" lon="5.36063">
        <ele>342.9</ele>
        <time>2020-07-24T12:31:59Z</time>
      </trkpt>
      <trkpt lat="47.7792" lon="5.36076">
        <ele>341.9</ele>
        <time>2020-07-24T12:32:03Z</time>
      </trkpt>
      <trkpt lat="47.77887" lon="5.36102">
        <ele>338.8</ele>
        <time>2020-07-24T12:32:07Z</time>
      </trkpt>
      <trkpt lat="47.77857" lon="5.36134">
        <ele>338.1</ele>
        <time>2020-07-24T12:32:11Z</time>
      </trkpt>
      <trkpt lat="47.77827" lon="5.36161">
        <ele>338.1</ele>
        <time>2020-07-24T12:32:15Z</time>
      </trkpt>
      <trkpt lat="47.77792" lon="5.36167">
        <ele>334.7</ele>
        <time>2020-07-24T12:32:19Z</time>
      </trkpt>
      <trkpt lat="47.77753" lon="5.3615">
        <ele>330.5</ele>
        <time>2020-07-24T12:32:24Z</time>
      </trkpt>
      <trkpt lat="47.77726" lon="5.36123">
        <ele>328.4</ele>
        <time>2020-07-24T12:32:28Z</time>
      </trkpt>
      <trkpt lat="47.77701" lon="5.36071">
        <ele>326</ele>
        <time>2020-07-24T12:32:33Z</time>
      </trkpt>
      <trkpt lat="47.77679" lon="5.3602">
        <ele>323.1</ele>
        <time>2020-07-24T12:32:38Z</time>
      </trkpt>
      <trkpt lat="47.7766" lon="5.3598">
        <ele>320.9</ele>
        <time>2020-07-24T12:32:42Z</time>
      </trkpt>
      <trkpt lat="47.77637" lon="5.35931">
        <ele>319.3</ele>
        <time>2020-07-24T12:32:47Z</time>
      </trkpt>
      <trkpt lat="47.77606" lon="5.35894">
        <ele>319.9</ele>
        <time>2020-07-24T12:32:52Z</time>
      </trkpt>
      <trkpt lat="47.77579" lon="5.35886">
        <ele>317.3</ele>
        <time>2020-07-24T12:32:56Z</time>
      </trkpt>
      <trkpt lat="47.77541" lon="5.35904">
        <ele>315</ele>
        <time>2020-07-24T12:33:01Z</time>
      </trkpt>
      <trkpt lat="47.77509" lon="5.3593">
        <ele>314.2</ele>
        <time>2020-07-24T12:33:05Z</time>
      </trkpt>
      <trkpt lat="47.77473" lon="5.3597">
        <ele>312.2</ele>
        <time>2020-07-24T12:33:10Z</time>
      </trkpt>
      <trkpt lat="47.77451" lon="5.35992">
        <ele>309.4</ele>
        <time>2020-07-24T12:33:14Z</time>
      </trkpt>
      <trkpt lat="47.77431" lon="5.36035">
        <ele>306.6</ele>
        <time>2020-07-24T12:33:19Z</time>
      </trkpt>
      <trkpt lat="47.77413" lon="5.36077">
        <ele>303.4</ele>
        <time>2020-07-24T12:33:23Z</time>
      </trkpt>
      <trkpt lat="47.77393" lon="5.36114">
        <ele>302.1</ele>
        <time>2020-07-24T12:33:27Z</time>
      </trkpt>
      <trkpt lat="47.77363" lon="5.36138">
        <ele>299.4</ele>
        <time>2020-07-24T12:33:32Z</time>
      </trkpt>
      <trkpt lat="47.7734" lon="5.36157">
        <ele>295.7</ele>
        <time>2020-07-24T12:33:36Z</time>
      </trkpt>
      <trkpt lat="47.7732" lon="5.36173">
        <ele>290.1</ele>
        <time>2020-07-24T12:33:41Z</time>
      </trkpt>
      <trkpt lat="47.77304" lon="5.36175">
        <ele>288.5</ele>
        <time>2020-07-24T12:33:46Z</time>
      </trkpt>
      <trkpt lat="47.77293" lon="5.36158">
        <ele>287.2</ele>
        <time>2020-07-24T12:33:50Z</time>
      </trkpt>
      <trkpt lat="47.7728" lon="5.36139">
        <ele>288.1</ele>
        <time>2020-07-24T12:33:54Z</time>
      </trkpt>
      <trkpt lat="47.77264" lon="5.36118">
        <ele>288.8</ele>
        <time>2020-07-24T12:33:59Z</time>
      </trkpt>
      <trkpt lat="47.77254" lon="5.36102">
        <ele>288.8</ele>
        <time>2020-07-24T12:34:03Z</time>
      </trkpt>
      <trkpt lat="47.77241" lon="5.3608">
        <ele>289.4</ele>
        <time>2020-07-24T12:34:08Z</time>
      </trkpt>
      <trkpt lat="47.77227" lon="5.36064">
        <ele>290.1</ele>
        <time>2020-07-24T12:34:12Z</time>
      </trkpt>
      <trkpt lat="47.77213" lon="5.3605">
        <ele>291.1</ele>
        <time>2020-07-24T12:34:16Z</time>
      </trkpt>
      <trkpt lat="47.77198" lon="5.36036">
        <ele>289.8</ele>
        <time>2020-07-24T12:34:21Z</time>
      </trkpt>
      <trkpt lat="47.77178" lon="5.36023">
        <ele>290.9</ele>
        <time>2020-07-24T12:34:26Z</time>
      </trkpt>
      <trkpt lat="47.77157" lon="5.36007">
        <ele>291.2</ele>
        <time>2020-07-24T12:34:31Z</time>
      </trkpt>
      <trkpt lat="47.77138" lon="5.35994">
        <ele>291.2</ele>
        <time>2020-07-24T12:34:35Z</time>
      </trkpt>
      <trkpt lat="47.77117" lon="5.35979">
        <ele>291.1</ele>
        <time>2020-07-24T12:34:40Z</time>
      </trkpt>
      <trkpt lat="47.77102" lon="5.35966">
        <ele>288.9</ele>
        <time>2020-07-24T12:34:44Z</time>
      </trkpt>
      <trkpt lat="47.77088" lon="5.35955">
        <ele>288.9</ele>
        <time>2020-07-24T12:34:48Z</time>
      </trkpt>
      <trkpt lat="47.77068" lon="5.35943">
        <ele>285.5</ele>
        <time>2020-07-24T12:34:53Z</time>
      </trkpt>
      <trkpt lat="47.77047" lon="5.35932">
        <ele>287.8</ele>
        <time>2020-07-24T12:34:58Z</time>
      </trkpt>
      <trkpt lat="47.7703" lon="5.35925">
        <ele>290.8</ele>
        <time>2020-07-24T12:35:02Z</time>
      </trkpt>
      <trkpt lat="47.77012" lon="5.35918">
        <ele>292.4</ele>
        <time>2020-07-24T12:35:06Z</time>
      </trkpt>
      <trkpt lat="47.76992" lon="5.35912">
        <ele>291.4</ele>
        <time>2020-07-24T12:35:10Z</time>
      </trkpt>
      <trkpt lat="47.76963" lon="5.35904">
        <ele>290.8</ele>
        <time>2020-07-24T12:35:15Z</time>
      </trkpt>
      <trkpt lat="47.76937" lon="5.35897">
        <ele>289.6</ele>
        <time>2020-07-24T12:35:19Z</time>
      </trkpt>
      <trkpt lat="47.76913" lon="5.35895">
        <ele>287.9</ele>
        <time>2020-07-24T12:35:23Z</time>
      </trkpt>
      <trkpt lat="47.76893" lon="5.35903">
        <ele>287.1</ele>
        <time>2020-07-24T12:35:27Z</time>
      </trkpt>
      <trkpt lat="47.76878" lon="5.35912">
        <ele>287.3</ele>
        <time>2020-07-24T12:35:31Z</time>
      </trkpt>
      <trkpt lat="47.7686" lon="5.3589">
        <ele>288.7</ele>
        <time>2020-07-24T12:35:36Z</time>
      </trkpt>
      <trkpt lat="47.76843" lon="5.35865">
        <ele>287.9</ele>
        <time>2020-07-24T12:35:40Z</time>
      </trkpt>
      <trkpt lat="47.76826" lon="5.35836">
        <ele>284.3</ele>
        <time>2020-07-24T12:35:44Z</time>
      </trkpt>
      <trkpt lat="47.76811" lon="5.35805">
        <ele>284.3</ele>
        <time>2020-07-24T12:35:48Z</time>
      </trkpt>
      <trkpt lat="47.76797" lon="5.35776">
        <ele>285.4</ele>
        <time>2020-07-24T12:35:52Z</time>
      </trkpt>
      <trkpt lat="47.76786" lon="5.35746">
        <ele>284.5</ele>
        <time>2020-07-24T12:35:56Z</time>
      </trkpt>
      <trkpt lat="47.76774" lon="5.35717">
        <ele>285</ele>
        <time>2020-07-24T12:36:00Z</time>
      </trkpt>
      <trkpt lat="47.76764" lon="5.35691">
        <ele>284</ele>
        <time>2020-07-24T12:36:04Z</time>
      </trkpt>
      <trkpt lat="47.76752" lon="5.35665">
        <ele>284.9</ele>
        <time>2020-07-24T12:36:08Z</time>
      </trkpt>
      <trkpt lat="47.76738" lon="5.35632">
        <ele>284.4</ele>
        <time>2020-07-24T12:36:13Z</time>
      </trkpt>
      <trkpt lat="47.76727" lon="5.35607">
        <ele>285.7</ele>
        <time>2020-07-24T12:36:17Z</time>
      </trkpt>
      <trkpt lat="47.76713" lon="5.35577">
        <ele>285.2</ele>
        <time>2020-07-24T12:36:22Z</time>
      </trkpt>
      <trkpt lat="47.76702" lon="5.35554">
        <ele>285</ele>
        <time>2020-07-24T12:36:26Z</time>
      </trkpt>
      <trkpt lat="47.76688" lon="5.35524">
        <ele>283.7</ele>
        <time>2020-07-24T12:36:31Z</time>
      </trkpt>
      <trkpt lat="47.76676" lon="5.35491">
        <ele>280.2</ele>
        <time>2020-07-24T12:36:36Z</time>
      </trkpt>
      <trkpt lat="47.76663" lon="5.35459">
        <ele>278.3</ele>
        <time>2020-07-24T12:36:40Z</time>
      </trkpt>
      <trkpt lat="47.76643" lon="5.35416">
        <ele>277.9</ele>
        <time>2020-07-24T12:36:45Z</time>
      </trkpt>
      <trkpt lat="47.76624" lon="5.35373">
        <ele>277.8</ele>
        <time>2020-07-24T12:36:50Z</time>
      </trkpt>
      <trkpt lat="47.7661" lon="5.35341">
        <ele>276.3</ele>
        <time>2020-07-24T12:36:54Z</time>
      </trkpt>
      <trkpt lat="47.76598" lon="5.35311">
        <ele>277.7</ele>
        <time>2020-07-24T12:36:58Z</time>
      </trkpt>
      <trkpt lat="47.76584" lon="5.35275">
        <ele>278.4</ele>
        <time>2020-07-24T12:37:03Z</time>
      </trkpt>
      <trkpt lat="47.76572" lon="5.35248">
        <ele>278.5</ele>
        <time>2020-07-24T12:37:07Z</time>
      </trkpt>
      <trkpt lat="47.7656" lon="5.35221">
        <ele>278.1</ele>
        <time>2020-07-24T12:37:11Z</time>
      </trkpt>
      <trkpt lat="47.76548" lon="5.35194">
        <ele>279.9</ele>
        <time>2020-07-24T12:37:15Z</time>
      </trkpt>
      <trkpt lat="47.76531" lon="5.35164">
        <ele>281.6</ele>
        <time>2020-07-24T12:37:20Z</time>
      </trkpt>
      <trkpt lat="47.76518" lon="5.35142">
        <ele>279.7</ele>
        <time>2020-07-24T12:37:24Z</time>
      </trkpt>
      <trkpt lat="47.76503" lon="5.35121">
        <ele>279.9</ele>
        <time>2020-07-24T12:37:28Z</time>
      </trkpt>
      <trkpt lat="47.76487" lon="5.35094">
        <ele>279.3</ele>
        <time>2020-07-24T12:37:33Z</time>
      </trkpt>
      <trkpt lat="47.76471" lon="5.35067">
        <ele>277.9</ele>
        <time>2020-07-24T12:37:38Z</time>
      </trkpt>
      <trkpt lat="47.76458" lon="5.35039">
        <ele>274.8</ele>
        <time>2020-07-24T12:37:42Z</time>
      </trkpt>
      <trkpt lat="47.7644" lon="5.35008">
        <ele>271.2</ele>
        <time>2020-07-24T12:37:46Z</time>
      </trkpt>
      <trkpt lat="47.7642" lon="5.34976">
        <ele>269.9</ele>
        <time>2020-07-24T12:37:50Z</time>
      </trkpt>
      <trkpt lat="47.76401" lon="5.34946">
        <ele>271.2</ele>
        <time>2020-07-24T12:37:54Z</time>
      </trkpt>
      <trkpt lat="47.76378" lon="5.34914">
        <ele>270.2</ele>
        <time>2020-07-24T12:37:59Z</time>
      </trkpt>
      <trkpt lat="47.76355" lon="5.34886">
        <ele>270.9</ele>
        <time>2020-07-24T12:38:04Z</time>
      </trkpt>
      <trkpt lat="47.76336" lon="5.34868">
        <ele>274.1</ele>
        <time>2020-07-24T12:38:08Z</time>
      </trkpt>
      <trkpt lat="47.76312" lon="5.34848">
        <ele>273.8</ele>
        <time>2020-07-24T12:38:13Z</time>
      </trkpt>
      <trkpt lat="47.76287" lon="5.34831">
        <ele>272.7</ele>
        <time>2020-07-24T12:38:18Z</time>
      </trkpt>
      <trkpt lat="47.76267" lon="5.34822">
        <ele>272.7</ele>
        <time>2020-07-24T12:38:22Z</time>
      </trkpt>
      <trkpt lat="47.76248" lon="5.34813">
        <ele>271</ele>
        <time>2020-07-24T12:38:26Z</time>
      </trkpt>
      <trkpt lat="47.76228" lon="5.34804">
        <ele>270.7</ele>
        <time>2020-07-24T12:38:30Z</time>
      </trkpt>
      <trkpt lat="47.76201" lon="5.34794">
        <ele>271.5</ele>
        <time>2020-07-24T12:38:35Z</time>
      </trkpt>
      <trkpt lat="47.76174" lon="5.34784">
        <ele>271.9</ele>
        <time>2020-07-24T12:38:40Z</time>
      </trkpt>
      <trkpt lat="47.76155" lon="5.34774">
        <ele>268.3</ele>
        <time>2020-07-24T12:38:44Z</time>
      </trkpt>
      <trkpt lat="47.76141" lon="5.34764">
        <ele>266.8</ele>
        <time>2020-07-24T12:38:48Z</time>
      </trkpt>
      <trkpt lat="47.76114" lon="5.34755">
        <ele>264.4</ele>
        <time>2020-07-24T12:38:53Z</time>
      </trkpt>
      <trkpt lat="47.76088" lon="5.34745">
        <ele>264.8</ele>
        <time>2020-07-24T12:38:57Z</time>
      </trkpt>
      <trkpt lat="47.7606" lon="5.34735">
        <ele>266.6</ele>
        <time>2020-07-24T12:39:01Z</time>
      </trkpt>
      <trkpt lat="47.76028" lon="5.34721">
        <ele>267.3</ele>
        <time>2020-07-24T12:39:06Z</time>
      </trkpt>
      <trkpt lat="47.76003" lon="5.3471">
        <ele>268.6</ele>
        <time>2020-07-24T12:39:10Z</time>
      </trkpt>
      <trkpt lat="47.75973" lon="5.34697">
        <ele>267.9</ele>
        <time>2020-07-24T12:39:15Z</time>
      </trkpt>
      <trkpt lat="47.75951" lon="5.34688">
        <ele>269</ele>
        <time>2020-07-24T12:39:19Z</time>
      </trkpt>
      <trkpt lat="47.7593" lon="5.34677">
        <ele>270.2</ele>
        <time>2020-07-24T12:39:23Z</time>
      </trkpt>
      <trkpt lat="47.75911" lon="5.34666">
        <ele>270.7</ele>
        <time>2020-07-24T12:39:27Z</time>
      </trkpt>
      <trkpt lat="47.75891" lon="5.34655">
        <ele>272.2</ele>
        <time>2020-07-24T12:39:31Z</time>
      </trkpt>
      <trkpt lat="47.75866" lon="5.34642">
        <ele>271.7</ele>
        <time>2020-07-24T12:39:36Z</time>
      </trkpt>
      <trkpt lat="47.75846" lon="5.34632">
        <ele>270.2</ele>
        <time>2020-07-24T12:39:40Z</time>
      </trkpt>
      <trkpt lat="47.75826" lon="5.34622">
        <ele>269.8</ele>
        <time>2020-07-24T12:39:44Z</time>
      </trkpt>
      <trkpt lat="47.75808" lon="5.34609">
        <ele>268.6</ele>
        <time>2020-07-24T12:39:48Z</time>
      </trkpt>
      <trkpt lat="47.75779" lon="5.34589">
        <ele>267.2</ele>
        <time>2020-07-24T12:39:53Z</time>
      </trkpt>
      <trkpt lat="47.75752" lon="5.34575">
        <ele>265.1</ele>
        <time>2020-07-24T12:39:57Z</time>
      </trkpt>
      <trkpt lat="47.75724" lon="5.34555">
        <ele>263.2</ele>
        <time>2020-07-24T12:40:01Z</time>
      </trkpt>
      <trkpt lat="47.75696" lon="5.34528">
        <ele>262</ele>
        <time>2020-07-24T12:40:06Z</time>
      </trkpt>
      <trkpt lat="47.75677" lon="5.34506">
        <ele>261.7</ele>
        <time>2020-07-24T12:40:10Z</time>
      </trkpt>
      <trkpt lat="47.7566" lon="5.34483">
        <ele>261.1</ele>
        <time>2020-07-24T12:40:14Z</time>
      </trkpt>
      <trkpt lat="47.75643" lon="5.34452">
        <ele>261.9</ele>
        <time>2020-07-24T12:40:19Z</time>
      </trkpt>
      <trkpt lat="47.75631" lon="5.34427">
        <ele>263</ele>
        <time>2020-07-24T12:40:23Z</time>
      </trkpt>
      <trkpt lat="47.75617" lon="5.34398">
        <ele>262.1</ele>
        <time>2020-07-24T12:40:28Z</time>
      </trkpt>
      <trkpt lat="47.75606" lon="5.34372">
        <ele>260.3</ele>
        <time>2020-07-24T12:40:32Z</time>
      </trkpt>
      <trkpt lat="47.75593" lon="5.34342">
        <ele>260.1</ele>
        <time>2020-07-24T12:40:37Z</time>
      </trkpt>
      <trkpt lat="47.75582" lon="5.34319">
        <ele>261</ele>
        <time>2020-07-24T12:40:41Z</time>
      </trkpt>
      <trkpt lat="47.75568" lon="5.34289">
        <ele>262.4</ele>
        <time>2020-07-24T12:40:46Z</time>
      </trkpt>
      <trkpt lat="47.75556" lon="5.34254">
        <ele>263.2</ele>
        <time>2020-07-24T12:40:51Z</time>
      </trkpt>
      <trkpt lat="47.7554" lon="5.34215">
        <ele>261</ele>
        <time>2020-07-24T12:40:56Z</time>
      </trkpt>
      <trkpt lat="47.75524" lon="5.34181">
        <ele>259.5</ele>
        <time>2020-07-24T12:41:00Z</time>
      </trkpt>
      <trkpt lat="47.75504" lon="5.34139">
        <ele>259</ele>
        <time>2020-07-24T12:41:05Z</time>
      </trkpt>
      <trkpt lat="47.7549" lon="5.34108">
        <ele>258</ele>
        <time>2020-07-24T12:41:09Z</time>
      </trkpt>
      <trkpt lat="47.75473" lon="5.34072">
        <ele>257.9</ele>
        <time>2020-07-24T12:41:14Z</time>
      </trkpt>
      <trkpt lat="47.75456" lon="5.34038">
        <ele>257.3</ele>
        <time>2020-07-24T12:41:19Z</time>
      </trkpt>
      <trkpt lat="47.75442" lon="5.34012">
        <ele>257.4</ele>
        <time>2020-07-24T12:41:23Z</time>
      </trkpt>
      <trkpt lat="47.7543" lon="5.33988">
        <ele>258.3</ele>
        <time>2020-07-24T12:41:27Z</time>
      </trkpt>
      <trkpt lat="47.75414" lon="5.33961">
        <ele>259.2</ele>
        <time>2020-07-24T12:41:32Z</time>
      </trkpt>
      <trkpt lat="47.75401" lon="5.33941">
        <ele>259.9</ele>
        <time>2020-07-24T12:41:36Z</time>
      </trkpt>
      <trkpt lat="47.75385" lon="5.33914">
        <ele>259.4</ele>
        <time>2020-07-24T12:41:41Z</time>
      </trkpt>
      <trkpt lat="47.75372" lon="5.33894">
        <ele>259.1</ele>
        <time>2020-07-24T12:41:45Z</time>
      </trkpt>
      <trkpt lat="47.75356" lon="5.33868">
        <ele>258</ele>
        <time>2020-07-24T12:41:50Z</time>
      </trkpt>
      <trkpt lat="47.75343" lon="5.33848">
        <ele>256.6</ele>
        <time>2020-07-24T12:41:54Z</time>
      </trkpt>
      <trkpt lat="47.75325" lon="5.33823">
        <ele>256.1</ele>
        <time>2020-07-24T12:41:59Z</time>
      </trkpt>
      <trkpt lat="47.75311" lon="5.33804">
        <ele>255.3</ele>
        <time>2020-07-24T12:42:03Z</time>
      </trkpt>
      <trkpt lat="47.75297" lon="5.33784">
        <ele>256.8</ele>
        <time>2020-07-24T12:42:07Z</time>
      </trkpt>
      <trkpt lat="47.75281" lon="5.3376">
        <ele>258.7</ele>
        <time>2020-07-24T12:42:12Z</time>
      </trkpt>
      <trkpt lat="47.75265" lon="5.33733">
        <ele>258.8</ele>
        <time>2020-07-24T12:42:17Z</time>
      </trkpt>
      <trkpt lat="47.75252" lon="5.33709">
        <ele>256.4</ele>
        <time>2020-07-24T12:42:21Z</time>
      </trkpt>
      <trkpt lat="47.75236" lon="5.33683">
        <ele>254.9</ele>
        <time>2020-07-24T12:42:25Z</time>
      </trkpt>
      <trkpt lat="47.75217" lon="5.33654">
        <ele>253.4</ele>
        <time>2020-07-24T12:42:29Z</time>
      </trkpt>
      <trkpt lat="47.75192" lon="5.33618">
        <ele>253.1</ele>
        <time>2020-07-24T12:42:34Z</time>
      </trkpt>
      <trkpt lat="47.75174" lon="5.33591">
        <ele>253.4</ele>
        <time>2020-07-24T12:42:38Z</time>
      </trkpt>
      <trkpt lat="47.75153" lon="5.33561">
        <ele>254.2</ele>
        <time>2020-07-24T12:42:43Z</time>
      </trkpt>
      <trkpt lat="47.75138" lon="5.33538">
        <ele>254</ele>
        <time>2020-07-24T12:42:47Z</time>
      </trkpt>
      <trkpt lat="47.75118" lon="5.33509">
        <ele>254</ele>
        <time>2020-07-24T12:42:52Z</time>
      </trkpt>
      <trkpt lat="47.75105" lon="5.33487">
        <ele>253.8</ele>
        <time>2020-07-24T12:42:56Z</time>
      </trkpt>
      <trkpt lat="47.75087" lon="5.3346">
        <ele>253</ele>
        <time>2020-07-24T12:43:01Z</time>
      </trkpt>
      <trkpt lat="47.75074" lon="5.33441">
        <ele>253.7</ele>
        <time>2020-07-24T12:43:05Z</time>
      </trkpt>
      <trkpt lat="47.7506" lon="5.33423">
        <ele>252.3</ele>
        <time>2020-07-24T12:43:09Z</time>
      </trkpt>
      <trkpt lat="47.75042" lon="5.33398">
        <ele>252.5</ele>
        <time>2020-07-24T12:43:14Z</time>
      </trkpt>
      <trkpt lat="47.75024" lon="5.33376">
        <ele>252.9</ele>
        <time>2020-07-24T12:43:19Z</time>
      </trkpt>
      <trkpt lat="47.75009" lon="5.33357">
        <ele>253.8</ele>
        <time>2020-07-24T12:43:23Z</time>
      </trkpt>
      <trkpt lat="47.74995" lon="5.33339">
        <ele>254.4</ele>
        <time>2020-07-24T12:43:27Z</time>
      </trkpt>
      <trkpt lat="47.7498" lon="5.33321">
        <ele>255</ele>
        <time>2020-07-24T12:43:31Z</time>
      </trkpt>
      <trkpt lat="47.74964" lon="5.333">
        <ele>256.4</ele>
        <time>2020-07-24T12:43:36Z</time>
      </trkpt>
      <trkpt lat="47.7495" lon="5.33284">
        <ele>255.8</ele>
        <time>2020-07-24T12:43:40Z</time>
      </trkpt>
      <trkpt lat="47.74931" lon="5.33262">
        <ele>256.5</ele>
        <time>2020-07-24T12:43:45Z</time>
      </trkpt>
      <trkpt lat="47.7492" lon="5.33244">
        <ele>255.3</ele>
        <time>2020-07-24T12:43:49Z</time>
      </trkpt>
      <trkpt lat="47.74911" lon="5.33242">
        <ele>254.6</ele>
        <time>2020-07-24T12:43:53Z</time>
      </trkpt>
      <trkpt lat="47.74901" lon="5.33256">
        <ele>253.3</ele>
        <time>2020-07-24T12:43:57Z</time>
      </trkpt>
      <trkpt lat="47.74884" lon="5.33247">
        <ele>250.5</ele>
        <time>2020-07-24T12:44:02Z</time>
      </trkpt>
      <trkpt lat="47.74867" lon="5.33224">
        <ele>249.1</ele>
        <time>2020-07-24T12:44:06Z</time>
      </trkpt>
      <trkpt lat="47.7485" lon="5.332">
        <ele>248.8</ele>
        <time>2020-07-24T12:44:10Z</time>
      </trkpt>
      <trkpt lat="47.74831" lon="5.33173">
        <ele>247.9</ele>
        <time>2020-07-24T12:44:15Z</time>
      </trkpt>
      <trkpt lat="47.74817" lon="5.33152">
        <ele>246.7</ele>
        <time>2020-07-24T12:44:19Z</time>
      </trkpt>
      <trkpt lat="47.74802" lon="5.33125">
        <ele>246.9</ele>
        <time>2020-07-24T12:44:24Z</time>
      </trkpt>
      <trkpt lat="47.74794" lon="5.33105">
        <ele>247.2</ele>
        <time>2020-07-24T12:44:28Z</time>
      </trkpt>
      <trkpt lat="47.74784" lon="5.33077">
        <ele>247.5</ele>
        <time>2020-07-24T12:44:33Z</time>
      </trkpt>
      <trkpt lat="47.74777" lon="5.33054">
        <ele>245.9</ele>
        <time>2020-07-24T12:44:37Z</time>
      </trkpt>
      <trkpt lat="47.74767" lon="5.33025">
        <ele>245.3</ele>
        <time>2020-07-24T12:44:42Z</time>
      </trkpt>
      <trkpt lat="47.74756" lon="5.33002">
        <ele>245.2</ele>
        <time>2020-07-24T12:44:46Z</time>
      </trkpt>
      <trkpt lat="47.74742" lon="5.32979">
        <ele>244.6</ele>
        <time>2020-07-24T12:44:50Z</time>
      </trkpt>
      <trkpt lat="47.74729" lon="5.32957">
        <ele>244.2</ele>
        <time>2020-07-24T12:44:54Z</time>
      </trkpt>
      <trkpt lat="47.74712" lon="5.32933">
        <ele>244</ele>
        <time>2020-07-24T12:44:59Z</time>
      </trkpt>
      <trkpt lat="47.74699" lon="5.32916">
        <ele>244.3</ele>
        <time>2020-07-24T12:45:03Z</time>
      </trkpt>
      <trkpt lat="47.74682" lon="5.32898">
        <ele>242.8</ele>
        <time>2020-07-24T12:45:08Z</time>
      </trkpt>
      <trkpt lat="47.74668" lon="5.32886">
        <ele>240</ele>
        <time>2020-07-24T12:45:12Z</time>
      </trkpt>
      <trkpt lat="47.74652" lon="5.32874">
        <ele>237.5</ele>
        <time>2020-07-24T12:45:16Z</time>
      </trkpt>
      <trkpt lat="47.74637" lon="5.32865">
        <ele>236.1</ele>
        <time>2020-07-24T12:45:20Z</time>
      </trkpt>
      <trkpt lat="47.74614" lon="5.32853">
        <ele>235.7</ele>
        <time>2020-07-24T12:45:25Z</time>
      </trkpt>
      <trkpt lat="47.74596" lon="5.32848">
        <ele>236.1</ele>
        <time>2020-07-24T12:45:29Z</time>
      </trkpt>
      <trkpt lat="47.74577" lon="5.32844">
        <ele>234.6</ele>
        <time>2020-07-24T12:45:33Z</time>
      </trkpt>
      <trkpt lat="47.74557" lon="5.32845">
        <ele>232.2</ele>
        <time>2020-07-24T12:45:38Z</time>
      </trkpt>
      <trkpt lat="47.74538" lon="5.32844">
        <ele>229.9</ele>
        <time>2020-07-24T12:45:42Z</time>
      </trkpt>
      <trkpt lat="47.74521" lon="5.32834">
        <ele>230.7</ele>
        <time>2020-07-24T12:45:46Z</time>
      </trkpt>
      <trkpt lat="47.74506" lon="5.32832">
        <ele>229.8</ele>
        <time>2020-07-24T12:45:50Z</time>
      </trkpt>
      <trkpt lat="47.74487" lon="5.32834">
        <ele>235.7</ele>
        <time>2020-07-24T12:45:54Z</time>
      </trkpt>
      <trkpt lat="47.74466" lon="5.32838">
        <ele>239.5</ele>
        <time>2020-07-24T12:45:59Z</time>
      </trkpt>
      <trkpt lat="47.74448" lon="5.32847">
        <ele>242.9</ele>
        <time>2020-07-24T12:46:03Z</time>
      </trkpt>
      <trkpt lat="47.74426" lon="5.32861">
        <ele>245.6</ele>
        <time>2020-07-24T12:46:08Z</time>
      </trkpt>
      <trkpt lat="47.74409" lon="5.32872">
        <ele>246.9</ele>
        <time>2020-07-24T12:46:12Z</time>
      </trkpt>
      <trkpt lat="47.74393" lon="5.32884">
        <ele>246.9</ele>
        <time>2020-07-24T12:46:16Z</time>
      </trkpt>
      <trkpt lat="47.74376" lon="5.32895">
        <ele>246.9</ele>
        <time>2020-07-24T12:46:20Z</time>
      </trkpt>
      <trkpt lat="47.74359" lon="5.32907">
        <ele>246.3</ele>
        <time>2020-07-24T12:46:24Z</time>
      </trkpt>
      <trkpt lat="47.74342" lon="5.32916">
        <ele>245.8</ele>
        <time>2020-07-24T12:46:28Z</time>
      </trkpt>
      <trkpt lat="47.74325" lon="5.32924">
        <ele>246.3</ele>
        <time>2020-07-24T12:46:32Z</time>
      </trkpt>
      <trkpt lat="47.74307" lon="5.32929">
        <ele>247</ele>
        <time>2020-07-24T12:46:36Z</time>
      </trkpt>
      <trkpt lat="47.74285" lon="5.32933">
        <ele>246.3</ele>
        <time>2020-07-24T12:46:41Z</time>
      </trkpt>
      <trkpt lat="47.74266" lon="5.32936">
        <ele>247.8</ele>
        <time>2020-07-24T12:46:45Z</time>
      </trkpt>
      <trkpt lat="47.74243" lon="5.32936">
        <ele>249.4</ele>
        <time>2020-07-24T12:46:50Z</time>
      </trkpt>
      <trkpt lat="47.74224" lon="5.32932">
        <ele>250.8</ele>
        <time>2020-07-24T12:46:54Z</time>
      </trkpt>
      <trkpt lat="47.742" lon="5.32927">
        <ele>250.4</ele>
        <time>2020-07-24T12:46:59Z</time>
      </trkpt>
      <trkpt lat="47.74181" lon="5.32921">
        <ele>251.6</ele>
        <time>2020-07-24T12:47:03Z</time>
      </trkpt>
      <trkpt lat="47.74162" lon="5.32914">
        <ele>251.6</ele>
        <time>2020-07-24T12:47:07Z</time>
      </trkpt>
      <trkpt lat="47.74144" lon="5.32904">
        <ele>250.4</ele>
        <time>2020-07-24T12:47:11Z</time>
      </trkpt>
      <trkpt lat="47.74122" lon="5.32888">
        <ele>249.8</ele>
        <time>2020-07-24T12:47:16Z</time>
      </trkpt>
      <trkpt lat="47.74107" lon="5.32874">
        <ele>249.1</ele>
        <time>2020-07-24T12:47:20Z</time>
      </trkpt>
      <trkpt lat="47.74092" lon="5.32858">
        <ele>248.9</ele>
        <time>2020-07-24T12:47:24Z</time>
      </trkpt>
      <trkpt lat="47.74078" lon="5.32841">
        <ele>249.4</ele>
        <time>2020-07-24T12:47:28Z</time>
      </trkpt>
      <trkpt lat="47.74063" lon="5.32823">
        <ele>249.5</ele>
        <time>2020-07-24T12:47:32Z</time>
      </trkpt>
      <trkpt lat="47.74047" lon="5.32805">
        <ele>249.1</ele>
        <time>2020-07-24T12:47:36Z</time>
      </trkpt>
      <trkpt lat="47.7403" lon="5.3279">
        <ele>249.2</ele>
        <time>2020-07-24T12:47:40Z</time>
      </trkpt>
      <trkpt lat="47.74014" lon="5.32776">
        <ele>248.2</ele>
        <time>2020-07-24T12:47:44Z</time>
      </trkpt>
      <trkpt lat="47.73997" lon="5.32764">
        <ele>248.1</ele>
        <time>2020-07-24T12:47:48Z</time>
      </trkpt>
      <trkpt lat="47.73975" lon="5.32752">
        <ele>246.3</ele>
        <time>2020-07-24T12:47:53Z</time>
      </trkpt>
      <trkpt lat="47.73954" lon="5.32744">
        <ele>245.1</ele>
        <time>2020-07-24T12:47:57Z</time>
      </trkpt>
      <trkpt lat="47.73935" lon="5.32736">
        <ele>243</ele>
        <time>2020-07-24T12:48:01Z</time>
      </trkpt>
      <trkpt lat="47.73909" lon="5.32731">
        <ele>243.3</ele>
        <time>2020-07-24T12:48:06Z</time>
      </trkpt>
      <trkpt lat="47.7389" lon="5.32725">
        <ele>241.6</ele>
        <time>2020-07-24T12:48:10Z</time>
      </trkpt>
      <trkpt lat="47.73866" lon="5.32718">
        <ele>239.9</ele>
        <time>2020-07-24T12:48:15Z</time>
      </trkpt>
      <trkpt lat="47.7384" lon="5.32712">
        <ele>242</ele>
        <time>2020-07-24T12:48:20Z</time>
      </trkpt>
      <trkpt lat="47.73819" lon="5.32703">
        <ele>245.4</ele>
        <time>2020-07-24T12:48:24Z</time>
      </trkpt>
      <trkpt lat="47.73797" lon="5.32693">
        <ele>244.8</ele>
        <time>2020-07-24T12:48:29Z</time>
      </trkpt>
      <trkpt lat="47.7378" lon="5.3268">
        <ele>244.5</ele>
        <time>2020-07-24T12:48:33Z</time>
      </trkpt>
      <trkpt lat="47.73764" lon="5.32673">
        <ele>244.1</ele>
        <time>2020-07-24T12:48:37Z</time>
      </trkpt>
      <trkpt lat="47.73742" lon="5.32663">
        <ele>246.8</ele>
        <time>2020-07-24T12:48:42Z</time>
      </trkpt>
      <trkpt lat="47.73724" lon="5.32655">
        <ele>246.9</ele>
        <time>2020-07-24T12:48:46Z</time>
      </trkpt>
      <trkpt lat="47.73701" lon="5.32644">
        <ele>245</ele>
        <time>2020-07-24T12:48:51Z</time>
      </trkpt>
      <trkpt lat="47.73679" lon="5.32632">
        <ele>244</ele>
        <time>2020-07-24T12:48:56Z</time>
      </trkpt>
      <trkpt lat="47.73662" lon="5.32623">
        <ele>243.8</ele>
        <time>2020-07-24T12:49:00Z</time>
      </trkpt>
      <trkpt lat="47.73639" lon="5.32611">
        <ele>245.8</ele>
        <time>2020-07-24T12:49:05Z</time>
      </trkpt>
      <trkpt lat="47.73623" lon="5.32601">
        <ele>246.8</ele>
        <time>2020-07-24T12:49:09Z</time>
      </trkpt>
      <trkpt lat="47.73603" lon="5.32588">
        <ele>247.5</ele>
        <time>2020-07-24T12:49:14Z</time>
      </trkpt>
      <trkpt lat="47.73586" lon="5.32578">
        <ele>246.3</ele>
        <time>2020-07-24T12:49:18Z</time>
      </trkpt>
      <trkpt lat="47.73569" lon="5.32571">
        <ele>248.3</ele>
        <time>2020-07-24T12:49:22Z</time>
      </trkpt>
      <trkpt lat="47.73549" lon="5.32559">
        <ele>250.2</ele>
        <time>2020-07-24T12:49:27Z</time>
      </trkpt>
      <trkpt lat="47.73529" lon="5.32548">
        <ele>250</ele>
        <time>2020-07-24T12:49:32Z</time>
      </trkpt>
      <trkpt lat="47.73516" lon="5.32538">
        <ele>249.4</ele>
        <time>2020-07-24T12:49:36Z</time>
      </trkpt>
      <trkpt lat="47.73498" lon="5.3252">
        <ele>248.7</ele>
        <time>2020-07-24T12:49:41Z</time>
      </trkpt>
      <trkpt lat="47.73483" lon="5.32518">
        <ele>249.9</ele>
        <time>2020-07-24T12:49:45Z</time>
      </trkpt>
      <trkpt lat="47.73462" lon="5.32505">
        <ele>249.2</ele>
        <time>2020-07-24T12:49:50Z</time>
      </trkpt>
      <trkpt lat="47.73446" lon="5.32496">
        <ele>247.7</ele>
        <time>2020-07-24T12:49:54Z</time>
      </trkpt>
      <trkpt lat="47.73424" lon="5.32485">
        <ele>246.1</ele>
        <time>2020-07-24T12:49:59Z</time>
      </trkpt>
      <trkpt lat="47.73408" lon="5.32476">
        <ele>243.7</ele>
        <time>2020-07-24T12:50:03Z</time>
      </trkpt>
      <trkpt lat="47.73393" lon="5.32465">
        <ele>241.3</ele>
        <time>2020-07-24T12:50:07Z</time>
      </trkpt>
      <trkpt lat="47.73372" lon="5.32453">
        <ele>239.4</ele>
        <time>2020-07-24T12:50:12Z</time>
      </trkpt>
      <trkpt lat="47.73355" lon="5.32443">
        <ele>237.3</ele>
        <time>2020-07-24T12:50:16Z</time>
      </trkpt>
      <trkpt lat="47.73339" lon="5.32432">
        <ele>235.4</ele>
        <time>2020-07-24T12:50:20Z</time>
      </trkpt>
      <trkpt lat="47.73323" lon="5.32422">
        <ele>235.6</ele>
        <time>2020-07-24T12:50:24Z</time>
      </trkpt>
      <trkpt lat="47.73305" lon="5.32412">
        <ele>237.7</ele>
        <time>2020-07-24T12:50:28Z</time>
      </trkpt>
      <trkpt lat="47.73285" lon="5.32402">
        <ele>241.5</ele>
        <time>2020-07-24T12:50:32Z</time>
      </trkpt>
      <trkpt lat="47.73265" lon="5.32389">
        <ele>245.2</ele>
        <time>2020-07-24T12:50:36Z</time>
      </trkpt>
      <trkpt lat="47.73245" lon="5.32378">
        <ele>247.3</ele>
        <time>2020-07-24T12:50:40Z</time>
      </trkpt>
      <trkpt lat="47.73224" lon="5.32368">
        <ele>249.1</ele>
        <time>2020-07-24T12:50:45Z</time>
      </trkpt>
      <trkpt lat="47.73204" lon="5.32361">
        <ele>249</ele>
        <time>2020-07-24T12:50:50Z</time>
      </trkpt>
      <trkpt lat="47.73183" lon="5.3235">
        <ele>248.6</ele>
        <time>2020-07-24T12:50:54Z</time>
      </trkpt>
      <trkpt lat="47.73161" lon="5.32338">
        <ele>248.3</ele>
        <time>2020-07-24T12:50:58Z</time>
      </trkpt>
      <trkpt lat="47.73139" lon="5.32326">
        <ele>247.6</ele>
        <time>2020-07-24T12:51:02Z</time>
      </trkpt>
      <trkpt lat="47.73115" lon="5.32319">
        <ele>245.6</ele>
        <time>2020-07-24T12:51:06Z</time>
      </trkpt>
      <trkpt lat="47.73088" lon="5.32316">
        <ele>244.5</ele>
        <time>2020-07-24T12:51:10Z</time>
      </trkpt>
      <trkpt lat="47.73057" lon="5.32316">
        <ele>243.1</ele>
        <time>2020-07-24T12:51:15Z</time>
      </trkpt>
      <trkpt lat="47.73029" lon="5.32321">
        <ele>245</ele>
        <time>2020-07-24T12:51:20Z</time>
      </trkpt>
      <trkpt lat="47.73008" lon="5.32328">
        <ele>246.6</ele>
        <time>2020-07-24T12:51:24Z</time>
      </trkpt>
      <trkpt lat="47.72986" lon="5.32335">
        <ele>248.9</ele>
        <time>2020-07-24T12:51:28Z</time>
      </trkpt>
      <trkpt lat="47.7296" lon="5.32343">
        <ele>249.4</ele>
        <time>2020-07-24T12:51:33Z</time>
      </trkpt>
      <trkpt lat="47.72936" lon="5.32351">
        <ele>247</ele>
        <time>2020-07-24T12:51:38Z</time>
      </trkpt>
      <trkpt lat="47.72915" lon="5.32359">
        <ele>245.8</ele>
        <time>2020-07-24T12:51:42Z</time>
      </trkpt>
      <trkpt lat="47.72895" lon="5.32365">
        <ele>245.5</ele>
        <time>2020-07-24T12:51:46Z</time>
      </trkpt>
      <trkpt lat="47.7287" lon="5.32374">
        <ele>245.9</ele>
        <time>2020-07-24T12:51:51Z</time>
      </trkpt>
      <trkpt lat="47.72844" lon="5.32383">
        <ele>246.5</ele>
        <time>2020-07-24T12:51:56Z</time>
      </trkpt>
      <trkpt lat="47.72823" lon="5.32395">
        <ele>247</ele>
        <time>2020-07-24T12:52:00Z</time>
      </trkpt>
      <trkpt lat="47.72796" lon="5.32406">
        <ele>244.8</ele>
        <time>2020-07-24T12:52:05Z</time>
      </trkpt>
      <trkpt lat="47.72768" lon="5.32416">
        <ele>244.5</ele>
        <time>2020-07-24T12:52:09Z</time>
      </trkpt>
      <trkpt lat="47.72739" lon="5.32425">
        <ele>245.7</ele>
        <time>2020-07-24T12:52:13Z</time>
      </trkpt>
      <trkpt lat="47.72711" lon="5.32434">
        <ele>246.3</ele>
        <time>2020-07-24T12:52:18Z</time>
      </trkpt>
      <trkpt lat="47.72682" lon="5.32447">
        <ele>244.7</ele>
        <time>2020-07-24T12:52:23Z</time>
      </trkpt>
      <trkpt lat="47.72659" lon="5.32459">
        <ele>244.1</ele>
        <time>2020-07-24T12:52:27Z</time>
      </trkpt>
      <trkpt lat="47.72638" lon="5.32471">
        <ele>244</ele>
        <time>2020-07-24T12:52:31Z</time>
      </trkpt>
      <trkpt lat="47.72618" lon="5.32482">
        <ele>244.9</ele>
        <time>2020-07-24T12:52:35Z</time>
      </trkpt>
      <trkpt lat="47.72599" lon="5.32493">
        <ele>244.3</ele>
        <time>2020-07-24T12:52:39Z</time>
      </trkpt>
      <trkpt lat="47.72574" lon="5.32506">
        <ele>242.4</ele>
        <time>2020-07-24T12:52:44Z</time>
      </trkpt>
      <trkpt lat="47.72555" lon="5.32517">
        <ele>240.7</ele>
        <time>2020-07-24T12:52:48Z</time>
      </trkpt>
      <trkpt lat="47.72531" lon="5.32527">
        <ele>238.4</ele>
        <time>2020-07-24T12:52:53Z</time>
      </trkpt>
      <trkpt lat="47.72512" lon="5.32532">
        <ele>237.5</ele>
        <time>2020-07-24T12:52:57Z</time>
      </trkpt>
      <trkpt lat="47.72494" lon="5.32537">
        <ele>236.8</ele>
        <time>2020-07-24T12:53:01Z</time>
      </trkpt>
      <trkpt lat="47.72472" lon="5.32546">
        <ele>237</ele>
        <time>2020-07-24T12:53:06Z</time>
      </trkpt>
      <trkpt lat="47.72449" lon="5.32555">
        <ele>235</ele>
        <time>2020-07-24T12:53:10Z</time>
      </trkpt>
      <trkpt lat="47.72423" lon="5.32568">
        <ele>235.1</ele>
        <time>2020-07-24T12:53:15Z</time>
      </trkpt>
      <trkpt lat="47.72408" lon="5.32579">
        <ele>236.6</ele>
        <time>2020-07-24T12:53:19Z</time>
      </trkpt>
      <trkpt lat="47.72384" lon="5.32592">
        <ele>234.4</ele>
        <time>2020-07-24T12:53:24Z</time>
      </trkpt>
      <trkpt lat="47.72359" lon="5.326">
        <ele>231.5</ele>
        <time>2020-07-24T12:53:28Z</time>
      </trkpt>
      <trkpt lat="47.72327" lon="5.32612">
        <ele>229.8</ele>
        <time>2020-07-24T12:53:33Z</time>
      </trkpt>
      <trkpt lat="47.72297" lon="5.32626">
        <ele>228.9</ele>
        <time>2020-07-24T12:53:38Z</time>
      </trkpt>
      <trkpt lat="47.7227" lon="5.32635">
        <ele>229.3</ele>
        <time>2020-07-24T12:53:43Z</time>
      </trkpt>
      <trkpt lat="47.7225" lon="5.32644">
        <ele>228.2</ele>
        <time>2020-07-24T12:53:47Z</time>
      </trkpt>
      <trkpt lat="47.72226" lon="5.32656">
        <ele>228.5</ele>
        <time>2020-07-24T12:53:52Z</time>
      </trkpt>
      <trkpt lat="47.72207" lon="5.32665">
        <ele>229.9</ele>
        <time>2020-07-24T12:53:56Z</time>
      </trkpt>
      <trkpt lat="47.72188" lon="5.32675">
        <ele>230.9</ele>
        <time>2020-07-24T12:54:00Z</time>
      </trkpt>
      <trkpt lat="47.72163" lon="5.32684">
        <ele>232.7</ele>
        <time>2020-07-24T12:54:05Z</time>
      </trkpt>
      <trkpt lat="47.72143" lon="5.3269">
        <ele>232.9</ele>
        <time>2020-07-24T12:54:09Z</time>
      </trkpt>
      <trkpt lat="47.72123" lon="5.32692">
        <ele>234</ele>
        <time>2020-07-24T12:54:13Z</time>
      </trkpt>
      <trkpt lat="47.721" lon="5.32693">
        <ele>234.4</ele>
        <time>2020-07-24T12:54:18Z</time>
      </trkpt>
      <trkpt lat="47.72082" lon="5.32691">
        <ele>234.1</ele>
        <time>2020-07-24T12:54:22Z</time>
      </trkpt>
      <trkpt lat="47.7206" lon="5.32685">
        <ele>233</ele>
        <time>2020-07-24T12:54:27Z</time>
      </trkpt>
      <trkpt lat="47.72045" lon="5.32677">
        <ele>232.9</ele>
        <time>2020-07-24T12:54:31Z</time>
      </trkpt>
      <trkpt lat="47.72033" lon="5.32678">
        <ele>231</ele>
        <time>2020-07-24T12:54:35Z</time>
      </trkpt>
      <trkpt lat="47.72019" lon="5.32676">
        <ele>230.5</ele>
        <time>2020-07-24T12:54:39Z</time>
      </trkpt>
      <trkpt lat="47.72004" lon="5.32668">
        <ele>231.9</ele>
        <time>2020-07-24T12:54:43Z</time>
      </trkpt>
      <trkpt lat="47.71989" lon="5.32659">
        <ele>232.1</ele>
        <time>2020-07-24T12:54:47Z</time>
      </trkpt>
      <trkpt lat="47.71975" lon="5.32648">
        <ele>232.6</ele>
        <time>2020-07-24T12:54:51Z</time>
      </trkpt>
      <trkpt lat="47.71958" lon="5.3263">
        <ele>232.1</ele>
        <time>2020-07-24T12:54:56Z</time>
      </trkpt>
      <trkpt lat="47.71947" lon="5.32617">
        <ele>230.2</ele>
        <time>2020-07-24T12:55:00Z</time>
      </trkpt>
      <trkpt lat="47.71932" lon="5.32598">
        <ele>230</ele>
        <time>2020-07-24T12:55:05Z</time>
      </trkpt>
      <trkpt lat="47.7192" lon="5.32581">
        <ele>230</ele>
        <time>2020-07-24T12:55:09Z</time>
      </trkpt>
      <trkpt lat="47.71906" lon="5.32566">
        <ele>232.6</ele>
        <time>2020-07-24T12:55:13Z</time>
      </trkpt>
      <trkpt lat="47.71895" lon="5.32549">
        <ele>236.6</ele>
        <time>2020-07-24T12:55:17Z</time>
      </trkpt>
      <trkpt lat="47.71882" lon="5.32534">
        <ele>239</ele>
        <time>2020-07-24T12:55:21Z</time>
      </trkpt>
      <trkpt lat="47.71861" lon="5.32513">
        <ele>236.7</ele>
        <time>2020-07-24T12:55:26Z</time>
      </trkpt>
      <trkpt lat="47.71843" lon="5.32495">
        <ele>235</ele>
        <time>2020-07-24T12:55:31Z</time>
      </trkpt>
      <trkpt lat="47.71827" lon="5.32484">
        <ele>233.4</ele>
        <time>2020-07-24T12:55:35Z</time>
      </trkpt>
      <trkpt lat="47.71809" lon="5.32471">
        <ele>230.4</ele>
        <time>2020-07-24T12:55:39Z</time>
      </trkpt>
      <trkpt lat="47.71787" lon="5.32458">
        <ele>228.2</ele>
        <time>2020-07-24T12:55:44Z</time>
      </trkpt>
      <trkpt lat="47.71765" lon="5.32442">
        <ele>229.2</ele>
        <time>2020-07-24T12:55:49Z</time>
      </trkpt>
      <trkpt lat="47.71749" lon="5.3243">
        <ele>229.6</ele>
        <time>2020-07-24T12:55:53Z</time>
      </trkpt>
      <trkpt lat="47.71724" lon="5.32418">
        <ele>235.5</ele>
        <time>2020-07-24T12:55:58Z</time>
      </trkpt>
      <trkpt lat="47.71707" lon="5.32419">
        <ele>237.1</ele>
        <time>2020-07-24T12:56:03Z</time>
      </trkpt>
      <trkpt lat="47.71698" lon="5.32427">
        <ele>236.1</ele>
        <time>2020-07-24T12:56:07Z</time>
      </trkpt>
      <trkpt lat="47.71686" lon="5.32433">
        <ele>236.6</ele>
        <time>2020-07-24T12:56:11Z</time>
      </trkpt>
      <trkpt lat="47.71677" lon="5.32443">
        <ele>238.3</ele>
        <time>2020-07-24T12:56:15Z</time>
      </trkpt>
      <trkpt lat="47.71668" lon="5.32446">
        <ele>238.6</ele>
        <time>2020-07-24T12:56:19Z</time>
      </trkpt>
      <trkpt lat="47.71659" lon="5.32446">
        <ele>237.8</ele>
        <time>2020-07-24T12:56:23Z</time>
      </trkpt>
      <trkpt lat="47.71647" lon="5.32443">
        <ele>237.4</ele>
        <time>2020-07-24T12:56:27Z</time>
      </trkpt>
      <trkpt lat="47.71636" lon="5.32439">
        <ele>238.3</ele>
        <time>2020-07-24T12:56:31Z</time>
      </trkpt>
      <trkpt lat="47.71626" lon="5.32435">
        <ele>238.2</ele>
        <time>2020-07-24T12:56:35Z</time>
      </trkpt>
      <trkpt lat="47.71616" lon="5.32432">
        <ele>235.9</ele>
        <time>2020-07-24T12:56:40Z</time>
      </trkpt>
      <trkpt lat="47.7161" lon="5.32428">
        <ele>235.8</ele>
        <time>2020-07-24T12:56:45Z</time>
      </trkpt>
      <trkpt lat="47.71599" lon="5.32426">
        <ele>236.7</ele>
        <time>2020-07-24T12:56:50Z</time>
      </trkpt>
      <trkpt lat="47.71591" lon="5.32423">
        <ele>236.9</ele>
        <time>2020-07-24T12:56:54Z</time>
      </trkpt>
      <trkpt lat="47.71582" lon="5.3242">
        <ele>237.3</ele>
        <time>2020-07-24T12:56:59Z</time>
      </trkpt>
      <trkpt lat="47.71575" lon="5.32419">
        <ele>237.7</ele>
        <time>2020-07-24T12:57:03Z</time>
      </trkpt>
      <trkpt lat="47.71565" lon="5.32415">
        <ele>238.2</ele>
        <time>2020-07-24T12:57:08Z</time>
      </trkpt>
      <trkpt lat="47.71558" lon="5.32412">
        <ele>237.8</ele>
        <time>2020-07-24T12:57:12Z</time>
      </trkpt>
      <trkpt lat="47.71549" lon="5.32407">
        <ele>237.1</ele>
        <time>2020-07-24T12:57:17Z</time>
      </trkpt>
      <trkpt lat="47.71542" lon="5.32403">
        <ele>238.6</ele>
        <time>2020-07-24T12:57:21Z</time>
      </trkpt>
      <trkpt lat="47.71535" lon="5.32399">
        <ele>238</ele>
        <time>2020-07-24T12:57:25Z</time>
      </trkpt>
      <trkpt lat="47.71528" lon="5.32395">
        <ele>237.3</ele>
        <time>2020-07-24T12:57:29Z</time>
      </trkpt>
      <trkpt lat="47.71518" lon="5.32389">
        <ele>235.8</ele>
        <time>2020-07-24T12:57:34Z</time>
      </trkpt>
      <trkpt lat="47.71509" lon="5.32387">
        <ele>237.7</ele>
        <time>2020-07-24T12:57:38Z</time>
      </trkpt>
      <trkpt lat="47.71501" lon="5.32385">
        <ele>239.8</ele>
        <time>2020-07-24T12:57:42Z</time>
      </trkpt>
      <trkpt lat="47.71492" lon="5.32381">
        <ele>241.1</ele>
        <time>2020-07-24T12:57:46Z</time>
      </trkpt>
      <trkpt lat="47.71482" lon="5.32376">
        <ele>242.8</ele>
        <time>2020-07-24T12:57:51Z</time>
      </trkpt>
      <trkpt lat="47.71471" lon="5.32373">
        <ele>244.2</ele>
        <time>2020-07-24T12:57:56Z</time>
      </trkpt>
      <trkpt lat="47.71462" lon="5.32368">
        <ele>244.9</ele>
        <time>2020-07-24T12:58:00Z</time>
      </trkpt>
      <trkpt lat="47.7145" lon="5.3236">
        <ele>245.8</ele>
        <time>2020-07-24T12:58:05Z</time>
      </trkpt>
      <trkpt lat="47.71438" lon="5.32352">
        <ele>247.2</ele>
        <time>2020-07-24T12:58:10Z</time>
      </trkpt>
      <trkpt lat="47.71428" lon="5.32344">
        <ele>246.9</ele>
        <time>2020-07-24T12:58:14Z</time>
      </trkpt>
      <trkpt lat="47.71416" lon="5.32337">
        <ele>247.5</ele>
        <time>2020-07-24T12:58:19Z</time>
      </trkpt>
      <trkpt lat="47.71408" lon="5.32334">
        <ele>247.8</ele>
        <time>2020-07-24T12:58:23Z</time>
      </trkpt>
      <trkpt lat="47.71399" lon="5.32324">
        <ele>247</ele>
        <time>2020-07-24T12:58:27Z</time>
      </trkpt>
      <trkpt lat="47.71387" lon="5.32315">
        <ele>248.9</ele>
        <time>2020-07-24T12:58:32Z</time>
      </trkpt>
      <trkpt lat="47.71377" lon="5.32307">
        <ele>248.5</ele>
        <time>2020-07-24T12:58:36Z</time>
      </trkpt>
      <trkpt lat="47.71365" lon="5.32301">
        <ele>248.5</ele>
        <time>2020-07-24T12:58:40Z</time>
      </trkpt>
      <trkpt lat="47.71353" lon="5.32295">
        <ele>248.7</ele>
        <time>2020-07-24T12:58:44Z</time>
      </trkpt>
      <trkpt lat="47.71344" lon="5.32287">
        <ele>248.4</ele>
        <time>2020-07-24T12:58:48Z</time>
      </trkpt>
      <trkpt lat="47.71334" lon="5.32276">
        <ele>248.7</ele>
        <time>2020-07-24T12:58:53Z</time>
      </trkpt>
      <trkpt lat="47.71326" lon="5.32269">
        <ele>250.2</ele>
        <time>2020-07-24T12:58:57Z</time>
      </trkpt>
      <trkpt lat="47.71315" lon="5.32264">
        <ele>251.1</ele>
        <time>2020-07-24T12:59:01Z</time>
      </trkpt>
      <trkpt lat="47.71304" lon="5.32258">
        <ele>250.9</ele>
        <time>2020-07-24T12:59:05Z</time>
      </trkpt>
      <trkpt lat="47.71293" lon="5.32255">
        <ele>250.6</ele>
        <time>2020-07-24T12:59:09Z</time>
      </trkpt>
      <trkpt lat="47.71281" lon="5.32255">
        <ele>250.8</ele>
        <time>2020-07-24T12:59:13Z</time>
      </trkpt>
      <trkpt lat="47.71269" lon="5.32254">
        <ele>251.5</ele>
        <time>2020-07-24T12:59:17Z</time>
      </trkpt>
      <trkpt lat="47.71258" lon="5.32256">
        <ele>253.7</ele>
        <time>2020-07-24T12:59:21Z</time>
      </trkpt>
      <trkpt lat="47.71246" lon="5.32258">
        <ele>256.3</ele>
        <time>2020-07-24T12:59:25Z</time>
      </trkpt>
      <trkpt lat="47.71229" lon="5.3226">
        <ele>257.7</ele>
        <time>2020-07-24T12:59:30Z</time>
      </trkpt>
      <trkpt lat="47.71214" lon="5.32263">
        <ele>259.1</ele>
        <time>2020-07-24T12:59:34Z</time>
      </trkpt>
      <trkpt lat="47.71198" lon="5.32268">
        <ele>256.2</ele>
        <time>2020-07-24T12:59:39Z</time>
      </trkpt>
      <trkpt lat="47.71184" lon="5.32273">
        <ele>255.8</ele>
        <time>2020-07-24T12:59:43Z</time>
      </trkpt>
      <trkpt lat="47.71171" lon="5.32282">
        <ele>255.8</ele>
        <time>2020-07-24T12:59:47Z</time>
      </trkpt>
      <trkpt lat="47.71158" lon="5.32291">
        <ele>255.4</ele>
        <time>2020-07-24T12:59:51Z</time>
      </trkpt>
      <trkpt lat="47.71146" lon="5.323">
        <ele>257</ele>
        <time>2020-07-24T12:59:55Z</time>
      </trkpt>
      <trkpt lat="47.71135" lon="5.32309">
        <ele>258</ele>
        <time>2020-07-24T12:59:59Z</time>
      </trkpt>
      <trkpt lat="47.71119" lon="5.32324">
        <ele>260.8</ele>
        <time>2020-07-24T13:00:04Z</time>
      </trkpt>
      <trkpt lat="47.71103" lon="5.32336">
        <ele>260.4</ele>
        <time>2020-07-24T13:00:09Z</time>
      </trkpt>
      <trkpt lat="47.71087" lon="5.32352">
        <ele>260.7</ele>
        <time>2020-07-24T13:00:14Z</time>
      </trkpt>
      <trkpt lat="47.71071" lon="5.3237">
        <ele>257.8</ele>
        <time>2020-07-24T13:00:18Z</time>
      </trkpt>
      <trkpt lat="47.71052" lon="5.32386">
        <ele>257.3</ele>
        <time>2020-07-24T13:00:22Z</time>
      </trkpt>
      <trkpt lat="47.71034" lon="5.32403">
        <ele>255.8</ele>
        <time>2020-07-24T13:00:26Z</time>
      </trkpt>
      <trkpt lat="47.71013" lon="5.32415">
        <ele>255.4</ele>
        <time>2020-07-24T13:00:30Z</time>
      </trkpt>
      <trkpt lat="47.7099" lon="5.32417">
        <ele>254.4</ele>
        <time>2020-07-24T13:00:34Z</time>
      </trkpt>
      <trkpt lat="47.70969" lon="5.32413">
        <ele>251.4</ele>
        <time>2020-07-24T13:00:38Z</time>
      </trkpt>
      <trkpt lat="47.70944" lon="5.32407">
        <ele>248.6</ele>
        <time>2020-07-24T13:00:43Z</time>
      </trkpt>
      <trkpt lat="47.70918" lon="5.32399">
        <ele>246.7</ele>
        <time>2020-07-24T13:00:48Z</time>
      </trkpt>
      <trkpt lat="47.70896" lon="5.32392">
        <ele>245.3</ele>
        <time>2020-07-24T13:00:52Z</time>
      </trkpt>
      <trkpt lat="47.70869" lon="5.32383">
        <ele>246.4</ele>
        <time>2020-07-24T13:00:57Z</time>
      </trkpt>
      <trkpt lat="47.70848" lon="5.32376">
        <ele>246.1</ele>
        <time>2020-07-24T13:01:01Z</time>
      </trkpt>
      <trkpt lat="47.70827" lon="5.32369">
        <ele>243.8</ele>
        <time>2020-07-24T13:01:05Z</time>
      </trkpt>
      <trkpt lat="47.708" lon="5.32361">
        <ele>242.2</ele>
        <time>2020-07-24T13:01:10Z</time>
      </trkpt>
      <trkpt lat="47.70775" lon="5.32356">
        <ele>240.4</ele>
        <time>2020-07-24T13:01:14Z</time>
      </trkpt>
      <trkpt lat="47.70745" lon="5.32348">
        <ele>238.1</ele>
        <time>2020-07-24T13:01:19Z</time>
      </trkpt>
      <trkpt lat="47.7072" lon="5.32342">
        <ele>240.1</ele>
        <time>2020-07-24T13:01:23Z</time>
      </trkpt>
      <trkpt lat="47.70696" lon="5.32336">
        <ele>241.3</ele>
        <time>2020-07-24T13:01:27Z</time>
      </trkpt>
      <trkpt lat="47.70665" lon="5.32328">
        <ele>240.9</ele>
        <time>2020-07-24T13:01:32Z</time>
      </trkpt>
      <trkpt lat="47.70637" lon="5.32327">
        <ele>242.2</ele>
        <time>2020-07-24T13:01:36Z</time>
      </trkpt>
      <trkpt lat="47.70603" lon="5.32335">
        <ele>245.6</ele>
        <time>2020-07-24T13:01:41Z</time>
      </trkpt>
      <trkpt lat="47.7057" lon="5.32355">
        <ele>247.8</ele>
        <time>2020-07-24T13:01:46Z</time>
      </trkpt>
      <trkpt lat="47.70543" lon="5.32377">
        <ele>247.5</ele>
        <time>2020-07-24T13:01:50Z</time>
      </trkpt>
      <trkpt lat="47.70509" lon="5.32406">
        <ele>244.4</ele>
        <time>2020-07-24T13:01:55Z</time>
      </trkpt>
      <trkpt lat="47.70483" lon="5.32432">
        <ele>243.4</ele>
        <time>2020-07-24T13:01:59Z</time>
      </trkpt>
      <trkpt lat="47.70459" lon="5.32464">
        <ele>243</ele>
        <time>2020-07-24T13:02:03Z</time>
      </trkpt>
      <trkpt lat="47.70435" lon="5.32516">
        <ele>241.5</ele>
        <time>2020-07-24T13:02:08Z</time>
      </trkpt>
      <trkpt lat="47.70418" lon="5.32562">
        <ele>240.4</ele>
        <time>2020-07-24T13:02:12Z</time>
      </trkpt>
      <trkpt lat="47.70401" lon="5.32623">
        <ele>238.7</ele>
        <time>2020-07-24T13:02:17Z</time>
      </trkpt>
      <trkpt lat="47.70399" lon="5.32677">
        <ele>238.2</ele>
        <time>2020-07-24T13:02:21Z</time>
      </trkpt>
      <trkpt lat="47.70389" lon="5.3273">
        <ele>236.8</ele>
        <time>2020-07-24T13:02:25Z</time>
      </trkpt>
      <trkpt lat="47.7036" lon="5.32784">
        <ele>235.6</ele>
        <time>2020-07-24T13:02:30Z</time>
      </trkpt>
      <trkpt lat="47.70335" lon="5.3282">
        <ele>238.1</ele>
        <time>2020-07-24T13:02:34Z</time>
      </trkpt>
      <trkpt lat="47.70298" lon="5.32841">
        <ele>234</ele>
        <time>2020-07-24T13:02:38Z</time>
      </trkpt>
      <trkpt lat="47.70268" lon="5.3285">
        <ele>232.2</ele>
        <time>2020-07-24T13:02:42Z</time>
      </trkpt>
      <trkpt lat="47.70244" lon="5.32854">
        <ele>229</ele>
        <time>2020-07-24T13:02:46Z</time>
      </trkpt>
      <trkpt lat="47.70225" lon="5.32849">
        <ele>228.7</ele>
        <time>2020-07-24T13:02:51Z</time>
      </trkpt>
      <trkpt lat="47.70213" lon="5.32837">
        <ele>229.2</ele>
        <time>2020-07-24T13:02:55Z</time>
      </trkpt>
      <trkpt lat="47.70203" lon="5.32824">
        <ele>229.7</ele>
        <time>2020-07-24T13:02:59Z</time>
      </trkpt>
      <trkpt lat="47.70192" lon="5.32812">
        <ele>231.2</ele>
        <time>2020-07-24T13:03:03Z</time>
      </trkpt>
      <trkpt lat="47.70176" lon="5.32801">
        <ele>233.4</ele>
        <time>2020-07-24T13:03:08Z</time>
      </trkpt>
      <trkpt lat="47.70159" lon="5.32792">
        <ele>235.8</ele>
        <time>2020-07-24T13:03:13Z</time>
      </trkpt>
      <trkpt lat="47.70144" lon="5.32785">
        <ele>235.9</ele>
        <time>2020-07-24T13:03:17Z</time>
      </trkpt>
      <trkpt lat="47.70125" lon="5.32772">
        <ele>232.2</ele>
        <time>2020-07-24T13:03:22Z</time>
      </trkpt>
      <trkpt lat="47.70112" lon="5.32757">
        <ele>231</ele>
        <time>2020-07-24T13:03:26Z</time>
      </trkpt>
      <trkpt lat="47.701" lon="5.32735">
        <ele>230.3</ele>
        <time>2020-07-24T13:03:31Z</time>
      </trkpt>
      <trkpt lat="47.70092" lon="5.32717">
        <ele>231.6</ele>
        <time>2020-07-24T13:03:35Z</time>
      </trkpt>
      <trkpt lat="47.70082" lon="5.32704">
        <ele>230.5</ele>
        <time>2020-07-24T13:03:39Z</time>
      </trkpt>
      <trkpt lat="47.70066" lon="5.32708">
        <ele>229.6</ele>
        <time>2020-07-24T13:03:44Z</time>
      </trkpt>
      <trkpt lat="47.70052" lon="5.32717">
        <ele>228.6</ele>
        <time>2020-07-24T13:03:48Z</time>
      </trkpt>
      <trkpt lat="47.70036" lon="5.32727">
        <ele>229</ele>
        <time>2020-07-24T13:03:52Z</time>
      </trkpt>
      <trkpt lat="47.7002" lon="5.32731">
        <ele>225.3</ele>
        <time>2020-07-24T13:03:57Z</time>
      </trkpt>
      <trkpt lat="47.70002" lon="5.32746">
        <ele>223.2</ele>
        <time>2020-07-24T13:04:02Z</time>
      </trkpt>
      <trkpt lat="47.69985" lon="5.32762">
        <ele>224.5</ele>
        <time>2020-07-24T13:04:07Z</time>
      </trkpt>
      <trkpt lat="47.69967" lon="5.32778">
        <ele>225.5</ele>
        <time>2020-07-24T13:04:12Z</time>
      </trkpt>
      <trkpt lat="47.69954" lon="5.32789">
        <ele>226.9</ele>
        <time>2020-07-24T13:04:16Z</time>
      </trkpt>
      <trkpt lat="47.6994" lon="5.328">
        <ele>227.4</ele>
        <time>2020-07-24T13:04:20Z</time>
      </trkpt>
      <trkpt lat="47.69922" lon="5.32817">
        <ele>226</ele>
        <time>2020-07-24T13:04:25Z</time>
      </trkpt>
      <trkpt lat="47.69904" lon="5.32835">
        <ele>223</ele>
        <time>2020-07-24T13:04:30Z</time>
      </trkpt>
      <trkpt lat="47.69888" lon="5.3285">
        <ele>223</ele>
        <time>2020-07-24T13:04:34Z</time>
      </trkpt>
      <trkpt lat="47.69873" lon="5.32862">
        <ele>221</ele>
        <time>2020-07-24T13:04:38Z</time>
      </trkpt>
      <trkpt lat="47.69856" lon="5.32879">
        <ele>221.5</ele>
        <time>2020-07-24T13:04:42Z</time>
      </trkpt>
      <trkpt lat="47.69836" lon="5.32904">
        <ele>220.2</ele>
        <time>2020-07-24T13:04:47Z</time>
      </trkpt>
      <trkpt lat="47.69816" lon="5.32928">
        <ele>217.5</ele>
        <time>2020-07-24T13:04:52Z</time>
      </trkpt>
      <trkpt lat="47.69797" lon="5.32945">
        <ele>216.9</ele>
        <time>2020-07-24T13:04:56Z</time>
      </trkpt>
      <trkpt lat="47.69776" lon="5.32965">
        <ele>217.4</ele>
        <time>2020-07-24T13:05:00Z</time>
      </trkpt>
      <trkpt lat="47.69758" lon="5.3298">
        <ele>216.7</ele>
        <time>2020-07-24T13:05:04Z</time>
      </trkpt>
      <trkpt lat="47.69741" lon="5.32994">
        <ele>215.7</ele>
        <time>2020-07-24T13:05:08Z</time>
      </trkpt>
      <trkpt lat="47.69721" lon="5.33009">
        <ele>216.8</ele>
        <time>2020-07-24T13:05:13Z</time>
      </trkpt>
      <trkpt lat="47.69703" lon="5.33027">
        <ele>217.7</ele>
        <time>2020-07-24T13:05:17Z</time>
      </trkpt>
      <trkpt lat="47.69684" lon="5.33043">
        <ele>221.2</ele>
        <time>2020-07-24T13:05:21Z</time>
      </trkpt>
      <trkpt lat="47.69662" lon="5.33061">
        <ele>226.6</ele>
        <time>2020-07-24T13:05:26Z</time>
      </trkpt>
      <trkpt lat="47.6964" lon="5.33079">
        <ele>231.6</ele>
        <time>2020-07-24T13:05:31Z</time>
      </trkpt>
      <trkpt lat="47.69621" lon="5.33096">
        <ele>232</ele>
        <time>2020-07-24T13:05:35Z</time>
      </trkpt>
      <trkpt lat="47.69601" lon="5.33117">
        <ele>231</ele>
        <time>2020-07-24T13:05:39Z</time>
      </trkpt>
      <trkpt lat="47.69578" lon="5.33138">
        <ele>232.5</ele>
        <time>2020-07-24T13:05:44Z</time>
      </trkpt>
      <trkpt lat="47.69561" lon="5.33152">
        <ele>234.1</ele>
        <time>2020-07-24T13:05:48Z</time>
      </trkpt>
      <trkpt lat="47.69544" lon="5.33174">
        <ele>235.2</ele>
        <time>2020-07-24T13:05:53Z</time>
      </trkpt>
      <trkpt lat="47.69526" lon="5.33193">
        <ele>237.1</ele>
        <time>2020-07-24T13:05:58Z</time>
      </trkpt>
      <trkpt lat="47.69513" lon="5.33206">
        <ele>237</ele>
        <time>2020-07-24T13:06:02Z</time>
      </trkpt>
      <trkpt lat="47.69509" lon="5.33212">
        <ele>236.9</ele>
        <time>2020-07-24T13:06:06Z</time>
      </trkpt>
      <trkpt lat="47.69509" lon="5.33212">
        <ele>236.9</ele>
        <time>2020-07-24T13:06:07Z</time>
      </trkpt>
      <trkpt lat="47.6949" lon="5.33236">
        <ele>232.1</ele>
        <time>2020-07-24T13:13:06Z</time>
      </trkpt>
      <trkpt lat="47.69483" lon="5.3324">
        <ele>231.4</ele>
        <time>2020-07-24T13:13:13Z</time>
      </trkpt>
      <trkpt lat="47.69475" lon="5.33244">
        <ele>230.9</ele>
        <time>2020-07-24T13:13:18Z</time>
      </trkpt>
      <trkpt lat="47.69465" lon="5.33252">
        <ele>230.6</ele>
        <time>2020-07-24T13:13:22Z</time>
      </trkpt>
      <trkpt lat="47.69456" lon="5.33258">
        <ele>230.7</ele>
        <time>2020-07-24T13:13:26Z</time>
      </trkpt>
      <trkpt lat="47.69448" lon="5.33266">
        <ele>230.9</ele>
        <time>2020-07-24T13:13:30Z</time>
      </trkpt>
      <trkpt lat="47.69434" lon="5.33277">
        <ele>231.1</ele>
        <time>2020-07-24T13:13:35Z</time>
      </trkpt>
      <trkpt lat="47.69424" lon="5.33288">
        <ele>232</ele>
        <time>2020-07-24T13:13:39Z</time>
      </trkpt>
      <trkpt lat="47.69412" lon="5.33301">
        <ele>232.9</ele>
        <time>2020-07-24T13:13:44Z</time>
      </trkpt>
      <trkpt lat="47.69395" lon="5.33313">
        <ele>232.8</ele>
        <time>2020-07-24T13:13:49Z</time>
      </trkpt>
      <trkpt lat="47.69382" lon="5.33327">
        <ele>233</ele>
        <time>2020-07-24T13:13:53Z</time>
      </trkpt>
      <trkpt lat="47.69366" lon="5.33345">
        <ele>232.6</ele>
        <time>2020-07-24T13:13:58Z</time>
      </trkpt>
      <trkpt lat="47.69347" lon="5.33363">
        <ele>230.6</ele>
        <time>2020-07-24T13:14:03Z</time>
      </trkpt>
      <trkpt lat="47.69329" lon="5.33381">
        <ele>230.7</ele>
        <time>2020-07-24T13:14:08Z</time>
      </trkpt>
      <trkpt lat="47.69316" lon="5.33395">
        <ele>230.6</ele>
        <time>2020-07-24T13:14:12Z</time>
      </trkpt>
      <trkpt lat="47.693" lon="5.33409">
        <ele>230</ele>
        <time>2020-07-24T13:14:16Z</time>
      </trkpt>
      <trkpt lat="47.69284" lon="5.33425">
        <ele>229.5</ele>
        <time>2020-07-24T13:14:20Z</time>
      </trkpt>
      <trkpt lat="47.69266" lon="5.33445">
        <ele>229.5</ele>
        <time>2020-07-24T13:14:25Z</time>
      </trkpt>
      <trkpt lat="47.69251" lon="5.33463">
        <ele>230.2</ele>
        <time>2020-07-24T13:14:29Z</time>
      </trkpt>
      <trkpt lat="47.69233" lon="5.33488">
        <ele>230.7</ele>
        <time>2020-07-24T13:14:34Z</time>
      </trkpt>
      <trkpt lat="47.69222" lon="5.33506">
        <ele>230.4</ele>
        <time>2020-07-24T13:14:38Z</time>
      </trkpt>
      <trkpt lat="47.69212" lon="5.33523">
        <ele>230.2</ele>
        <time>2020-07-24T13:14:42Z</time>
      </trkpt>
      <trkpt lat="47.69202" lon="5.33539">
        <ele>230.3</ele>
        <time>2020-07-24T13:14:46Z</time>
      </trkpt>
      <trkpt lat="47.69192" lon="5.33556">
        <ele>230.1</ele>
        <time>2020-07-24T13:14:50Z</time>
      </trkpt>
      <trkpt lat="47.69179" lon="5.33577">
        <ele>229.4</ele>
        <time>2020-07-24T13:14:55Z</time>
      </trkpt>
      <trkpt lat="47.69169" lon="5.3359">
        <ele>228.7</ele>
        <time>2020-07-24T13:14:59Z</time>
      </trkpt>
      <trkpt lat="47.69157" lon="5.33612">
        <ele>227.1</ele>
        <time>2020-07-24T13:15:03Z</time>
      </trkpt>
      <trkpt lat="47.69141" lon="5.33644">
        <ele>226.5</ele>
        <time>2020-07-24T13:15:08Z</time>
      </trkpt>
      <trkpt lat="47.69131" lon="5.3367">
        <ele>227.7</ele>
        <time>2020-07-24T13:15:12Z</time>
      </trkpt>
      <trkpt lat="47.69118" lon="5.33681">
        <ele>228.8</ele>
        <time>2020-07-24T13:15:17Z</time>
      </trkpt>
      <trkpt lat="47.69103" lon="5.33675">
        <ele>226.3</ele>
        <time>2020-07-24T13:15:22Z</time>
      </trkpt>
      <trkpt lat="47.69094" lon="5.3366">
        <ele>223.5</ele>
        <time>2020-07-24T13:15:27Z</time>
      </trkpt>
      <trkpt lat="47.69086" lon="5.33654">
        <ele>222.6</ele>
        <time>2020-07-24T13:15:31Z</time>
      </trkpt>
      <trkpt lat="47.69074" lon="5.33647">
        <ele>222.4</ele>
        <time>2020-07-24T13:15:36Z</time>
      </trkpt>
      <trkpt lat="47.69067" lon="5.33646">
        <ele>223.7</ele>
        <time>2020-07-24T13:15:40Z</time>
      </trkpt>
      <trkpt lat="47.69057" lon="5.33657">
        <ele>219.9</ele>
        <time>2020-07-24T13:15:45Z</time>
      </trkpt>
      <trkpt lat="47.69048" lon="5.33676">
        <ele>218.5</ele>
        <time>2020-07-24T13:15:49Z</time>
      </trkpt>
      <trkpt lat="47.69038" lon="5.33698">
        <ele>219</ele>
        <time>2020-07-24T13:15:53Z</time>
      </trkpt>
      <trkpt lat="47.69028" lon="5.33719">
        <ele>218.6</ele>
        <time>2020-07-24T13:15:57Z</time>
      </trkpt>
      <trkpt lat="47.69017" lon="5.3374">
        <ele>217.6</ele>
        <time>2020-07-24T13:16:01Z</time>
      </trkpt>
      <trkpt lat="47.69006" lon="5.33761">
        <ele>216.4</ele>
        <time>2020-07-24T13:16:05Z</time>
      </trkpt>
      <trkpt lat="47.68992" lon="5.33785">
        <ele>212.2</ele>
        <time>2020-07-24T13:16:10Z</time>
      </trkpt>
      <trkpt lat="47.6898" lon="5.3381">
        <ele>210</ele>
        <time>2020-07-24T13:16:14Z</time>
      </trkpt>
      <trkpt lat="47.68966" lon="5.33842">
        <ele>210.4</ele>
        <time>2020-07-24T13:16:18Z</time>
      </trkpt>
      <trkpt lat="47.68955" lon="5.33876">
        <ele>211.2</ele>
        <time>2020-07-24T13:16:22Z</time>
      </trkpt>
      <trkpt lat="47.68944" lon="5.33918">
        <ele>211.7</ele>
        <time>2020-07-24T13:16:27Z</time>
      </trkpt>
      <trkpt lat="47.68934" lon="5.33958">
        <ele>214.3</ele>
        <time>2020-07-24T13:16:32Z</time>
      </trkpt>
      <trkpt lat="47.68927" lon="5.33993">
        <ele>217.3</ele>
        <time>2020-07-24T13:16:37Z</time>
      </trkpt>
      <trkpt lat="47.6892" lon="5.34018">
        <ele>218.5</ele>
        <time>2020-07-24T13:16:41Z</time>
      </trkpt>
      <trkpt lat="47.68911" lon="5.34039">
        <ele>220</ele>
        <time>2020-07-24T13:16:45Z</time>
      </trkpt>
      <trkpt lat="47.68902" lon="5.34055">
        <ele>221.6</ele>
        <time>2020-07-24T13:16:49Z</time>
      </trkpt>
      <trkpt lat="47.68887" lon="5.34077">
        <ele>223.6</ele>
        <time>2020-07-24T13:16:54Z</time>
      </trkpt>
      <trkpt lat="47.68876" lon="5.34095">
        <ele>223.8</ele>
        <time>2020-07-24T13:16:58Z</time>
      </trkpt>
      <trkpt lat="47.68864" lon="5.34113">
        <ele>223.1</ele>
        <time>2020-07-24T13:17:02Z</time>
      </trkpt>
      <trkpt lat="47.68851" lon="5.34126">
        <ele>225.2</ele>
        <time>2020-07-24T13:17:06Z</time>
      </trkpt>
      <trkpt lat="47.68836" lon="5.34139">
        <ele>226.6</ele>
        <time>2020-07-24T13:17:10Z</time>
      </trkpt>
      <trkpt lat="47.68814" lon="5.34155">
        <ele>227.8</ele>
        <time>2020-07-24T13:17:15Z</time>
      </trkpt>
      <trkpt lat="47.68793" lon="5.34173">
        <ele>228.4</ele>
        <time>2020-07-24T13:17:19Z</time>
      </trkpt>
      <trkpt lat="47.68776" lon="5.34201">
        <ele>228.1</ele>
        <time>2020-07-24T13:17:23Z</time>
      </trkpt>
      <trkpt lat="47.68755" lon="5.34246">
        <ele>222.1</ele>
        <time>2020-07-24T13:17:28Z</time>
      </trkpt>
      <trkpt lat="47.68725" lon="5.34274">
        <ele>222.8</ele>
        <time>2020-07-24T13:17:33Z</time>
      </trkpt>
      <trkpt lat="47.68699" lon="5.34283">
        <ele>225.1</ele>
        <time>2020-07-24T13:17:37Z</time>
      </trkpt>
      <trkpt lat="47.68673" lon="5.34292">
        <ele>224.6</ele>
        <time>2020-07-24T13:17:41Z</time>
      </trkpt>
      <trkpt lat="47.68638" lon="5.34295">
        <ele>223.5</ele>
        <time>2020-07-24T13:17:46Z</time>
      </trkpt>
      <trkpt lat="47.68612" lon="5.34293">
        <ele>226.6</ele>
        <time>2020-07-24T13:17:50Z</time>
      </trkpt>
      <trkpt lat="47.68585" lon="5.34294">
        <ele>230.3</ele>
        <time>2020-07-24T13:17:54Z</time>
      </trkpt>
      <trkpt lat="47.68563" lon="5.34297">
        <ele>232.3</ele>
        <time>2020-07-24T13:17:58Z</time>
      </trkpt>
      <trkpt lat="47.68541" lon="5.343">
        <ele>233.6</ele>
        <time>2020-07-24T13:18:02Z</time>
      </trkpt>
      <trkpt lat="47.68521" lon="5.34304">
        <ele>234.4</ele>
        <time>2020-07-24T13:18:06Z</time>
      </trkpt>
      <trkpt lat="47.68493" lon="5.34313">
        <ele>234</ele>
        <time>2020-07-24T13:18:11Z</time>
      </trkpt>
      <trkpt lat="47.68468" lon="5.34324">
        <ele>236.6</ele>
        <time>2020-07-24T13:18:16Z</time>
      </trkpt>
      <trkpt lat="47.68448" lon="5.3434">
        <ele>238.7</ele>
        <time>2020-07-24T13:18:20Z</time>
      </trkpt>
      <trkpt lat="47.68432" lon="5.34365">
        <ele>234.4</ele>
        <time>2020-07-24T13:18:24Z</time>
      </trkpt>
      <trkpt lat="47.68408" lon="5.34398">
        <ele>234.1</ele>
        <time>2020-07-24T13:18:29Z</time>
      </trkpt>
      <trkpt lat="47.68388" lon="5.34419">
        <ele>232.3</ele>
        <time>2020-07-24T13:18:33Z</time>
      </trkpt>
      <trkpt lat="47.68369" lon="5.34441">
        <ele>229.8</ele>
        <time>2020-07-24T13:18:37Z</time>
      </trkpt>
      <trkpt lat="47.68351" lon="5.34467">
        <ele>229.6</ele>
        <time>2020-07-24T13:18:41Z</time>
      </trkpt>
      <trkpt lat="47.68331" lon="5.34499">
        <ele>227.2</ele>
        <time>2020-07-24T13:18:46Z</time>
      </trkpt>
      <trkpt lat="47.68314" lon="5.34526">
        <ele>225.9</ele>
        <time>2020-07-24T13:18:50Z</time>
      </trkpt>
      <trkpt lat="47.68298" lon="5.34552">
        <ele>223.2</ele>
        <time>2020-07-24T13:18:54Z</time>
      </trkpt>
      <trkpt lat="47.68274" lon="5.34583">
        <ele>223.4</ele>
        <time>2020-07-24T13:18:59Z</time>
      </trkpt>
      <trkpt lat="47.68254" lon="5.34602">
        <ele>224.2</ele>
        <time>2020-07-24T13:19:03Z</time>
      </trkpt>
      <trkpt lat="47.68231" lon="5.34623">
        <ele>226.3</ele>
        <time>2020-07-24T13:19:08Z</time>
      </trkpt>
      <trkpt lat="47.68213" lon="5.3464">
        <ele>226.9</ele>
        <time>2020-07-24T13:19:12Z</time>
      </trkpt>
      <trkpt lat="47.68194" lon="5.34658">
        <ele>228.1</ele>
        <time>2020-07-24T13:19:16Z</time>
      </trkpt>
      <trkpt lat="47.68169" lon="5.34681">
        <ele>229.1</ele>
        <time>2020-07-24T13:19:21Z</time>
      </trkpt>
      <trkpt lat="47.68147" lon="5.34701">
        <ele>227.6</ele>
        <time>2020-07-24T13:19:25Z</time>
      </trkpt>
      <trkpt lat="47.68118" lon="5.34726">
        <ele>225.6</ele>
        <time>2020-07-24T13:19:30Z</time>
      </trkpt>
      <trkpt lat="47.68093" lon="5.34746">
        <ele>226</ele>
        <time>2020-07-24T13:19:34Z</time>
      </trkpt>
      <trkpt lat="47.6806" lon="5.34763">
        <ele>226.6</ele>
        <time>2020-07-24T13:19:39Z</time>
      </trkpt>
      <trkpt lat="47.68033" lon="5.34775">
        <ele>229.2</ele>
        <time>2020-07-24T13:19:43Z</time>
      </trkpt>
      <trkpt lat="47.68007" lon="5.34783">
        <ele>229</ele>
        <time>2020-07-24T13:19:47Z</time>
      </trkpt>
      <trkpt lat="47.67974" lon="5.34795">
        <ele>228</ele>
        <time>2020-07-24T13:19:52Z</time>
      </trkpt>
      <trkpt lat="47.67944" lon="5.3481">
        <ele>227.2</ele>
        <time>2020-07-24T13:19:57Z</time>
      </trkpt>
      <trkpt lat="47.67917" lon="5.34828">
        <ele>225.6</ele>
        <time>2020-07-24T13:20:02Z</time>
      </trkpt>
      <trkpt lat="47.67898" lon="5.34846">
        <ele>224</ele>
        <time>2020-07-24T13:20:06Z</time>
      </trkpt>
      <trkpt lat="47.67876" lon="5.34872">
        <ele>225.1</ele>
        <time>2020-07-24T13:20:11Z</time>
      </trkpt>
      <trkpt lat="47.6786" lon="5.34892">
        <ele>225.7</ele>
        <time>2020-07-24T13:20:15Z</time>
      </trkpt>
      <trkpt lat="47.67843" lon="5.34919">
        <ele>226.9</ele>
        <time>2020-07-24T13:20:20Z</time>
      </trkpt>
      <trkpt lat="47.6783" lon="5.3494">
        <ele>224.4</ele>
        <time>2020-07-24T13:20:24Z</time>
      </trkpt>
      <trkpt lat="47.67819" lon="5.34963">
        <ele>222.3</ele>
        <time>2020-07-24T13:20:28Z</time>
      </trkpt>
      <trkpt lat="47.67805" lon="5.34994">
        <ele>222.2</ele>
        <time>2020-07-24T13:20:33Z</time>
      </trkpt>
      <trkpt lat="47.67794" lon="5.35024">
        <ele>223.2</ele>
        <time>2020-07-24T13:20:38Z</time>
      </trkpt>
      <trkpt lat="47.67784" lon="5.35045">
        <ele>222.7</ele>
        <time>2020-07-24T13:20:42Z</time>
      </trkpt>
      <trkpt lat="47.67771" lon="5.35068">
        <ele>222.9</ele>
        <time>2020-07-24T13:20:47Z</time>
      </trkpt>
      <trkpt lat="47.67762" lon="5.35082">
        <ele>224.9</ele>
        <time>2020-07-24T13:20:51Z</time>
      </trkpt>
      <trkpt lat="47.67748" lon="5.35091">
        <ele>229</ele>
        <time>2020-07-24T13:20:56Z</time>
      </trkpt>
      <trkpt lat="47.67735" lon="5.35097">
        <ele>230.2</ele>
        <time>2020-07-24T13:21:00Z</time>
      </trkpt>
      <trkpt lat="47.67722" lon="5.351">
        <ele>229.4</ele>
        <time>2020-07-24T13:21:05Z</time>
      </trkpt>
      <trkpt lat="47.6771" lon="5.35101">
        <ele>229.2</ele>
        <time>2020-07-24T13:21:09Z</time>
      </trkpt>
      <trkpt lat="47.67694" lon="5.35102">
        <ele>228.9</ele>
        <time>2020-07-24T13:21:14Z</time>
      </trkpt>
      <trkpt lat="47.67681" lon="5.35104">
        <ele>230.4</ele>
        <time>2020-07-24T13:21:18Z</time>
      </trkpt>
      <trkpt lat="47.67666" lon="5.35106">
        <ele>230.9</ele>
        <time>2020-07-24T13:21:22Z</time>
      </trkpt>
      <trkpt lat="47.6765" lon="5.35108">
        <ele>231.5</ele>
        <time>2020-07-24T13:21:26Z</time>
      </trkpt>
      <trkpt lat="47.67628" lon="5.3511">
        <ele>231.8</ele>
        <time>2020-07-24T13:21:31Z</time>
      </trkpt>
      <trkpt lat="47.67605" lon="5.35115">
        <ele>233.7</ele>
        <time>2020-07-24T13:21:36Z</time>
      </trkpt>
      <trkpt lat="47.67586" lon="5.35122">
        <ele>235.8</ele>
        <time>2020-07-24T13:21:40Z</time>
      </trkpt>
      <trkpt lat="47.67561" lon="5.35132">
        <ele>236.4</ele>
        <time>2020-07-24T13:21:45Z</time>
      </trkpt>
      <trkpt lat="47.67533" lon="5.35146">
        <ele>235</ele>
        <time>2020-07-24T13:21:50Z</time>
      </trkpt>
      <trkpt lat="47.67511" lon="5.35157">
        <ele>233.6</ele>
        <time>2020-07-24T13:21:54Z</time>
      </trkpt>
      <trkpt lat="47.67488" lon="5.35169">
        <ele>231.8</ele>
        <time>2020-07-24T13:21:58Z</time>
      </trkpt>
      <trkpt lat="47.6746" lon="5.35184">
        <ele>232.5</ele>
        <time>2020-07-24T13:22:03Z</time>
      </trkpt>
      <trkpt lat="47.6743" lon="5.35198">
        <ele>232</ele>
        <time>2020-07-24T13:22:08Z</time>
      </trkpt>
      <trkpt lat="47.67405" lon="5.35205">
        <ele>231.2</ele>
        <time>2020-07-24T13:22:12Z</time>
      </trkpt>
      <trkpt lat="47.67379" lon="5.35207">
        <ele>231.4</ele>
        <time>2020-07-24T13:22:16Z</time>
      </trkpt>
      <trkpt lat="47.67347" lon="5.35205">
        <ele>231.3</ele>
        <time>2020-07-24T13:22:21Z</time>
      </trkpt>
      <trkpt lat="47.67321" lon="5.35203">
        <ele>229.5</ele>
        <time>2020-07-24T13:22:25Z</time>
      </trkpt>
      <trkpt lat="47.67289" lon="5.35195">
        <ele>227.8</ele>
        <time>2020-07-24T13:22:30Z</time>
      </trkpt>
      <trkpt lat="47.67265" lon="5.35183">
        <ele>228.6</ele>
        <time>2020-07-24T13:22:34Z</time>
      </trkpt>
      <trkpt lat="47.67234" lon="5.35164">
        <ele>226.7</ele>
        <time>2020-07-24T13:22:39Z</time>
      </trkpt>
      <trkpt lat="47.67203" lon="5.35144">
        <ele>227.3</ele>
        <time>2020-07-24T13:22:44Z</time>
      </trkpt>
      <trkpt lat="47.6718" lon="5.3513">
        <ele>228.4</ele>
        <time>2020-07-24T13:22:48Z</time>
      </trkpt>
      <trkpt lat="47.67158" lon="5.35117">
        <ele>228.9</ele>
        <time>2020-07-24T13:22:52Z</time>
      </trkpt>
      <trkpt lat="47.67132" lon="5.35104">
        <ele>230.3</ele>
        <time>2020-07-24T13:22:57Z</time>
      </trkpt>
      <trkpt lat="47.67106" lon="5.35096">
        <ele>230.9</ele>
        <time>2020-07-24T13:23:02Z</time>
      </trkpt>
      <trkpt lat="47.67085" lon="5.35094">
        <ele>230.4</ele>
        <time>2020-07-24T13:23:06Z</time>
      </trkpt>
      <trkpt lat="47.67056" lon="5.351">
        <ele>230.3</ele>
        <time>2020-07-24T13:23:11Z</time>
      </trkpt>
      <trkpt lat="47.67023" lon="5.35105">
        <ele>229.1</ele>
        <time>2020-07-24T13:23:16Z</time>
      </trkpt>
      <trkpt lat="47.66995" lon="5.35102">
        <ele>227.5</ele>
        <time>2020-07-24T13:23:20Z</time>
      </trkpt>
      <trkpt lat="47.66968" lon="5.35094">
        <ele>227.4</ele>
        <time>2020-07-24T13:23:24Z</time>
      </trkpt>
      <trkpt lat="47.66937" lon="5.35082">
        <ele>227.9</ele>
        <time>2020-07-24T13:23:29Z</time>
      </trkpt>
      <trkpt lat="47.6691" lon="5.35071">
        <ele>230.5</ele>
        <time>2020-07-24T13:23:34Z</time>
      </trkpt>
      <trkpt lat="47.66889" lon="5.35064">
        <ele>229.8</ele>
        <time>2020-07-24T13:23:38Z</time>
      </trkpt>
      <trkpt lat="47.66867" lon="5.35059">
        <ele>228.3</ele>
        <time>2020-07-24T13:23:42Z</time>
      </trkpt>
      <trkpt lat="47.66848" lon="5.35055">
        <ele>228.3</ele>
        <time>2020-07-24T13:23:46Z</time>
      </trkpt>
      <trkpt lat="47.66824" lon="5.35047">
        <ele>230.6</ele>
        <time>2020-07-24T13:23:51Z</time>
      </trkpt>
      <trkpt lat="47.66806" lon="5.3504">
        <ele>231.1</ele>
        <time>2020-07-24T13:23:55Z</time>
      </trkpt>
      <trkpt lat="47.66786" lon="5.35034">
        <ele>231.1</ele>
        <time>2020-07-24T13:23:59Z</time>
      </trkpt>
      <trkpt lat="47.66766" lon="5.35029">
        <ele>231.4</ele>
        <time>2020-07-24T13:24:03Z</time>
      </trkpt>
      <trkpt lat="47.66748" lon="5.35024">
        <ele>232.4</ele>
        <time>2020-07-24T13:24:07Z</time>
      </trkpt>
      <trkpt lat="47.66728" lon="5.35017">
        <ele>233.6</ele>
        <time>2020-07-24T13:24:11Z</time>
      </trkpt>
      <trkpt lat="47.66709" lon="5.35012">
        <ele>233.8</ele>
        <time>2020-07-24T13:24:15Z</time>
      </trkpt>
      <trkpt lat="47.66689" lon="5.35008">
        <ele>232.9</ele>
        <time>2020-07-24T13:24:19Z</time>
      </trkpt>
      <trkpt lat="47.66667" lon="5.35003">
        <ele>231.5</ele>
        <time>2020-07-24T13:24:23Z</time>
      </trkpt>
      <trkpt lat="47.66643" lon="5.35">
        <ele>231.2</ele>
        <time>2020-07-24T13:24:27Z</time>
      </trkpt>
      <trkpt lat="47.66614" lon="5.34992">
        <ele>230.7</ele>
        <time>2020-07-24T13:24:32Z</time>
      </trkpt>
      <trkpt lat="47.66591" lon="5.3498">
        <ele>229.2</ele>
        <time>2020-07-24T13:24:36Z</time>
      </trkpt>
      <trkpt lat="47.6656" lon="5.34963">
        <ele>228.4</ele>
        <time>2020-07-24T13:24:41Z</time>
      </trkpt>
      <trkpt lat="47.66536" lon="5.34949">
        <ele>227.5</ele>
        <time>2020-07-24T13:24:45Z</time>
      </trkpt>
      <trkpt lat="47.66507" lon="5.3493">
        <ele>225.3</ele>
        <time>2020-07-24T13:24:50Z</time>
      </trkpt>
      <trkpt lat="47.66485" lon="5.34916">
        <ele>224.8</ele>
        <time>2020-07-24T13:24:54Z</time>
      </trkpt>
      <trkpt lat="47.66466" lon="5.34904">
        <ele>225</ele>
        <time>2020-07-24T13:24:58Z</time>
      </trkpt>
      <trkpt lat="47.66448" lon="5.34893">
        <ele>225.8</ele>
        <time>2020-07-24T13:25:02Z</time>
      </trkpt>
      <trkpt lat="47.66428" lon="5.34881">
        <ele>225.7</ele>
        <time>2020-07-24T13:25:07Z</time>
      </trkpt>
      <trkpt lat="47.66414" lon="5.34869">
        <ele>225.8</ele>
        <time>2020-07-24T13:25:11Z</time>
      </trkpt>
      <trkpt lat="47.66397" lon="5.34855">
        <ele>225.7</ele>
        <time>2020-07-24T13:25:16Z</time>
      </trkpt>
      <trkpt lat="47.66381" lon="5.34841">
        <ele>228</ele>
        <time>2020-07-24T13:25:21Z</time>
      </trkpt>
      <trkpt lat="47.66368" lon="5.34828">
        <ele>228.6</ele>
        <time>2020-07-24T13:25:25Z</time>
      </trkpt>
      <trkpt lat="47.66353" lon="5.34813">
        <ele>226.4</ele>
        <time>2020-07-24T13:25:30Z</time>
      </trkpt>
      <trkpt lat="47.6634" lon="5.34799">
        <ele>225.1</ele>
        <time>2020-07-24T13:25:34Z</time>
      </trkpt>
      <trkpt lat="47.66321" lon="5.34778">
        <ele>227.1</ele>
        <time>2020-07-24T13:25:39Z</time>
      </trkpt>
      <trkpt lat="47.66304" lon="5.34762">
        <ele>227.8</ele>
        <time>2020-07-24T13:25:43Z</time>
      </trkpt>
      <trkpt lat="47.66277" lon="5.34745">
        <ele>227.9</ele>
        <time>2020-07-24T13:25:48Z</time>
      </trkpt>
      <trkpt lat="47.66245" lon="5.34734">
        <ele>226.3</ele>
        <time>2020-07-24T13:25:53Z</time>
      </trkpt>
      <trkpt lat="47.6622" lon="5.34729">
        <ele>225.2</ele>
        <time>2020-07-24T13:25:57Z</time>
      </trkpt>
      <trkpt lat="47.66188" lon="5.34726">
        <ele>225</ele>
        <time>2020-07-24T13:26:02Z</time>
      </trkpt>
      <trkpt lat="47.66159" lon="5.34724">
        <ele>225.2</ele>
        <time>2020-07-24T13:26:06Z</time>
      </trkpt>
      <trkpt lat="47.66119" lon="5.34722">
        <ele>224.9</ele>
        <time>2020-07-24T13:26:11Z</time>
      </trkpt>
      <trkpt lat="47.66084" lon="5.34719">
        <ele>223.9</ele>
        <time>2020-07-24T13:26:15Z</time>
      </trkpt>
      <trkpt lat="47.66049" lon="5.34709">
        <ele>222.1</ele>
        <time>2020-07-24T13:26:19Z</time>
      </trkpt>
      <trkpt lat="47.66008" lon="5.34699">
        <ele>222</ele>
        <time>2020-07-24T13:26:24Z</time>
      </trkpt>
      <trkpt lat="47.65979" lon="5.34691">
        <ele>223.1</ele>
        <time>2020-07-24T13:26:28Z</time>
      </trkpt>
      <trkpt lat="47.65949" lon="5.34681">
        <ele>224.5</ele>
        <time>2020-07-24T13:26:33Z</time>
      </trkpt>
      <trkpt lat="47.65922" lon="5.34679">
        <ele>223.2</ele>
        <time>2020-07-24T13:26:38Z</time>
      </trkpt>
      <trkpt lat="47.65903" lon="5.34675">
        <ele>223.9</ele>
        <time>2020-07-24T13:26:42Z</time>
      </trkpt>
      <trkpt lat="47.65884" lon="5.3467">
        <ele>223.9</ele>
        <time>2020-07-24T13:26:46Z</time>
      </trkpt>
      <trkpt lat="47.65866" lon="5.34666">
        <ele>223.8</ele>
        <time>2020-07-24T13:26:50Z</time>
      </trkpt>
      <trkpt lat="47.65844" lon="5.34661">
        <ele>223.5</ele>
        <time>2020-07-24T13:26:55Z</time>
      </trkpt>
      <trkpt lat="47.65826" lon="5.34655">
        <ele>221.9</ele>
        <time>2020-07-24T13:26:59Z</time>
      </trkpt>
      <trkpt lat="47.65808" lon="5.34647">
        <ele>220.5</ele>
        <time>2020-07-24T13:27:03Z</time>
      </trkpt>
      <trkpt lat="47.65789" lon="5.34639">
        <ele>215.8</ele>
        <time>2020-07-24T13:27:08Z</time>
      </trkpt>
      <trkpt lat="47.65772" lon="5.34629">
        <ele>215.9</ele>
        <time>2020-07-24T13:27:12Z</time>
      </trkpt>
      <trkpt lat="47.65756" lon="5.34619">
        <ele>217.5</ele>
        <time>2020-07-24T13:27:16Z</time>
      </trkpt>
      <trkpt lat="47.6574" lon="5.34609">
        <ele>218.8</ele>
        <time>2020-07-24T13:27:20Z</time>
      </trkpt>
      <trkpt lat="47.6572" lon="5.34596">
        <ele>220</ele>
        <time>2020-07-24T13:27:25Z</time>
      </trkpt>
      <trkpt lat="47.657" lon="5.34584">
        <ele>222.4</ele>
        <time>2020-07-24T13:27:30Z</time>
      </trkpt>
      <trkpt lat="47.6568" lon="5.34572">
        <ele>224.4</ele>
        <time>2020-07-24T13:27:35Z</time>
      </trkpt>
      <trkpt lat="47.65665" lon="5.34563">
        <ele>226.1</ele>
        <time>2020-07-24T13:27:39Z</time>
      </trkpt>
      <trkpt lat="47.65649" lon="5.34554">
        <ele>225.4</ele>
        <time>2020-07-24T13:27:43Z</time>
      </trkpt>
      <trkpt lat="47.65632" lon="5.34546">
        <ele>226.4</ele>
        <time>2020-07-24T13:27:47Z</time>
      </trkpt>
      <trkpt lat="47.65609" lon="5.34533">
        <ele>225.1</ele>
        <time>2020-07-24T13:27:52Z</time>
      </trkpt>
      <trkpt lat="47.65591" lon="5.34522">
        <ele>224.7</ele>
        <time>2020-07-24T13:27:56Z</time>
      </trkpt>
      <trkpt lat="47.6557" lon="5.34511">
        <ele>223.8</ele>
        <time>2020-07-24T13:28:01Z</time>
      </trkpt>
      <trkpt lat="47.65553" lon="5.345">
        <ele>222</ele>
        <time>2020-07-24T13:28:05Z</time>
      </trkpt>
      <trkpt lat="47.65535" lon="5.34492">
        <ele>221.6</ele>
        <time>2020-07-24T13:28:09Z</time>
      </trkpt>
      <trkpt lat="47.65519" lon="5.34482">
        <ele>221.9</ele>
        <time>2020-07-24T13:28:13Z</time>
      </trkpt>
      <trkpt lat="47.65497" lon="5.3447">
        <ele>219.4</ele>
        <time>2020-07-24T13:28:18Z</time>
      </trkpt>
      <trkpt lat="47.65479" lon="5.3446">
        <ele>218.6</ele>
        <time>2020-07-24T13:28:22Z</time>
      </trkpt>
      <trkpt lat="47.65462" lon="5.34449">
        <ele>219.1</ele>
        <time>2020-07-24T13:28:26Z</time>
      </trkpt>
      <trkpt lat="47.65445" lon="5.3444">
        <ele>219.1</ele>
        <time>2020-07-24T13:28:30Z</time>
      </trkpt>
      <trkpt lat="47.65429" lon="5.34433">
        <ele>220.2</ele>
        <time>2020-07-24T13:28:34Z</time>
      </trkpt>
      <trkpt lat="47.65409" lon="5.34441">
        <ele>221.2</ele>
        <time>2020-07-24T13:28:39Z</time>
      </trkpt>
      <trkpt lat="47.65393" lon="5.34463">
        <ele>221.6</ele>
        <time>2020-07-24T13:28:43Z</time>
      </trkpt>
      <trkpt lat="47.65373" lon="5.34481">
        <ele>221.8</ele>
        <time>2020-07-24T13:28:47Z</time>
      </trkpt>
      <trkpt lat="47.65352" lon="5.34482">
        <ele>223.2</ele>
        <time>2020-07-24T13:28:51Z</time>
      </trkpt>
      <trkpt lat="47.65333" lon="5.34479">
        <ele>223</ele>
        <time>2020-07-24T13:28:55Z</time>
      </trkpt>
      <trkpt lat="47.65309" lon="5.34476">
        <ele>222.9</ele>
        <time>2020-07-24T13:29:00Z</time>
      </trkpt>
      <trkpt lat="47.65288" lon="5.34473">
        <ele>220.4</ele>
        <time>2020-07-24T13:29:05Z</time>
      </trkpt>
      <trkpt lat="47.6527" lon="5.3447">
        <ele>218.4</ele>
        <time>2020-07-24T13:29:09Z</time>
      </trkpt>
      <trkpt lat="47.65252" lon="5.34468">
        <ele>217.8</ele>
        <time>2020-07-24T13:29:13Z</time>
      </trkpt>
      <trkpt lat="47.65233" lon="5.3447">
        <ele>216.9</ele>
        <time>2020-07-24T13:29:17Z</time>
      </trkpt>
      <trkpt lat="47.65209" lon="5.34468">
        <ele>216.9</ele>
        <time>2020-07-24T13:29:22Z</time>
      </trkpt>
      <trkpt lat="47.65191" lon="5.34466">
        <ele>217.6</ele>
        <time>2020-07-24T13:29:26Z</time>
      </trkpt>
      <trkpt lat="47.65174" lon="5.34464">
        <ele>218.4</ele>
        <time>2020-07-24T13:29:30Z</time>
      </trkpt>
      <trkpt lat="47.6515" lon="5.34461">
        <ele>218.8</ele>
        <time>2020-07-24T13:29:35Z</time>
      </trkpt>
      <trkpt lat="47.6513" lon="5.34457">
        <ele>222.1</ele>
        <time>2020-07-24T13:29:39Z</time>
      </trkpt>
      <trkpt lat="47.65109" lon="5.34455">
        <ele>224.9</ele>
        <time>2020-07-24T13:29:43Z</time>
      </trkpt>
      <trkpt lat="47.65088" lon="5.34452">
        <ele>227.1</ele>
        <time>2020-07-24T13:29:47Z</time>
      </trkpt>
      <trkpt lat="47.6506" lon="5.34449">
        <ele>227.7</ele>
        <time>2020-07-24T13:29:52Z</time>
      </trkpt>
      <trkpt lat="47.65038" lon="5.34444">
        <ele>226.5</ele>
        <time>2020-07-24T13:29:56Z</time>
      </trkpt>
      <trkpt lat="47.65015" lon="5.34437">
        <ele>222.8</ele>
        <time>2020-07-24T13:30:01Z</time>
      </trkpt>
      <trkpt lat="47.65006" lon="5.34452">
        <ele>221.8</ele>
        <time>2020-07-24T13:30:05Z</time>
      </trkpt>
      <trkpt lat="47.64983" lon="5.34449">
        <ele>218.7</ele>
        <time>2020-07-24T13:30:10Z</time>
      </trkpt>
      <trkpt lat="47.64966" lon="5.34442">
        <ele>217</ele>
        <time>2020-07-24T13:30:14Z</time>
      </trkpt>
      <trkpt lat="47.64946" lon="5.3444">
        <ele>218</ele>
        <time>2020-07-24T13:30:18Z</time>
      </trkpt>
      <trkpt lat="47.64916" lon="5.34437">
        <ele>216.9</ele>
        <time>2020-07-24T13:30:23Z</time>
      </trkpt>
      <trkpt lat="47.64888" lon="5.34433">
        <ele>213.5</ele>
        <time>2020-07-24T13:30:27Z</time>
      </trkpt>
      <trkpt lat="47.6486" lon="5.3443">
        <ele>209.9</ele>
        <time>2020-07-24T13:30:32Z</time>
      </trkpt>
      <trkpt lat="47.64839" lon="5.34428">
        <ele>208.7</ele>
        <time>2020-07-24T13:30:36Z</time>
      </trkpt>
      <trkpt lat="47.64816" lon="5.34422">
        <ele>209</ele>
        <time>2020-07-24T13:30:41Z</time>
      </trkpt>
      <trkpt lat="47.64797" lon="5.34418">
        <ele>208.3</ele>
        <time>2020-07-24T13:30:46Z</time>
      </trkpt>
      <trkpt lat="47.64777" lon="5.34412">
        <ele>206.6</ele>
        <time>2020-07-24T13:30:50Z</time>
      </trkpt>
      <trkpt lat="47.64756" lon="5.34403">
        <ele>204.5</ele>
        <time>2020-07-24T13:30:54Z</time>
      </trkpt>
      <trkpt lat="47.64734" lon="5.34393">
        <ele>202.3</ele>
        <time>2020-07-24T13:30:59Z</time>
      </trkpt>
      <trkpt lat="47.64721" lon="5.34383">
        <ele>200.4</ele>
        <time>2020-07-24T13:31:03Z</time>
      </trkpt>
      <trkpt lat="47.64705" lon="5.34371">
        <ele>199.1</ele>
        <time>2020-07-24T13:31:08Z</time>
      </trkpt>
      <trkpt lat="47.64689" lon="5.34361">
        <ele>198.7</ele>
        <time>2020-07-24T13:31:12Z</time>
      </trkpt>
      <trkpt lat="47.64667" lon="5.3434">
        <ele>198.6</ele>
        <time>2020-07-24T13:31:17Z</time>
      </trkpt>
      <trkpt lat="47.64652" lon="5.3432">
        <ele>197.9</ele>
        <time>2020-07-24T13:31:21Z</time>
      </trkpt>
      <trkpt lat="47.64639" lon="5.34298">
        <ele>198.9</ele>
        <time>2020-07-24T13:31:25Z</time>
      </trkpt>
      <trkpt lat="47.64628" lon="5.34277">
        <ele>199.2</ele>
        <time>2020-07-24T13:31:29Z</time>
      </trkpt>
      <trkpt lat="47.64619" lon="5.34252">
        <ele>199.5</ele>
        <time>2020-07-24T13:31:33Z</time>
      </trkpt>
      <trkpt lat="47.6461" lon="5.3422">
        <ele>200.4</ele>
        <time>2020-07-24T13:31:38Z</time>
      </trkpt>
      <trkpt lat="47.64603" lon="5.34188">
        <ele>202.6</ele>
        <time>2020-07-24T13:31:43Z</time>
      </trkpt>
      <trkpt lat="47.64598" lon="5.34162">
        <ele>204.3</ele>
        <time>2020-07-24T13:31:47Z</time>
      </trkpt>
      <trkpt lat="47.64591" lon="5.34136">
        <ele>208.3</ele>
        <time>2020-07-24T13:31:51Z</time>
      </trkpt>
      <trkpt lat="47.64585" lon="5.34115">
        <ele>210.6</ele>
        <time>2020-07-24T13:31:55Z</time>
      </trkpt>
      <trkpt lat="47.64575" lon="5.34085">
        <ele>213.8</ele>
        <time>2020-07-24T13:32:00Z</time>
      </trkpt>
      <trkpt lat="47.64565" lon="5.34047">
        <ele>219</ele>
        <time>2020-07-24T13:32:05Z</time>
      </trkpt>
      <trkpt lat="47.6456" lon="5.34018">
        <ele>224</ele>
        <time>2020-07-24T13:32:09Z</time>
      </trkpt>
      <trkpt lat="47.64556" lon="5.33986">
        <ele>225.9</ele>
        <time>2020-07-24T13:32:13Z</time>
      </trkpt>
      <trkpt lat="47.64551" lon="5.33951">
        <ele>226</ele>
        <time>2020-07-24T13:32:18Z</time>
      </trkpt>
      <trkpt lat="47.64544" lon="5.33916">
        <ele>223.8</ele>
        <time>2020-07-24T13:32:23Z</time>
      </trkpt>
      <trkpt lat="47.64539" lon="5.33892">
        <ele>221.1</ele>
        <time>2020-07-24T13:32:27Z</time>
      </trkpt>
      <trkpt lat="47.64532" lon="5.33867">
        <ele>219.3</ele>
        <time>2020-07-24T13:32:31Z</time>
      </trkpt>
      <trkpt lat="47.64524" lon="5.33828">
        <ele>217.7</ele>
        <time>2020-07-24T13:32:36Z</time>
      </trkpt>
      <trkpt lat="47.64519" lon="5.33797">
        <ele>217.2</ele>
        <time>2020-07-24T13:32:40Z</time>
      </trkpt>
      <trkpt lat="47.64512" lon="5.33769">
        <ele>219</ele>
        <time>2020-07-24T13:32:44Z</time>
      </trkpt>
      <trkpt lat="47.64506" lon="5.33742">
        <ele>219.5</ele>
        <time>2020-07-24T13:32:48Z</time>
      </trkpt>
      <trkpt lat="47.64497" lon="5.33709">
        <ele>219.4</ele>
        <time>2020-07-24T13:32:53Z</time>
      </trkpt>
      <trkpt lat="47.64492" lon="5.33681">
        <ele>218.8</ele>
        <time>2020-07-24T13:32:57Z</time>
      </trkpt>
      <trkpt lat="47.64485" lon="5.33648">
        <ele>215.9</ele>
        <time>2020-07-24T13:33:02Z</time>
      </trkpt>
      <trkpt lat="47.6448" lon="5.33622">
        <ele>214.4</ele>
        <time>2020-07-24T13:33:06Z</time>
      </trkpt>
      <trkpt lat="47.64475" lon="5.33594">
        <ele>215.3</ele>
        <time>2020-07-24T13:33:10Z</time>
      </trkpt>
      <trkpt lat="47.64471" lon="5.33563">
        <ele>213.2</ele>
        <time>2020-07-24T13:33:15Z</time>
      </trkpt>
      <trkpt lat="47.64467" lon="5.3354">
        <ele>213.6</ele>
        <time>2020-07-24T13:33:19Z</time>
      </trkpt>
      <trkpt lat="47.64461" lon="5.33517">
        <ele>215</ele>
        <time>2020-07-24T13:33:23Z</time>
      </trkpt>
      <trkpt lat="47.64453" lon="5.33486">
        <ele>214.2</ele>
        <time>2020-07-24T13:33:28Z</time>
      </trkpt>
      <trkpt lat="47.64444" lon="5.33459">
        <ele>213.6</ele>
        <time>2020-07-24T13:33:32Z</time>
      </trkpt>
      <trkpt lat="47.64435" lon="5.33436">
        <ele>213</ele>
        <time>2020-07-24T13:33:36Z</time>
      </trkpt>
      <trkpt lat="47.64424" lon="5.33408">
        <ele>213.4</ele>
        <time>2020-07-24T13:33:41Z</time>
      </trkpt>
      <trkpt lat="47.64413" lon="5.33386">
        <ele>214.2</ele>
        <time>2020-07-24T13:33:45Z</time>
      </trkpt>
      <trkpt lat="47.64395" lon="5.33356">
        <ele>212.7</ele>
        <time>2020-07-24T13:33:50Z</time>
      </trkpt>
      <trkpt lat="47.64377" lon="5.33326">
        <ele>215.1</ele>
        <time>2020-07-24T13:33:55Z</time>
      </trkpt>
      <trkpt lat="47.64364" lon="5.33306">
        <ele>217.7</ele>
        <time>2020-07-24T13:33:59Z</time>
      </trkpt>
      <trkpt lat="47.64348" lon="5.3329">
        <ele>215.2</ele>
        <time>2020-07-24T13:34:03Z</time>
      </trkpt>
      <trkpt lat="47.64331" lon="5.33277">
        <ele>212.4</ele>
        <time>2020-07-24T13:34:07Z</time>
      </trkpt>
      <trkpt lat="47.64317" lon="5.33259">
        <ele>212.6</ele>
        <time>2020-07-24T13:34:11Z</time>
      </trkpt>
      <trkpt lat="47.64301" lon="5.33243">
        <ele>214.7</ele>
        <time>2020-07-24T13:34:15Z</time>
      </trkpt>
      <trkpt lat="47.64283" lon="5.33229">
        <ele>215.6</ele>
        <time>2020-07-24T13:34:19Z</time>
      </trkpt>
      <trkpt lat="47.64266" lon="5.33213">
        <ele>215.7</ele>
        <time>2020-07-24T13:34:23Z</time>
      </trkpt>
      <trkpt lat="47.64251" lon="5.33195">
        <ele>214.3</ele>
        <time>2020-07-24T13:34:28Z</time>
      </trkpt>
      <trkpt lat="47.64238" lon="5.33178">
        <ele>213.1</ele>
        <time>2020-07-24T13:34:33Z</time>
      </trkpt>
      <trkpt lat="47.64225" lon="5.33162">
        <ele>211.6</ele>
        <time>2020-07-24T13:34:37Z</time>
      </trkpt>
      <trkpt lat="47.64204" lon="5.33143">
        <ele>209.3</ele>
        <time>2020-07-24T13:34:41Z</time>
      </trkpt>
      <trkpt lat="47.64184" lon="5.33128">
        <ele>206.9</ele>
        <time>2020-07-24T13:34:45Z</time>
      </trkpt>
      <trkpt lat="47.64165" lon="5.33116">
        <ele>205.7</ele>
        <time>2020-07-24T13:34:49Z</time>
      </trkpt>
      <trkpt lat="47.64149" lon="5.33108">
        <ele>205.9</ele>
        <time>2020-07-24T13:34:53Z</time>
      </trkpt>
      <trkpt lat="47.64127" lon="5.33098">
        <ele>207.1</ele>
        <time>2020-07-24T13:34:58Z</time>
      </trkpt>
      <trkpt lat="47.64101" lon="5.33091">
        <ele>206.8</ele>
        <time>2020-07-24T13:35:03Z</time>
      </trkpt>
      <trkpt lat="47.64082" lon="5.33087">
        <ele>204.8</ele>
        <time>2020-07-24T13:35:07Z</time>
      </trkpt>
      <trkpt lat="47.64063" lon="5.33087">
        <ele>202.1</ele>
        <time>2020-07-24T13:35:11Z</time>
      </trkpt>
      <trkpt lat="47.64049" lon="5.33076">
        <ele>199.1</ele>
        <time>2020-07-24T13:35:15Z</time>
      </trkpt>
      <trkpt lat="47.64032" lon="5.33068">
        <ele>196.1</ele>
        <time>2020-07-24T13:35:19Z</time>
      </trkpt>
      <trkpt lat="47.64012" lon="5.33065">
        <ele>194.6</ele>
        <time>2020-07-24T13:35:24Z</time>
      </trkpt>
      <trkpt lat="47.63998" lon="5.33058">
        <ele>189.9</ele>
        <time>2020-07-24T13:35:28Z</time>
      </trkpt>
      <trkpt lat="47.63984" lon="5.33056">
        <ele>184.8</ele>
        <time>2020-07-24T13:35:32Z</time>
      </trkpt>
      <trkpt lat="47.63965" lon="5.33052">
        <ele>179.6</ele>
        <time>2020-07-24T13:35:37Z</time>
      </trkpt>
      <trkpt lat="47.6395" lon="5.3305">
        <ele>178.3</ele>
        <time>2020-07-24T13:35:41Z</time>
      </trkpt>
      <trkpt lat="47.63935" lon="5.33049">
        <ele>178.6</ele>
        <time>2020-07-24T13:35:45Z</time>
      </trkpt>
      <trkpt lat="47.63919" lon="5.33048">
        <ele>179.8</ele>
        <time>2020-07-24T13:35:49Z</time>
      </trkpt>
      <trkpt lat="47.63901" lon="5.33049">
        <ele>183</ele>
        <time>2020-07-24T13:35:54Z</time>
      </trkpt>
      <trkpt lat="47.63883" lon="5.33052">
        <ele>181.1</ele>
        <time>2020-07-24T13:35:59Z</time>
      </trkpt>
      <trkpt lat="47.63867" lon="5.33058">
        <ele>182</ele>
        <time>2020-07-24T13:36:03Z</time>
      </trkpt>
      <trkpt lat="47.63844" lon="5.33068">
        <ele>186</ele>
        <time>2020-07-24T13:36:08Z</time>
      </trkpt>
      <trkpt lat="47.63826" lon="5.33079">
        <ele>190.6</ele>
        <time>2020-07-24T13:36:12Z</time>
      </trkpt>
      <trkpt lat="47.6381" lon="5.33088">
        <ele>194.6</ele>
        <time>2020-07-24T13:36:16Z</time>
      </trkpt>
      <trkpt lat="47.63796" lon="5.33097">
        <ele>198.5</ele>
        <time>2020-07-24T13:36:20Z</time>
      </trkpt>
      <trkpt lat="47.63772" lon="5.33116">
        <ele>201.4</ele>
        <time>2020-07-24T13:36:25Z</time>
      </trkpt>
      <trkpt lat="47.63755" lon="5.33133">
        <ele>202.7</ele>
        <time>2020-07-24T13:36:29Z</time>
      </trkpt>
      <trkpt lat="47.63736" lon="5.33145">
        <ele>202.6</ele>
        <time>2020-07-24T13:36:33Z</time>
      </trkpt>
      <trkpt lat="47.63714" lon="5.33157">
        <ele>205.4</ele>
        <time>2020-07-24T13:36:38Z</time>
      </trkpt>
      <trkpt lat="47.63694" lon="5.33172">
        <ele>208.8</ele>
        <time>2020-07-24T13:36:42Z</time>
      </trkpt>
      <trkpt lat="47.63672" lon="5.33189">
        <ele>209.8</ele>
        <time>2020-07-24T13:36:46Z</time>
      </trkpt>
      <trkpt lat="47.63651" lon="5.332">
        <ele>210.6</ele>
        <time>2020-07-24T13:36:50Z</time>
      </trkpt>
      <trkpt lat="47.63633" lon="5.33207">
        <ele>211.2</ele>
        <time>2020-07-24T13:36:54Z</time>
      </trkpt>
      <trkpt lat="47.63616" lon="5.33217">
        <ele>211.8</ele>
        <time>2020-07-24T13:36:58Z</time>
      </trkpt>
      <trkpt lat="47.63602" lon="5.3323">
        <ele>212.9</ele>
        <time>2020-07-24T13:37:02Z</time>
      </trkpt>
      <trkpt lat="47.63583" lon="5.33243">
        <ele>214.3</ele>
        <time>2020-07-24T13:37:07Z</time>
      </trkpt>
      <trkpt lat="47.63567" lon="5.33253">
        <ele>215.5</ele>
        <time>2020-07-24T13:37:11Z</time>
      </trkpt>
      <trkpt lat="47.63553" lon="5.33259">
        <ele>216.4</ele>
        <time>2020-07-24T13:37:15Z</time>
      </trkpt>
      <trkpt lat="47.63535" lon="5.33268">
        <ele>217.1</ele>
        <time>2020-07-24T13:37:20Z</time>
      </trkpt>
      <trkpt lat="47.63519" lon="5.3328">
        <ele>217</ele>
        <time>2020-07-24T13:37:24Z</time>
      </trkpt>
      <trkpt lat="47.635" lon="5.33293">
        <ele>217.1</ele>
        <time>2020-07-24T13:37:28Z</time>
      </trkpt>
      <trkpt lat="47.63484" lon="5.33305">
        <ele>216.4</ele>
        <time>2020-07-24T13:37:32Z</time>
      </trkpt>
      <trkpt lat="47.63468" lon="5.33319">
        <ele>215</ele>
        <time>2020-07-24T13:37:36Z</time>
      </trkpt>
      <trkpt lat="47.63454" lon="5.33328">
        <ele>212.2</ele>
        <time>2020-07-24T13:37:40Z</time>
      </trkpt>
      <trkpt lat="47.63434" lon="5.33341">
        <ele>206.2</ele>
        <time>2020-07-24T13:37:45Z</time>
      </trkpt>
      <trkpt lat="47.63418" lon="5.33352">
        <ele>203</ele>
        <time>2020-07-24T13:37:49Z</time>
      </trkpt>
      <trkpt lat="47.63398" lon="5.33363">
        <ele>199.2</ele>
        <time>2020-07-24T13:37:54Z</time>
      </trkpt>
      <trkpt lat="47.63386" lon="5.33367">
        <ele>197.9</ele>
        <time>2020-07-24T13:37:58Z</time>
      </trkpt>
      <trkpt lat="47.63372" lon="5.33373">
        <ele>196.1</ele>
        <time>2020-07-24T13:38:02Z</time>
      </trkpt>
      <trkpt lat="47.63355" lon="5.33383">
        <ele>196.5</ele>
        <time>2020-07-24T13:38:06Z</time>
      </trkpt>
      <trkpt lat="47.63335" lon="5.33394">
        <ele>196.6</ele>
        <time>2020-07-24T13:38:10Z</time>
      </trkpt>
      <trkpt lat="47.63317" lon="5.334">
        <ele>198.7</ele>
        <time>2020-07-24T13:38:14Z</time>
      </trkpt>
      <trkpt lat="47.63295" lon="5.33406">
        <ele>197.4</ele>
        <time>2020-07-24T13:38:19Z</time>
      </trkpt>
      <trkpt lat="47.63274" lon="5.33415">
        <ele>196.6</ele>
        <time>2020-07-24T13:38:24Z</time>
      </trkpt>
      <trkpt lat="47.63258" lon="5.33423">
        <ele>196.8</ele>
        <time>2020-07-24T13:38:28Z</time>
      </trkpt>
      <trkpt lat="47.63243" lon="5.33429">
        <ele>196.8</ele>
        <time>2020-07-24T13:38:32Z</time>
      </trkpt>
      <trkpt lat="47.63223" lon="5.33436">
        <ele>196.6</ele>
        <time>2020-07-24T13:38:37Z</time>
      </trkpt>
      <trkpt lat="47.63204" lon="5.33442">
        <ele>194.8</ele>
        <time>2020-07-24T13:38:41Z</time>
      </trkpt>
      <trkpt lat="47.6318" lon="5.3345">
        <ele>194.8</ele>
        <time>2020-07-24T13:38:46Z</time>
      </trkpt>
      <trkpt lat="47.63162" lon="5.33457">
        <ele>199</ele>
        <time>2020-07-24T13:38:51Z</time>
      </trkpt>
      <trkpt lat="47.6316" lon="5.33475">
        <ele>205.1</ele>
        <time>2020-07-24T13:38:55Z</time>
      </trkpt>
      <trkpt lat="47.63158" lon="5.33497">
        <ele>204.6</ele>
        <time>2020-07-24T13:39:00Z</time>
      </trkpt>
      <trkpt lat="47.63147" lon="5.335">
        <ele>204.6</ele>
        <time>2020-07-24T13:39:04Z</time>
      </trkpt>
      <trkpt lat="47.63131" lon="5.33503">
        <ele>204.1</ele>
        <time>2020-07-24T13:39:08Z</time>
      </trkpt>
      <trkpt lat="47.63099" lon="5.3351">
        <ele>202.2</ele>
        <time>2020-07-24T13:39:13Z</time>
      </trkpt>
      <trkpt lat="47.63075" lon="5.33515">
        <ele>199</ele>
        <time>2020-07-24T13:39:17Z</time>
      </trkpt>
      <trkpt lat="47.63051" lon="5.33523">
        <ele>197.5</ele>
        <time>2020-07-24T13:39:21Z</time>
      </trkpt>
      <trkpt lat="47.63027" lon="5.33529">
        <ele>196.4</ele>
        <time>2020-07-24T13:39:25Z</time>
      </trkpt>
      <trkpt lat="47.63004" lon="5.33538">
        <ele>199.4</ele>
        <time>2020-07-24T13:39:29Z</time>
      </trkpt>
      <trkpt lat="47.6298" lon="5.33545">
        <ele>199.2</ele>
        <time>2020-07-24T13:39:33Z</time>
      </trkpt>
      <trkpt lat="47.62949" lon="5.33557">
        <ele>203.5</ele>
        <time>2020-07-24T13:39:38Z</time>
      </trkpt>
      <trkpt lat="47.62926" lon="5.33566">
        <ele>205.8</ele>
        <time>2020-07-24T13:39:42Z</time>
      </trkpt>
      <trkpt lat="47.62899" lon="5.33574">
        <ele>208.3</ele>
        <time>2020-07-24T13:39:47Z</time>
      </trkpt>
      <trkpt lat="47.6287" lon="5.33585">
        <ele>211.4</ele>
        <time>2020-07-24T13:39:52Z</time>
      </trkpt>
      <trkpt lat="47.62844" lon="5.33591">
        <ele>212</ele>
        <time>2020-07-24T13:39:57Z</time>
      </trkpt>
      <trkpt lat="47.62825" lon="5.33596">
        <ele>212.6</ele>
        <time>2020-07-24T13:40:01Z</time>
      </trkpt>
      <trkpt lat="47.62804" lon="5.33602">
        <ele>211.4</ele>
        <time>2020-07-24T13:40:05Z</time>
      </trkpt>
      <trkpt lat="47.62783" lon="5.33608">
        <ele>210.7</ele>
        <time>2020-07-24T13:40:09Z</time>
      </trkpt>
      <trkpt lat="47.62764" lon="5.33612">
        <ele>209.5</ele>
        <time>2020-07-24T13:40:13Z</time>
      </trkpt>
      <trkpt lat="47.62741" lon="5.33619">
        <ele>207.5</ele>
        <time>2020-07-24T13:40:18Z</time>
      </trkpt>
      <trkpt lat="47.62721" lon="5.33628">
        <ele>206.7</ele>
        <time>2020-07-24T13:40:22Z</time>
      </trkpt>
      <trkpt lat="47.62693" lon="5.33643">
        <ele>205.3</ele>
        <time>2020-07-24T13:40:27Z</time>
      </trkpt>
      <trkpt lat="47.62671" lon="5.3365">
        <ele>206.1</ele>
        <time>2020-07-24T13:40:31Z</time>
      </trkpt>
      <trkpt lat="47.62647" lon="5.33672">
        <ele>205.1</ele>
        <time>2020-07-24T13:40:36Z</time>
      </trkpt>
      <trkpt lat="47.62624" lon="5.33693">
        <ele>204.6</ele>
        <time>2020-07-24T13:40:41Z</time>
      </trkpt>
      <trkpt lat="47.62606" lon="5.3371">
        <ele>203.5</ele>
        <time>2020-07-24T13:40:45Z</time>
      </trkpt>
      <trkpt lat="47.62589" lon="5.33728">
        <ele>202.2</ele>
        <time>2020-07-24T13:40:49Z</time>
      </trkpt>
      <trkpt lat="47.62572" lon="5.33747">
        <ele>200.6</ele>
        <time>2020-07-24T13:40:53Z</time>
      </trkpt>
      <trkpt lat="47.62553" lon="5.3377">
        <ele>199.3</ele>
        <time>2020-07-24T13:40:58Z</time>
      </trkpt>
      <trkpt lat="47.62534" lon="5.33793">
        <ele>199.7</ele>
        <time>2020-07-24T13:41:03Z</time>
      </trkpt>
      <trkpt lat="47.62521" lon="5.33813">
        <ele>200.8</ele>
        <time>2020-07-24T13:41:07Z</time>
      </trkpt>
      <trkpt lat="47.62509" lon="5.33834">
        <ele>200.6</ele>
        <time>2020-07-24T13:41:11Z</time>
      </trkpt>
      <trkpt lat="47.62499" lon="5.33854">
        <ele>200.8</ele>
        <time>2020-07-24T13:41:15Z</time>
      </trkpt>
      <trkpt lat="47.62488" lon="5.33873">
        <ele>200.5</ele>
        <time>2020-07-24T13:41:19Z</time>
      </trkpt>
      <trkpt lat="47.62476" lon="5.33899">
        <ele>199.8</ele>
        <time>2020-07-24T13:41:24Z</time>
      </trkpt>
      <trkpt lat="47.62466" lon="5.33924">
        <ele>199.2</ele>
        <time>2020-07-24T13:41:28Z</time>
      </trkpt>
      <trkpt lat="47.62456" lon="5.33955">
        <ele>197.5</ele>
        <time>2020-07-24T13:41:32Z</time>
      </trkpt>
      <trkpt lat="47.62447" lon="5.33983">
        <ele>197.7</ele>
        <time>2020-07-24T13:41:36Z</time>
      </trkpt>
      <trkpt lat="47.62436" lon="5.34013">
        <ele>198.9</ele>
        <time>2020-07-24T13:41:41Z</time>
      </trkpt>
      <trkpt lat="47.62431" lon="5.34038">
        <ele>199.4</ele>
        <time>2020-07-24T13:41:45Z</time>
      </trkpt>
      <trkpt lat="47.62427" lon="5.3406">
        <ele>200.2</ele>
        <time>2020-07-24T13:41:49Z</time>
      </trkpt>
      <trkpt lat="47.62422" lon="5.34081">
        <ele>200.2</ele>
        <time>2020-07-24T13:41:53Z</time>
      </trkpt>
      <trkpt lat="47.62419" lon="5.3411">
        <ele>199.8</ele>
        <time>2020-07-24T13:41:58Z</time>
      </trkpt>
      <trkpt lat="47.62412" lon="5.34141">
        <ele>199.3</ele>
        <time>2020-07-24T13:42:03Z</time>
      </trkpt>
      <trkpt lat="47.62407" lon="5.34168">
        <ele>200.5</ele>
        <time>2020-07-24T13:42:07Z</time>
      </trkpt>
      <trkpt lat="47.624" lon="5.34193">
        <ele>201.1</ele>
        <time>2020-07-24T13:42:11Z</time>
      </trkpt>
      <trkpt lat="47.62392" lon="5.34222">
        <ele>200.6</ele>
        <time>2020-07-24T13:42:15Z</time>
      </trkpt>
      <trkpt lat="47.62386" lon="5.34243">
        <ele>198.1</ele>
        <time>2020-07-24T13:42:19Z</time>
      </trkpt>
      <trkpt lat="47.62379" lon="5.34274">
        <ele>196.5</ele>
        <time>2020-07-24T13:42:24Z</time>
      </trkpt>
      <trkpt lat="47.62375" lon="5.34304">
        <ele>199.9</ele>
        <time>2020-07-24T13:42:28Z</time>
      </trkpt>
      <trkpt lat="47.62374" lon="5.34326">
        <ele>202.7</ele>
        <time>2020-07-24T13:42:32Z</time>
      </trkpt>
      <trkpt lat="47.62367" lon="5.3436">
        <ele>205.2</ele>
        <time>2020-07-24T13:42:37Z</time>
      </trkpt>
      <trkpt lat="47.62363" lon="5.34391">
        <ele>207.5</ele>
        <time>2020-07-24T13:42:42Z</time>
      </trkpt>
      <trkpt lat="47.62358" lon="5.34415">
        <ele>208.4</ele>
        <time>2020-07-24T13:42:46Z</time>
      </trkpt>
      <trkpt lat="47.62355" lon="5.3444">
        <ele>208.8</ele>
        <time>2020-07-24T13:42:50Z</time>
      </trkpt>
      <trkpt lat="47.62348" lon="5.34471">
        <ele>209.2</ele>
        <time>2020-07-24T13:42:54Z</time>
      </trkpt>
      <trkpt lat="47.62344" lon="5.34499">
        <ele>208.7</ele>
        <time>2020-07-24T13:42:58Z</time>
      </trkpt>
      <trkpt lat="47.62337" lon="5.34537">
        <ele>207.2</ele>
        <time>2020-07-24T13:43:03Z</time>
      </trkpt>
      <trkpt lat="47.62333" lon="5.34561">
        <ele>206</ele>
        <time>2020-07-24T13:43:07Z</time>
      </trkpt>
      <trkpt lat="47.62329" lon="5.34582">
        <ele>205.3</ele>
        <time>2020-07-24T13:43:11Z</time>
      </trkpt>
      <trkpt lat="47.62325" lon="5.34603">
        <ele>204.7</ele>
        <time>2020-07-24T13:43:15Z</time>
      </trkpt>
      <trkpt lat="47.6232" lon="5.3463">
        <ele>204.3</ele>
        <time>2020-07-24T13:43:19Z</time>
      </trkpt>
      <trkpt lat="47.62314" lon="5.34665">
        <ele>204</ele>
        <time>2020-07-24T13:43:24Z</time>
      </trkpt>
      <trkpt lat="47.62307" lon="5.34699">
        <ele>205.8</ele>
        <time>2020-07-24T13:43:29Z</time>
      </trkpt>
      <trkpt lat="47.62299" lon="5.34746">
        <ele>205.2</ele>
        <time>2020-07-24T13:43:34Z</time>
      </trkpt>
      <trkpt lat="47.6229" lon="5.34784">
        <ele>204.8</ele>
        <time>2020-07-24T13:43:38Z</time>
      </trkpt>
      <trkpt lat="47.62289" lon="5.34808">
        <ele>202.3</ele>
        <time>2020-07-24T13:43:42Z</time>
      </trkpt>
      <trkpt lat="47.62289" lon="5.34827">
        <ele>203</ele>
        <time>2020-07-24T13:43:46Z</time>
      </trkpt>
      <trkpt lat="47.62286" lon="5.34844">
        <ele>201.8</ele>
        <time>2020-07-24T13:43:51Z</time>
      </trkpt>
      <trkpt lat="47.62286" lon="5.34844">
        <ele>201.8</ele>
        <time>2020-07-24T13:43:52Z</time>
      </trkpt>
      <trkpt lat="47.62279" lon="5.34868">
        <ele>207.5</ele>
        <time>2020-07-24T13:48:18Z</time>
      </trkpt>
      <trkpt lat="47.62273" lon="5.34875">
        <ele>206.3</ele>
        <time>2020-07-24T13:48:27Z</time>
      </trkpt>
      <trkpt lat="47.62267" lon="5.34893">
        <ele>206.6</ele>
        <time>2020-07-24T13:48:32Z</time>
      </trkpt>
      <trkpt lat="47.62262" lon="5.34913">
        <ele>206.6</ele>
        <time>2020-07-24T13:48:36Z</time>
      </trkpt>
      <trkpt lat="47.62259" lon="5.34937">
        <ele>206.1</ele>
        <time>2020-07-24T13:48:41Z</time>
      </trkpt>
      <trkpt lat="47.62256" lon="5.34955">
        <ele>205.7</ele>
        <time>2020-07-24T13:48:45Z</time>
      </trkpt>
      <trkpt lat="47.62253" lon="5.34979">
        <ele>205</ele>
        <time>2020-07-24T13:48:50Z</time>
      </trkpt>
      <trkpt lat="47.62248" lon="5.35002">
        <ele>203.1</ele>
        <time>2020-07-24T13:48:54Z</time>
      </trkpt>
      <trkpt lat="47.62246" lon="5.35024">
        <ele>201.2</ele>
        <time>2020-07-24T13:48:59Z</time>
      </trkpt>
      <trkpt lat="47.62242" lon="5.35044">
        <ele>199</ele>
        <time>2020-07-24T13:49:03Z</time>
      </trkpt>
      <trkpt lat="47.62237" lon="5.35065">
        <ele>197</ele>
        <time>2020-07-24T13:49:07Z</time>
      </trkpt>
      <trkpt lat="47.62231" lon="5.35094">
        <ele>193.8</ele>
        <time>2020-07-24T13:49:12Z</time>
      </trkpt>
      <trkpt lat="47.62225" lon="5.35119">
        <ele>191.2</ele>
        <time>2020-07-24T13:49:16Z</time>
      </trkpt>
      <trkpt lat="47.62212" lon="5.35145">
        <ele>189.8</ele>
        <time>2020-07-24T13:49:21Z</time>
      </trkpt>
      <trkpt lat="47.622" lon="5.35164">
        <ele>188.3</ele>
        <time>2020-07-24T13:49:25Z</time>
      </trkpt>
      <trkpt lat="47.62183" lon="5.35193">
        <ele>188</ele>
        <time>2020-07-24T13:49:30Z</time>
      </trkpt>
      <trkpt lat="47.62171" lon="5.35211">
        <ele>189.7</ele>
        <time>2020-07-24T13:49:34Z</time>
      </trkpt>
      <trkpt lat="47.62157" lon="5.35231">
        <ele>188.3</ele>
        <time>2020-07-24T13:49:39Z</time>
      </trkpt>
      <trkpt lat="47.62143" lon="5.35248">
        <ele>190.3</ele>
        <time>2020-07-24T13:49:43Z</time>
      </trkpt>
      <trkpt lat="47.62123" lon="5.35271">
        <ele>193.2</ele>
        <time>2020-07-24T13:49:48Z</time>
      </trkpt>
      <trkpt lat="47.62106" lon="5.35288">
        <ele>196.5</ele>
        <time>2020-07-24T13:49:52Z</time>
      </trkpt>
      <trkpt lat="47.62089" lon="5.35303">
        <ele>198.9</ele>
        <time>2020-07-24T13:49:56Z</time>
      </trkpt>
      <trkpt lat="47.62075" lon="5.35315">
        <ele>198.9</ele>
        <time>2020-07-24T13:50:00Z</time>
      </trkpt>
      <trkpt lat="47.62061" lon="5.35322">
        <ele>200.7</ele>
        <time>2020-07-24T13:50:04Z</time>
      </trkpt>
      <trkpt lat="47.62045" lon="5.3533">
        <ele>199.3</ele>
        <time>2020-07-24T13:50:09Z</time>
      </trkpt>
      <trkpt lat="47.62034" lon="5.35332">
        <ele>199.1</ele>
        <time>2020-07-24T13:50:13Z</time>
      </trkpt>
      <trkpt lat="47.62018" lon="5.35332">
        <ele>198.6</ele>
        <time>2020-07-24T13:50:18Z</time>
      </trkpt>
      <trkpt lat="47.62003" lon="5.35331">
        <ele>197.8</ele>
        <time>2020-07-24T13:50:22Z</time>
      </trkpt>
      <trkpt lat="47.61986" lon="5.35333">
        <ele>197.4</ele>
        <time>2020-07-24T13:50:26Z</time>
      </trkpt>
      <trkpt lat="47.61968" lon="5.35336">
        <ele>196.1</ele>
        <time>2020-07-24T13:50:30Z</time>
      </trkpt>
      <trkpt lat="47.61949" lon="5.35341">
        <ele>195.8</ele>
        <time>2020-07-24T13:50:34Z</time>
      </trkpt>
      <trkpt lat="47.61924" lon="5.35345">
        <ele>195.8</ele>
        <time>2020-07-24T13:50:39Z</time>
      </trkpt>
      <trkpt lat="47.61905" lon="5.35348">
        <ele>195.2</ele>
        <time>2020-07-24T13:50:43Z</time>
      </trkpt>
      <trkpt lat="47.61888" lon="5.35351">
        <ele>195.8</ele>
        <time>2020-07-24T13:50:47Z</time>
      </trkpt>
      <trkpt lat="47.61863" lon="5.35354">
        <ele>196.8</ele>
        <time>2020-07-24T13:50:52Z</time>
      </trkpt>
      <trkpt lat="47.61841" lon="5.35358">
        <ele>197.3</ele>
        <time>2020-07-24T13:50:57Z</time>
      </trkpt>
      <trkpt lat="47.61823" lon="5.35361">
        <ele>198.2</ele>
        <time>2020-07-24T13:51:01Z</time>
      </trkpt>
      <trkpt lat="47.618" lon="5.35365">
        <ele>198.6</ele>
        <time>2020-07-24T13:51:06Z</time>
      </trkpt>
      <trkpt lat="47.61782" lon="5.35369">
        <ele>198.4</ele>
        <time>2020-07-24T13:51:10Z</time>
      </trkpt>
      <trkpt lat="47.61759" lon="5.35375">
        <ele>199.4</ele>
        <time>2020-07-24T13:51:15Z</time>
      </trkpt>
      <trkpt lat="47.61736" lon="5.35381">
        <ele>199.9</ele>
        <time>2020-07-24T13:51:20Z</time>
      </trkpt>
      <trkpt lat="47.61721" lon="5.35387">
        <ele>198.2</ele>
        <time>2020-07-24T13:51:24Z</time>
      </trkpt>
      <trkpt lat="47.61701" lon="5.35396">
        <ele>196.6</ele>
        <time>2020-07-24T13:51:29Z</time>
      </trkpt>
      <trkpt lat="47.61681" lon="5.35407">
        <ele>197.1</ele>
        <time>2020-07-24T13:51:34Z</time>
      </trkpt>
      <trkpt lat="47.61663" lon="5.3542">
        <ele>196</ele>
        <time>2020-07-24T13:51:38Z</time>
      </trkpt>
      <trkpt lat="47.61644" lon="5.35436">
        <ele>194.2</ele>
        <time>2020-07-24T13:51:42Z</time>
      </trkpt>
      <trkpt lat="47.61626" lon="5.35447">
        <ele>192.9</ele>
        <time>2020-07-24T13:51:46Z</time>
      </trkpt>
      <trkpt lat="47.61608" lon="5.3546">
        <ele>190.6</ele>
        <time>2020-07-24T13:51:50Z</time>
      </trkpt>
      <trkpt lat="47.61584" lon="5.35477">
        <ele>187.7</ele>
        <time>2020-07-24T13:51:55Z</time>
      </trkpt>
      <trkpt lat="47.61562" lon="5.35492">
        <ele>187.3</ele>
        <time>2020-07-24T13:51:59Z</time>
      </trkpt>
      <trkpt lat="47.61542" lon="5.35506">
        <ele>186.6</ele>
        <time>2020-07-24T13:52:03Z</time>
      </trkpt>
      <trkpt lat="47.61527" lon="5.35499">
        <ele>190.1</ele>
        <time>2020-07-24T13:52:08Z</time>
      </trkpt>
      <trkpt lat="47.61511" lon="5.35494">
        <ele>193</ele>
        <time>2020-07-24T13:52:13Z</time>
      </trkpt>
      <trkpt lat="47.61494" lon="5.35501">
        <ele>194.8</ele>
        <time>2020-07-24T13:52:17Z</time>
      </trkpt>
      <trkpt lat="47.61475" lon="5.35515">
        <ele>197.9</ele>
        <time>2020-07-24T13:52:21Z</time>
      </trkpt>
      <trkpt lat="47.6145" lon="5.35531">
        <ele>199.3</ele>
        <time>2020-07-24T13:52:25Z</time>
      </trkpt>
      <trkpt lat="47.61426" lon="5.3555">
        <ele>201</ele>
        <time>2020-07-24T13:52:29Z</time>
      </trkpt>
      <trkpt lat="47.61401" lon="5.35564">
        <ele>201.4</ele>
        <time>2020-07-24T13:52:34Z</time>
      </trkpt>
      <trkpt lat="47.6138" lon="5.35577">
        <ele>200</ele>
        <time>2020-07-24T13:52:38Z</time>
      </trkpt>
      <trkpt lat="47.6136" lon="5.35588">
        <ele>198.6</ele>
        <time>2020-07-24T13:52:42Z</time>
      </trkpt>
      <trkpt lat="47.6134" lon="5.356">
        <ele>197.5</ele>
        <time>2020-07-24T13:52:46Z</time>
      </trkpt>
      <trkpt lat="47.61318" lon="5.35617">
        <ele>198.5</ele>
        <time>2020-07-24T13:52:50Z</time>
      </trkpt>
      <trkpt lat="47.61299" lon="5.35634">
        <ele>198.2</ele>
        <time>2020-07-24T13:52:54Z</time>
      </trkpt>
      <trkpt lat="47.61279" lon="5.35645">
        <ele>198.5</ele>
        <time>2020-07-24T13:52:58Z</time>
      </trkpt>
      <trkpt lat="47.61252" lon="5.35664">
        <ele>197.3</ele>
        <time>2020-07-24T13:53:03Z</time>
      </trkpt>
      <trkpt lat="47.61234" lon="5.35678">
        <ele>197.8</ele>
        <time>2020-07-24T13:53:07Z</time>
      </trkpt>
      <trkpt lat="47.61214" lon="5.35693">
        <ele>199.9</ele>
        <time>2020-07-24T13:53:12Z</time>
      </trkpt>
      <trkpt lat="47.61195" lon="5.35711">
        <ele>200.1</ele>
        <time>2020-07-24T13:53:16Z</time>
      </trkpt>
      <trkpt lat="47.61171" lon="5.3573">
        <ele>199.2</ele>
        <time>2020-07-24T13:53:21Z</time>
      </trkpt>
      <trkpt lat="47.61155" lon="5.35748">
        <ele>200.2</ele>
        <time>2020-07-24T13:53:25Z</time>
      </trkpt>
      <trkpt lat="47.61136" lon="5.35769">
        <ele>200</ele>
        <time>2020-07-24T13:53:30Z</time>
      </trkpt>
      <trkpt lat="47.61121" lon="5.35788">
        <ele>199.1</ele>
        <time>2020-07-24T13:53:34Z</time>
      </trkpt>
      <trkpt lat="47.61106" lon="5.35809">
        <ele>199.6</ele>
        <time>2020-07-24T13:53:38Z</time>
      </trkpt>
      <trkpt lat="47.61084" lon="5.35844">
        <ele>201.2</ele>
        <time>2020-07-24T13:53:43Z</time>
      </trkpt>
      <trkpt lat="47.6107" lon="5.35867">
        <ele>201.2</ele>
        <time>2020-07-24T13:53:47Z</time>
      </trkpt>
      <trkpt lat="47.61057" lon="5.35888">
        <ele>200.7</ele>
        <time>2020-07-24T13:53:51Z</time>
      </trkpt>
      <trkpt lat="47.61041" lon="5.35925">
        <ele>205.1</ele>
        <time>2020-07-24T13:53:56Z</time>
      </trkpt>
      <trkpt lat="47.61031" lon="5.35948">
        <ele>207.6</ele>
        <time>2020-07-24T13:54:00Z</time>
      </trkpt>
      <trkpt lat="47.61021" lon="5.35979">
        <ele>209.7</ele>
        <time>2020-07-24T13:54:05Z</time>
      </trkpt>
      <trkpt lat="47.61009" lon="5.36009">
        <ele>212.6</ele>
        <time>2020-07-24T13:54:10Z</time>
      </trkpt>
      <trkpt lat="47.60996" lon="5.36045">
        <ele>215.2</ele>
        <time>2020-07-24T13:54:15Z</time>
      </trkpt>
      <trkpt lat="47.60988" lon="5.36073">
        <ele>216.7</ele>
        <time>2020-07-24T13:54:19Z</time>
      </trkpt>
      <trkpt lat="47.6098" lon="5.36101">
        <ele>218.3</ele>
        <time>2020-07-24T13:54:23Z</time>
      </trkpt>
      <trkpt lat="47.60971" lon="5.3613">
        <ele>217.4</ele>
        <time>2020-07-24T13:54:27Z</time>
      </trkpt>
      <trkpt lat="47.60963" lon="5.36165">
        <ele>215.9</ele>
        <time>2020-07-24T13:54:32Z</time>
      </trkpt>
      <trkpt lat="47.60959" lon="5.36189">
        <ele>214.9</ele>
        <time>2020-07-24T13:54:36Z</time>
      </trkpt>
      <trkpt lat="47.60952" lon="5.36216">
        <ele>211.6</ele>
        <time>2020-07-24T13:54:40Z</time>
      </trkpt>
      <trkpt lat="47.6095" lon="5.36247">
        <ele>207.6</ele>
        <time>2020-07-24T13:54:45Z</time>
      </trkpt>
      <trkpt lat="47.60948" lon="5.36275">
        <ele>204.1</ele>
        <time>2020-07-24T13:54:49Z</time>
      </trkpt>
      <trkpt lat="47.60947" lon="5.36313">
        <ele>198.4</ele>
        <time>2020-07-24T13:54:54Z</time>
      </trkpt>
      <trkpt lat="47.60946" lon="5.36342">
        <ele>194.2</ele>
        <time>2020-07-24T13:54:58Z</time>
      </trkpt>
      <trkpt lat="47.60943" lon="5.36369">
        <ele>191.9</ele>
        <time>2020-07-24T13:55:02Z</time>
      </trkpt>
      <trkpt lat="47.6094" lon="5.36394">
        <ele>190.4</ele>
        <time>2020-07-24T13:55:06Z</time>
      </trkpt>
      <trkpt lat="47.6094" lon="5.36423">
        <ele>188.6</ele>
        <time>2020-07-24T13:55:10Z</time>
      </trkpt>
      <trkpt lat="47.60939" lon="5.36452">
        <ele>183.9</ele>
        <time>2020-07-24T13:55:14Z</time>
      </trkpt>
      <trkpt lat="47.60933" lon="5.36487">
        <ele>180.6</ele>
        <time>2020-07-24T13:55:19Z</time>
      </trkpt>
      <trkpt lat="47.60928" lon="5.36517">
        <ele>182.6</ele>
        <time>2020-07-24T13:55:23Z</time>
      </trkpt>
      <trkpt lat="47.60923" lon="5.36547">
        <ele>186.1</ele>
        <time>2020-07-24T13:55:27Z</time>
      </trkpt>
      <trkpt lat="47.60915" lon="5.36576">
        <ele>186.7</ele>
        <time>2020-07-24T13:55:31Z</time>
      </trkpt>
      <trkpt lat="47.60905" lon="5.36611">
        <ele>193.5</ele>
        <time>2020-07-24T13:55:36Z</time>
      </trkpt>
      <trkpt lat="47.60895" lon="5.36634">
        <ele>197.1</ele>
        <time>2020-07-24T13:55:40Z</time>
      </trkpt>
      <trkpt lat="47.60884" lon="5.36657">
        <ele>199.5</ele>
        <time>2020-07-24T13:55:44Z</time>
      </trkpt>
      <trkpt lat="47.60872" lon="5.36678">
        <ele>202.3</ele>
        <time>2020-07-24T13:55:49Z</time>
      </trkpt>
      <trkpt lat="47.60863" lon="5.36693">
        <ele>203.5</ele>
        <time>2020-07-24T13:55:53Z</time>
      </trkpt>
      <trkpt lat="47.60851" lon="5.36708">
        <ele>203.6</ele>
        <time>2020-07-24T13:55:57Z</time>
      </trkpt>
      <trkpt lat="47.60835" lon="5.36726">
        <ele>201.5</ele>
        <time>2020-07-24T13:56:01Z</time>
      </trkpt>
      <trkpt lat="47.60812" lon="5.3675">
        <ele>200.4</ele>
        <time>2020-07-24T13:56:06Z</time>
      </trkpt>
      <trkpt lat="47.60794" lon="5.36769">
        <ele>200.7</ele>
        <time>2020-07-24T13:56:10Z</time>
      </trkpt>
      <trkpt lat="47.60777" lon="5.36788">
        <ele>202.9</ele>
        <time>2020-07-24T13:56:14Z</time>
      </trkpt>
      <trkpt lat="47.60757" lon="5.36806">
        <ele>201.9</ele>
        <time>2020-07-24T13:56:19Z</time>
      </trkpt>
      <trkpt lat="47.60741" lon="5.3682">
        <ele>200.8</ele>
        <time>2020-07-24T13:56:23Z</time>
      </trkpt>
      <trkpt lat="47.60723" lon="5.36838">
        <ele>200.4</ele>
        <time>2020-07-24T13:56:28Z</time>
      </trkpt>
      <trkpt lat="47.60707" lon="5.36851">
        <ele>198.9</ele>
        <time>2020-07-24T13:56:32Z</time>
      </trkpt>
      <trkpt lat="47.60691" lon="5.36863">
        <ele>193.6</ele>
        <time>2020-07-24T13:56:36Z</time>
      </trkpt>
      <trkpt lat="47.60669" lon="5.36881">
        <ele>191.5</ele>
        <time>2020-07-24T13:56:41Z</time>
      </trkpt>
      <trkpt lat="47.60653" lon="5.36897">
        <ele>192</ele>
        <time>2020-07-24T13:56:45Z</time>
      </trkpt>
      <trkpt lat="47.60636" lon="5.36913">
        <ele>189.8</ele>
        <time>2020-07-24T13:56:49Z</time>
      </trkpt>
      <trkpt lat="47.60621" lon="5.36927">
        <ele>186.6</ele>
        <time>2020-07-24T13:56:53Z</time>
      </trkpt>
      <trkpt lat="47.606" lon="5.36946">
        <ele>184.7</ele>
        <time>2020-07-24T13:56:58Z</time>
      </trkpt>
      <trkpt lat="47.60586" lon="5.3696">
        <ele>186</ele>
        <time>2020-07-24T13:57:02Z</time>
      </trkpt>
      <trkpt lat="47.6057" lon="5.36978">
        <ele>187.9</ele>
        <time>2020-07-24T13:57:07Z</time>
      </trkpt>
      <trkpt lat="47.60552" lon="5.37002">
        <ele>188.3</ele>
        <time>2020-07-24T13:57:12Z</time>
      </trkpt>
      <trkpt lat="47.60535" lon="5.37026">
        <ele>191.8</ele>
        <time>2020-07-24T13:57:16Z</time>
      </trkpt>
      <trkpt lat="47.60518" lon="5.37053">
        <ele>193.8</ele>
        <time>2020-07-24T13:57:21Z</time>
      </trkpt>
      <trkpt lat="47.60503" lon="5.37077">
        <ele>195.9</ele>
        <time>2020-07-24T13:57:25Z</time>
      </trkpt>
      <trkpt lat="47.60491" lon="5.37097">
        <ele>197.5</ele>
        <time>2020-07-24T13:57:29Z</time>
      </trkpt>
      <trkpt lat="47.60477" lon="5.37124">
        <ele>199.9</ele>
        <time>2020-07-24T13:57:34Z</time>
      </trkpt>
      <trkpt lat="47.60466" lon="5.37146">
        <ele>201.4</ele>
        <time>2020-07-24T13:57:38Z</time>
      </trkpt>
      <trkpt lat="47.60457" lon="5.37168">
        <ele>203.2</ele>
        <time>2020-07-24T13:57:42Z</time>
      </trkpt>
      <trkpt lat="47.60449" lon="5.37188">
        <ele>204.9</ele>
        <time>2020-07-24T13:57:46Z</time>
      </trkpt>
      <trkpt lat="47.6044" lon="5.3721">
        <ele>207.3</ele>
        <time>2020-07-24T13:57:50Z</time>
      </trkpt>
      <trkpt lat="47.60425" lon="5.3724">
        <ele>210.5</ele>
        <time>2020-07-24T13:57:55Z</time>
      </trkpt>
      <trkpt lat="47.60415" lon="5.37261">
        <ele>209.1</ele>
        <time>2020-07-24T13:57:59Z</time>
      </trkpt>
      <trkpt lat="47.60401" lon="5.37289">
        <ele>206.3</ele>
        <time>2020-07-24T13:58:04Z</time>
      </trkpt>
      <trkpt lat="47.6039" lon="5.37313">
        <ele>206.7</ele>
        <time>2020-07-24T13:58:08Z</time>
      </trkpt>
      <trkpt lat="47.60379" lon="5.37336">
        <ele>207</ele>
        <time>2020-07-24T13:58:12Z</time>
      </trkpt>
      <trkpt lat="47.60369" lon="5.3736">
        <ele>207.8</ele>
        <time>2020-07-24T13:58:16Z</time>
      </trkpt>
      <trkpt lat="47.60354" lon="5.37396">
        <ele>206.2</ele>
        <time>2020-07-24T13:58:21Z</time>
      </trkpt>
      <trkpt lat="47.6034" lon="5.37431">
        <ele>206.3</ele>
        <time>2020-07-24T13:58:26Z</time>
      </trkpt>
      <trkpt lat="47.60331" lon="5.37455">
        <ele>204.7</ele>
        <time>2020-07-24T13:58:30Z</time>
      </trkpt>
      <trkpt lat="47.60319" lon="5.37475">
        <ele>204.5</ele>
        <time>2020-07-24T13:58:35Z</time>
      </trkpt>
      <trkpt lat="47.60315" lon="5.37486">
        <ele>202.5</ele>
        <time>2020-07-24T13:58:39Z</time>
      </trkpt>
      <trkpt lat="47.60307" lon="5.37506">
        <ele>200.2</ele>
        <time>2020-07-24T13:58:43Z</time>
      </trkpt>
      <trkpt lat="47.60295" lon="5.37532">
        <ele>198</ele>
        <time>2020-07-24T13:58:47Z</time>
      </trkpt>
      <trkpt lat="47.60276" lon="5.37568">
        <ele>194.1</ele>
        <time>2020-07-24T13:58:52Z</time>
      </trkpt>
      <trkpt lat="47.60261" lon="5.37602">
        <ele>191.4</ele>
        <time>2020-07-24T13:58:57Z</time>
      </trkpt>
      <trkpt lat="47.60248" lon="5.37632">
        <ele>192.7</ele>
        <time>2020-07-24T13:59:01Z</time>
      </trkpt>
      <trkpt lat="47.60237" lon="5.37658">
        <ele>194</ele>
        <time>2020-07-24T13:59:05Z</time>
      </trkpt>
      <trkpt lat="47.60224" lon="5.37687">
        <ele>196.9</ele>
        <time>2020-07-24T13:59:09Z</time>
      </trkpt>
      <trkpt lat="47.60211" lon="5.37714">
        <ele>198.8</ele>
        <time>2020-07-24T13:59:13Z</time>
      </trkpt>
      <trkpt lat="47.60199" lon="5.37741">
        <ele>199.8</ele>
        <time>2020-07-24T13:59:17Z</time>
      </trkpt>
      <trkpt lat="47.60183" lon="5.37771">
        <ele>201.1</ele>
        <time>2020-07-24T13:59:22Z</time>
      </trkpt>
      <trkpt lat="47.60166" lon="5.37801">
        <ele>201.2</ele>
        <time>2020-07-24T13:59:27Z</time>
      </trkpt>
      <trkpt lat="47.60152" lon="5.37823">
        <ele>200.4</ele>
        <time>2020-07-24T13:59:31Z</time>
      </trkpt>
      <trkpt lat="47.60133" lon="5.3785">
        <ele>199.3</ele>
        <time>2020-07-24T13:59:36Z</time>
      </trkpt>
      <trkpt lat="47.60111" lon="5.37877">
        <ele>198.4</ele>
        <time>2020-07-24T13:59:41Z</time>
      </trkpt>
      <trkpt lat="47.60093" lon="5.37897">
        <ele>198.3</ele>
        <time>2020-07-24T13:59:45Z</time>
      </trkpt>
      <trkpt lat="47.60076" lon="5.37914">
        <ele>198.6</ele>
        <time>2020-07-24T13:59:49Z</time>
      </trkpt>
      <trkpt lat="47.60057" lon="5.3793">
        <ele>198.9</ele>
        <time>2020-07-24T13:59:53Z</time>
      </trkpt>
      <trkpt lat="47.60039" lon="5.37945">
        <ele>199.4</ele>
        <time>2020-07-24T13:59:57Z</time>
      </trkpt>
      <trkpt lat="47.60021" lon="5.37957">
        <ele>199.3</ele>
        <time>2020-07-24T14:00:01Z</time>
      </trkpt>
      <trkpt lat="47.60003" lon="5.37966">
        <ele>199.4</ele>
        <time>2020-07-24T14:00:05Z</time>
      </trkpt>
      <trkpt lat="47.59981" lon="5.37975">
        <ele>199.4</ele>
        <time>2020-07-24T14:00:10Z</time>
      </trkpt>
      <trkpt lat="47.59958" lon="5.37985">
        <ele>196.6</ele>
        <time>2020-07-24T14:00:15Z</time>
      </trkpt>
      <trkpt lat="47.59938" lon="5.37993">
        <ele>198.1</ele>
        <time>2020-07-24T14:00:19Z</time>
      </trkpt>
      <trkpt lat="47.59915" lon="5.38001">
        <ele>197.4</ele>
        <time>2020-07-24T14:00:24Z</time>
      </trkpt>
      <trkpt lat="47.59892" lon="5.3801">
        <ele>197.4</ele>
        <time>2020-07-24T14:00:29Z</time>
      </trkpt>
      <trkpt lat="47.59873" lon="5.38014">
        <ele>199.5</ele>
        <time>2020-07-24T14:00:33Z</time>
      </trkpt>
      <trkpt lat="47.59852" lon="5.38021">
        <ele>200.4</ele>
        <time>2020-07-24T14:00:37Z</time>
      </trkpt>
      <trkpt lat="47.59832" lon="5.38027">
        <ele>199.2</ele>
        <time>2020-07-24T14:00:41Z</time>
      </trkpt>
      <trkpt lat="47.59813" lon="5.38032">
        <ele>198.7</ele>
        <time>2020-07-24T14:00:45Z</time>
      </trkpt>
      <trkpt lat="47.59788" lon="5.38042">
        <ele>198.7</ele>
        <time>2020-07-24T14:00:50Z</time>
      </trkpt>
      <trkpt lat="47.5977" lon="5.38048">
        <ele>199.6</ele>
        <time>2020-07-24T14:00:54Z</time>
      </trkpt>
      <trkpt lat="47.59747" lon="5.38055">
        <ele>200.4</ele>
        <time>2020-07-24T14:00:59Z</time>
      </trkpt>
      <trkpt lat="47.59727" lon="5.38063">
        <ele>200</ele>
        <time>2020-07-24T14:01:03Z</time>
      </trkpt>
      <trkpt lat="47.59703" lon="5.38071">
        <ele>199.8</ele>
        <time>2020-07-24T14:01:08Z</time>
      </trkpt>
      <trkpt lat="47.5968" lon="5.38075">
        <ele>200</ele>
        <time>2020-07-24T14:01:13Z</time>
      </trkpt>
      <trkpt lat="47.59662" lon="5.38082">
        <ele>199.5</ele>
        <time>2020-07-24T14:01:17Z</time>
      </trkpt>
      <trkpt lat="47.5964" lon="5.38089">
        <ele>199.2</ele>
        <time>2020-07-24T14:01:22Z</time>
      </trkpt>
      <trkpt lat="47.59622" lon="5.38094">
        <ele>200.1</ele>
        <time>2020-07-24T14:01:26Z</time>
      </trkpt>
      <trkpt lat="47.59605" lon="5.38101">
        <ele>199.2</ele>
        <time>2020-07-24T14:01:30Z</time>
      </trkpt>
      <trkpt lat="47.59582" lon="5.38109">
        <ele>199.2</ele>
        <time>2020-07-24T14:01:35Z</time>
      </trkpt>
      <trkpt lat="47.59563" lon="5.38116">
        <ele>199.9</ele>
        <time>2020-07-24T14:01:39Z</time>
      </trkpt>
      <trkpt lat="47.59545" lon="5.38121">
        <ele>202.3</ele>
        <time>2020-07-24T14:01:43Z</time>
      </trkpt>
      <trkpt lat="47.59527" lon="5.38126">
        <ele>203.6</ele>
        <time>2020-07-24T14:01:47Z</time>
      </trkpt>
      <trkpt lat="47.5951" lon="5.38134">
        <ele>203.8</ele>
        <time>2020-07-24T14:01:51Z</time>
      </trkpt>
      <trkpt lat="47.59487" lon="5.38145">
        <ele>201.5</ele>
        <time>2020-07-24T14:01:56Z</time>
      </trkpt>
      <trkpt lat="47.59469" lon="5.38154">
        <ele>200.6</ele>
        <time>2020-07-24T14:02:00Z</time>
      </trkpt>
      <trkpt lat="47.59448" lon="5.3817">
        <ele>202.1</ele>
        <time>2020-07-24T14:02:05Z</time>
      </trkpt>
      <trkpt lat="47.5943" lon="5.38182">
        <ele>202.1</ele>
        <time>2020-07-24T14:02:09Z</time>
      </trkpt>
      <trkpt lat="47.59407" lon="5.38201">
        <ele>203.2</ele>
        <time>2020-07-24T14:02:14Z</time>
      </trkpt>
      <trkpt lat="47.5939" lon="5.38218">
        <ele>203.7</ele>
        <time>2020-07-24T14:02:18Z</time>
      </trkpt>
      <trkpt lat="47.59373" lon="5.38234">
        <ele>203.6</ele>
        <time>2020-07-24T14:02:22Z</time>
      </trkpt>
      <trkpt lat="47.59353" lon="5.38259">
        <ele>202.8</ele>
        <time>2020-07-24T14:02:27Z</time>
      </trkpt>
      <trkpt lat="47.59333" lon="5.38285">
        <ele>201.5</ele>
        <time>2020-07-24T14:02:32Z</time>
      </trkpt>
      <trkpt lat="47.59318" lon="5.38306">
        <ele>202.3</ele>
        <time>2020-07-24T14:02:36Z</time>
      </trkpt>
      <trkpt lat="47.59304" lon="5.3833">
        <ele>203.8</ele>
        <time>2020-07-24T14:02:40Z</time>
      </trkpt>
      <trkpt lat="47.59288" lon="5.38354">
        <ele>204.8</ele>
        <time>2020-07-24T14:02:44Z</time>
      </trkpt>
      <trkpt lat="47.59269" lon="5.38381">
        <ele>203.5</ele>
        <time>2020-07-24T14:02:49Z</time>
      </trkpt>
      <trkpt lat="47.59251" lon="5.38408">
        <ele>203.4</ele>
        <time>2020-07-24T14:02:54Z</time>
      </trkpt>
      <trkpt lat="47.59238" lon="5.38428">
        <ele>203.3</ele>
        <time>2020-07-24T14:02:58Z</time>
      </trkpt>
      <trkpt lat="47.59225" lon="5.38449">
        <ele>200.3</ele>
        <time>2020-07-24T14:03:02Z</time>
      </trkpt>
      <trkpt lat="47.5921" lon="5.38471">
        <ele>198.1</ele>
        <time>2020-07-24T14:03:07Z</time>
      </trkpt>
      <trkpt lat="47.59197" lon="5.38489">
        <ele>199.2</ele>
        <time>2020-07-24T14:03:11Z</time>
      </trkpt>
      <trkpt lat="47.59185" lon="5.38506">
        <ele>199.8</ele>
        <time>2020-07-24T14:03:15Z</time>
      </trkpt>
      <trkpt lat="47.59172" lon="5.38526">
        <ele>201.7</ele>
        <time>2020-07-24T14:03:20Z</time>
      </trkpt>
      <trkpt lat="47.59163" lon="5.3854">
        <ele>202.2</ele>
        <time>2020-07-24T14:03:24Z</time>
      </trkpt>
      <trkpt lat="47.59147" lon="5.38557">
        <ele>202.2</ele>
        <time>2020-07-24T14:03:29Z</time>
      </trkpt>
      <trkpt lat="47.59134" lon="5.38572">
        <ele>201.8</ele>
        <time>2020-07-24T14:03:33Z</time>
      </trkpt>
      <trkpt lat="47.59119" lon="5.38589">
        <ele>201.7</ele>
        <time>2020-07-24T14:03:37Z</time>
      </trkpt>
      <trkpt lat="47.59104" lon="5.38604">
        <ele>201.4</ele>
        <time>2020-07-24T14:03:41Z</time>
      </trkpt>
      <trkpt lat="47.59085" lon="5.38624">
        <ele>201.5</ele>
        <time>2020-07-24T14:03:46Z</time>
      </trkpt>
      <trkpt lat="47.5907" lon="5.38638">
        <ele>201.5</ele>
        <time>2020-07-24T14:03:50Z</time>
      </trkpt>
      <trkpt lat="47.5905" lon="5.38656">
        <ele>202</ele>
        <time>2020-07-24T14:03:55Z</time>
      </trkpt>
      <trkpt lat="47.59034" lon="5.38669">
        <ele>202.3</ele>
        <time>2020-07-24T14:03:59Z</time>
      </trkpt>
      <trkpt lat="47.59013" lon="5.38685">
        <ele>201</ele>
        <time>2020-07-24T14:04:04Z</time>
      </trkpt>
      <trkpt lat="47.58995" lon="5.38696">
        <ele>200.1</ele>
        <time>2020-07-24T14:04:08Z</time>
      </trkpt>
      <trkpt lat="47.58977" lon="5.38708">
        <ele>199.2</ele>
        <time>2020-07-24T14:04:12Z</time>
      </trkpt>
      <trkpt lat="47.58958" lon="5.38718">
        <ele>199.5</ele>
        <time>2020-07-24T14:04:16Z</time>
      </trkpt>
      <trkpt lat="47.58933" lon="5.38729">
        <ele>198.6</ele>
        <time>2020-07-24T14:04:21Z</time>
      </trkpt>
      <trkpt lat="47.58913" lon="5.3874">
        <ele>196.6</ele>
        <time>2020-07-24T14:04:25Z</time>
      </trkpt>
      <trkpt lat="47.58888" lon="5.38756">
        <ele>196.6</ele>
        <time>2020-07-24T14:04:30Z</time>
      </trkpt>
      <trkpt lat="47.58869" lon="5.38763">
        <ele>197.9</ele>
        <time>2020-07-24T14:04:35Z</time>
      </trkpt>
      <trkpt lat="47.58862" lon="5.38774">
        <ele>201</ele>
        <time>2020-07-24T14:04:39Z</time>
      </trkpt>
      <trkpt lat="47.58866" lon="5.38794">
        <ele>201.7</ele>
        <time>2020-07-24T14:04:44Z</time>
      </trkpt>
      <trkpt lat="47.58874" lon="5.38811">
        <ele>198.5</ele>
        <time>2020-07-24T14:04:48Z</time>
      </trkpt>
      <trkpt lat="47.58883" lon="5.38831">
        <ele>195.3</ele>
        <time>2020-07-24T14:04:52Z</time>
      </trkpt>
      <trkpt lat="47.58898" lon="5.38867">
        <ele>195.3</ele>
        <time>2020-07-24T14:04:57Z</time>
      </trkpt>
      <trkpt lat="47.58916" lon="5.3891">
        <ele>193.6</ele>
        <time>2020-07-24T14:05:02Z</time>
      </trkpt>
      <trkpt lat="47.5893" lon="5.38942">
        <ele>193.9</ele>
        <time>2020-07-24T14:05:06Z</time>
      </trkpt>
      <trkpt lat="47.58944" lon="5.38972">
        <ele>194.9</ele>
        <time>2020-07-24T14:05:10Z</time>
      </trkpt>
      <trkpt lat="47.58959" lon="5.39007">
        <ele>195.5</ele>
        <time>2020-07-24T14:05:15Z</time>
      </trkpt>
      <trkpt lat="47.58974" lon="5.39044">
        <ele>196.7</ele>
        <time>2020-07-24T14:05:20Z</time>
      </trkpt>
      <trkpt lat="47.58987" lon="5.39073">
        <ele>196.6</ele>
        <time>2020-07-24T14:05:24Z</time>
      </trkpt>
      <trkpt lat="47.59" lon="5.39101">
        <ele>195.2</ele>
        <time>2020-07-24T14:05:28Z</time>
      </trkpt>
      <trkpt lat="47.59016" lon="5.39138">
        <ele>194.8</ele>
        <time>2020-07-24T14:05:33Z</time>
      </trkpt>
      <trkpt lat="47.59031" lon="5.39163">
        <ele>194.6</ele>
        <time>2020-07-24T14:05:37Z</time>
      </trkpt>
      <trkpt lat="47.59053" lon="5.39187">
        <ele>194.3</ele>
        <time>2020-07-24T14:05:42Z</time>
      </trkpt>
      <trkpt lat="47.59072" lon="5.39201">
        <ele>195.3</ele>
        <time>2020-07-24T14:05:46Z</time>
      </trkpt>
      <trkpt lat="47.5909" lon="5.39213">
        <ele>196</ele>
        <time>2020-07-24T14:05:50Z</time>
      </trkpt>
      <trkpt lat="47.5911" lon="5.39231">
        <ele>195.3</ele>
        <time>2020-07-24T14:05:55Z</time>
      </trkpt>
      <trkpt lat="47.5912" lon="5.39254">
        <ele>193.7</ele>
        <time>2020-07-24T14:05:59Z</time>
      </trkpt>
      <trkpt lat="47.59124" lon="5.3928">
        <ele>192.9</ele>
        <time>2020-07-24T14:06:04Z</time>
      </trkpt>
      <trkpt lat="47.59131" lon="5.3931">
        <ele>192.7</ele>
        <time>2020-07-24T14:06:09Z</time>
      </trkpt>
      <trkpt lat="47.59136" lon="5.39335">
        <ele>191.4</ele>
        <time>2020-07-24T14:06:13Z</time>
      </trkpt>
      <trkpt lat="47.59143" lon="5.39361">
        <ele>190.7</ele>
        <time>2020-07-24T14:06:18Z</time>
      </trkpt>
      <trkpt lat="47.59145" lon="5.39368">
        <ele>190</ele>
        <time>2020-07-24T14:06:23Z</time>
      </trkpt>
      <trkpt lat="47.59145" lon="5.39368">
        <ele>190</ele>
        <time>2020-07-24T14:06:24Z</time>
      </trkpt>
    </trkseg>
  </trk>
</gpx>